<?xml version="1.0" encoding="UTF-8" standalone="no" ?>
<gpx xmlns="http://www.topografix.com/GPX/1/1" xmlns:xsi="http://www.w3.org/2001/XMLSchema-instance" xsi:schemaLocation="http://www.topografix.com/GPX/1/1 http://www.topografix.com/GPX/1/1/gpx.xsd" version="1.1" creator="VisuGPX - https://www.visugpx.com">
  <metadata>
    <name>-1-lanne-NE1</name>
    <desc><![CDATA[SEMAINE LSVC 2024]]></desc>
  </metadata>
  <trk>
    <name><![CDATA[-1-lanne-NE1]]></name>
    <extensions>
      <line xmlns="http://www.topografix.com/GPX/gpx_style/0/2">
        <color>0000FF</color>
        <width>4</width>
      </line>
    </extensions>
    <trkseg>
      <trkpt lat="43.09712" lon="-0.77879">
        <ele>337.41</ele>
        <time>2024-05-29T21:37:42.000Z</time>
      </trkpt>
      <trkpt lat="43.09728" lon="-0.77867">
        <ele>337.25</ele>
        <time>2024-05-29T21:37:42.003Z</time>
      </trkpt>
      <trkpt lat="43.09746" lon="-0.77859">
        <ele>337.1</ele>
        <time>2024-05-29T21:37:42.010Z</time>
      </trkpt>
      <trkpt lat="43.09807" lon="-0.7786">
        <ele>336.86</ele>
        <time>2024-05-29T21:37:42.028Z</time>
      </trkpt>
      <trkpt lat="43.09821" lon="-0.77857">
        <ele>336.38</ele>
        <time>2024-05-29T21:37:42.049Z</time>
      </trkpt>
      <trkpt lat="43.09835" lon="-0.77849">
        <ele>336.02</ele>
        <time>2024-05-29T21:37:42.073Z</time>
      </trkpt>
      <trkpt lat="43.09929" lon="-0.77777">
        <ele>335.69</ele>
        <time>2024-05-29T21:37:42.117Z</time>
      </trkpt>
      <trkpt lat="43.09979" lon="-0.77746">
        <ele>335.22</ele>
        <time>2024-05-29T21:37:42.171Z</time>
      </trkpt>
      <trkpt lat="43.10012" lon="-0.77728">
        <ele>334.65</ele>
        <time>2024-05-29T21:37:42.232Z</time>
      </trkpt>
      <trkpt lat="43.10049" lon="-0.77722">
        <ele>334</ele>
        <time>2024-05-29T21:37:42.300Z</time>
      </trkpt>
      <trkpt lat="43.10061" lon="-0.77718">
        <ele>333.44</ele>
        <time>2024-05-29T21:37:42.370Z</time>
      </trkpt>
      <trkpt lat="43.10072" lon="-0.7771">
        <ele>332.88</ele>
        <time>2024-05-29T21:37:42.442Z</time>
      </trkpt>
      <trkpt lat="43.10084" lon="-0.77691">
        <ele>332.25</ele>
        <time>2024-05-29T21:37:42.518Z</time>
      </trkpt>
      <trkpt lat="43.10092" lon="-0.77669">
        <ele>331.69</ele>
        <time>2024-05-29T21:37:42.597Z</time>
      </trkpt>
      <trkpt lat="43.10097" lon="-0.77604">
        <ele>331.25</ele>
        <time>2024-05-29T21:37:42.685Z</time>
      </trkpt>
      <trkpt lat="43.10103" lon="-0.77574">
        <ele>330.86</ele>
        <time>2024-05-29T21:37:42.777Z</time>
      </trkpt>
      <trkpt lat="43.10134" lon="-0.77485">
        <ele>330.34</ele>
        <time>2024-05-29T21:37:42.883Z</time>
      </trkpt>
      <trkpt lat="43.10141" lon="-0.77471">
        <ele>329.92</ele>
        <time>2024-05-29T21:37:42.991Z</time>
      </trkpt>
      <trkpt lat="43.10184" lon="-0.77415">
        <ele>329.87</ele>
        <time>2024-05-29T21:37:43.110Z</time>
      </trkpt>
      <trkpt lat="43.10196" lon="-0.77406">
        <ele>329.67</ele>
        <time>2024-05-29T21:37:43.231Z</time>
      </trkpt>
      <trkpt lat="43.10313" lon="-0.77378">
        <ele>328.73</ele>
        <time>2024-05-29T21:37:43.375Z</time>
      </trkpt>
      <trkpt lat="43.10375" lon="-0.77356">
        <ele>328.36</ele>
        <time>2024-05-29T21:37:43.530Z</time>
      </trkpt>
      <trkpt lat="43.10404" lon="-0.77349">
        <ele>327.51</ele>
        <time>2024-05-29T21:37:43.691Z</time>
      </trkpt>
      <trkpt lat="43.10436" lon="-0.77335">
        <ele>326.52</ele>
        <time>2024-05-29T21:37:43.858Z</time>
      </trkpt>
      <trkpt lat="43.10442" lon="-0.77334">
        <ele>325.68</ele>
        <time>2024-05-29T21:37:44.026Z</time>
      </trkpt>
      <trkpt lat="43.10448" lon="-0.77334">
        <ele>324.88</ele>
        <time>2024-05-29T21:37:44.195Z</time>
      </trkpt>
      <trkpt lat="43.105" lon="-0.77354">
        <ele>324.22</ele>
        <time>2024-05-29T21:37:44.374Z</time>
      </trkpt>
      <trkpt lat="43.10522" lon="-0.7736">
        <ele>323.67</ele>
        <time>2024-05-29T21:37:44.558Z</time>
      </trkpt>
      <trkpt lat="43.10545" lon="-0.77357">
        <ele>323.07</ele>
        <time>2024-05-29T21:37:44.746Z</time>
      </trkpt>
      <trkpt lat="43.10559" lon="-0.77352">
        <ele>322.49</ele>
        <time>2024-05-29T21:37:44.937Z</time>
      </trkpt>
      <trkpt lat="43.10579" lon="-0.77339">
        <ele>321.9</ele>
        <time>2024-05-29T21:37:45.132Z</time>
      </trkpt>
      <trkpt lat="43.10614" lon="-0.77311">
        <ele>321.37</ele>
        <time>2024-05-29T21:37:45.334Z</time>
      </trkpt>
      <trkpt lat="43.10682" lon="-0.77277">
        <ele>320.77</ele>
        <time>2024-05-29T21:37:45.550Z</time>
      </trkpt>
      <trkpt lat="43.10702" lon="-0.7727">
        <ele>320.31</ele>
        <time>2024-05-29T21:37:45.770Z</time>
      </trkpt>
      <trkpt lat="43.10842" lon="-0.77252">
        <ele>319.77</ele>
        <time>2024-05-29T21:37:46.016Z</time>
      </trkpt>
      <trkpt lat="43.10905" lon="-0.77263">
        <ele>319.11</ele>
        <time>2024-05-29T21:37:46.274Z</time>
      </trkpt>
      <trkpt lat="43.10927" lon="-0.77263">
        <ele>318.84</ele>
        <time>2024-05-29T21:37:46.536Z</time>
      </trkpt>
      <trkpt lat="43.10945" lon="-0.7726">
        <ele>318.66</ele>
        <time>2024-05-29T21:37:46.801Z</time>
      </trkpt>
      <trkpt lat="43.10965" lon="-0.77247">
        <ele>318.61</ele>
        <time>2024-05-29T21:37:47.070Z</time>
      </trkpt>
      <trkpt lat="43.10988" lon="-0.77229">
        <ele>318.59</ele>
        <time>2024-05-29T21:37:47.344Z</time>
      </trkpt>
      <trkpt lat="43.11028" lon="-0.7722">
        <ele>318.62</ele>
        <time>2024-05-29T21:37:47.626Z</time>
      </trkpt>
      <trkpt lat="43.11028" lon="-0.77212">
        <ele>318.75</ele>
        <time>2024-05-29T21:37:47.909Z</time>
      </trkpt>
      <trkpt lat="43.11025" lon="-0.77095">
        <ele>319.08</ele>
        <time>2024-05-29T21:37:48.208Z</time>
      </trkpt>
      <trkpt lat="43.11026" lon="-0.77084">
        <ele>319.46</ele>
        <time>2024-05-29T21:37:48.508Z</time>
      </trkpt>
      <trkpt lat="43.11036" lon="-0.77063">
        <ele>319.93</ele>
        <time>2024-05-29T21:37:48.812Z</time>
      </trkpt>
      <trkpt lat="43.11042" lon="-0.77055">
        <ele>320.42</ele>
        <time>2024-05-29T21:37:49.117Z</time>
      </trkpt>
      <trkpt lat="43.11052" lon="-0.77047">
        <ele>320.92</ele>
        <time>2024-05-29T21:37:49.424Z</time>
      </trkpt>
      <trkpt lat="43.11113" lon="-0.77021">
        <ele>321.35</ele>
        <time>2024-05-29T21:37:49.743Z</time>
      </trkpt>
      <trkpt lat="43.11132" lon="-0.77006">
        <ele>321.92</ele>
        <time>2024-05-29T21:37:50.066Z</time>
      </trkpt>
      <trkpt lat="43.11148" lon="-0.76984">
        <ele>322.51</ele>
        <time>2024-05-29T21:37:50.394Z</time>
      </trkpt>
      <trkpt lat="43.11161" lon="-0.76958">
        <ele>323.11</ele>
        <time>2024-05-29T21:37:50.726Z</time>
      </trkpt>
      <trkpt lat="43.11175" lon="-0.76919">
        <ele>323.61</ele>
        <time>2024-05-29T21:37:51.064Z</time>
      </trkpt>
      <trkpt lat="43.11181" lon="-0.76901">
        <ele>324.11</ele>
        <time>2024-05-29T21:37:51.404Z</time>
      </trkpt>
      <trkpt lat="43.11216" lon="-0.76731">
        <ele>324.52</ele>
        <time>2024-05-29T21:37:51.768Z</time>
      </trkpt>
      <trkpt lat="43.11297" lon="-0.76442">
        <ele>324.94</ele>
        <time>2024-05-29T21:37:52.175Z</time>
      </trkpt>
      <trkpt lat="43.113" lon="-0.76414">
        <ele>325.29</ele>
        <time>2024-05-29T21:37:52.586Z</time>
      </trkpt>
      <trkpt lat="43.11298" lon="-0.76405">
        <ele>325.58</ele>
        <time>2024-05-29T21:37:52.998Z</time>
      </trkpt>
      <trkpt lat="43.113" lon="-0.76398">
        <ele>325.81</ele>
        <time>2024-05-29T21:37:53.411Z</time>
      </trkpt>
      <trkpt lat="43.11304" lon="-0.76394">
        <ele>325.96</ele>
        <time>2024-05-29T21:37:53.825Z</time>
      </trkpt>
      <trkpt lat="43.11315" lon="-0.76354">
        <ele>326.06</ele>
        <time>2024-05-29T21:37:54.245Z</time>
      </trkpt>
      <trkpt lat="43.11327" lon="-0.76253">
        <ele>326.25</ele>
        <time>2024-05-29T21:37:54.679Z</time>
      </trkpt>
      <trkpt lat="43.11325" lon="-0.76209">
        <ele>326.1</ele>
        <time>2024-05-29T21:37:55.119Z</time>
      </trkpt>
      <trkpt lat="43.11324" lon="-0.76082">
        <ele>325.83</ele>
        <time>2024-05-29T21:37:55.576Z</time>
      </trkpt>
      <trkpt lat="43.11326" lon="-0.76036">
        <ele>325.49</ele>
        <time>2024-05-29T21:37:56.039Z</time>
      </trkpt>
      <trkpt lat="43.11335" lon="-0.75981">
        <ele>324.96</ele>
        <time>2024-05-29T21:37:56.510Z</time>
      </trkpt>
      <trkpt lat="43.11334" lon="-0.75948">
        <ele>324.5</ele>
        <time>2024-05-29T21:37:56.985Z</time>
      </trkpt>
      <trkpt lat="43.11328" lon="-0.7593">
        <ele>323.94</ele>
        <time>2024-05-29T21:37:57.463Z</time>
      </trkpt>
      <trkpt lat="43.11321" lon="-0.75919">
        <ele>323.29</ele>
        <time>2024-05-29T21:37:57.943Z</time>
      </trkpt>
      <trkpt lat="43.11256" lon="-0.75853">
        <ele>322.68</ele>
        <time>2024-05-29T21:37:58.438Z</time>
      </trkpt>
      <trkpt lat="43.11245" lon="-0.75833">
        <ele>321.79</ele>
        <time>2024-05-29T21:37:58.936Z</time>
      </trkpt>
      <trkpt lat="43.11237" lon="-0.75805">
        <ele>320.75</ele>
        <time>2024-05-29T21:37:59.439Z</time>
      </trkpt>
      <trkpt lat="43.11235" lon="-0.75787">
        <ele>319.62</ele>
        <time>2024-05-29T21:37:59.944Z</time>
      </trkpt>
      <trkpt lat="43.11236" lon="-0.75759">
        <ele>318.34</ele>
        <time>2024-05-29T21:38:00.453Z</time>
      </trkpt>
      <trkpt lat="43.11244" lon="-0.75714">
        <ele>316.91</ele>
        <time>2024-05-29T21:38:00.968Z</time>
      </trkpt>
      <trkpt lat="43.11249" lon="-0.75709">
        <ele>315.48</ele>
        <time>2024-05-29T21:38:01.484Z</time>
      </trkpt>
      <trkpt lat="43.11254" lon="-0.75708">
        <ele>313.97</ele>
        <time>2024-05-29T21:38:02.001Z</time>
      </trkpt>
      <trkpt lat="43.11257" lon="-0.75702">
        <ele>312.4</ele>
        <time>2024-05-29T21:38:02.519Z</time>
      </trkpt>
      <trkpt lat="43.11265" lon="-0.7567">
        <ele>310.69</ele>
        <time>2024-05-29T21:38:03.042Z</time>
      </trkpt>
      <trkpt lat="43.11274" lon="-0.75648">
        <ele>308.91</ele>
        <time>2024-05-29T21:38:03.568Z</time>
      </trkpt>
      <trkpt lat="43.11307" lon="-0.75602">
        <ele>306.63</ele>
        <time>2024-05-29T21:38:04.103Z</time>
      </trkpt>
      <trkpt lat="43.11332" lon="-0.75561">
        <ele>304.56</ele>
        <time>2024-05-29T21:38:04.645Z</time>
      </trkpt>
      <trkpt lat="43.11378" lon="-0.75496">
        <ele>302.52</ele>
        <time>2024-05-29T21:38:05.200Z</time>
      </trkpt>
      <trkpt lat="43.11395" lon="-0.75464">
        <ele>300.83</ele>
        <time>2024-05-29T21:38:05.760Z</time>
      </trkpt>
      <trkpt lat="43.11405" lon="-0.75439">
        <ele>299.23</ele>
        <time>2024-05-29T21:38:06.324Z</time>
      </trkpt>
      <trkpt lat="43.11432" lon="-0.75356">
        <ele>297.76</ele>
        <time>2024-05-29T21:38:06.900Z</time>
      </trkpt>
      <trkpt lat="43.11501" lon="-0.75196">
        <ele>296.33</ele>
        <time>2024-05-29T21:38:07.502Z</time>
      </trkpt>
      <trkpt lat="43.11529" lon="-0.75175">
        <ele>295.15</ele>
        <time>2024-05-29T21:38:08.110Z</time>
      </trkpt>
      <trkpt lat="43.11526" lon="-0.75169">
        <ele>293.97</ele>
        <time>2024-05-29T21:38:08.719Z</time>
      </trkpt>
      <trkpt lat="43.11509" lon="-0.75121">
        <ele>292.88</ele>
        <time>2024-05-29T21:38:09.335Z</time>
      </trkpt>
      <trkpt lat="43.11493" lon="-0.7504">
        <ele>291.9</ele>
        <time>2024-05-29T21:38:09.962Z</time>
      </trkpt>
      <trkpt lat="43.11487" lon="-0.7502">
        <ele>291.06</ele>
        <time>2024-05-29T21:38:10.592Z</time>
      </trkpt>
      <trkpt lat="43.11458" lon="-0.74971">
        <ele>290.3</ele>
        <time>2024-05-29T21:38:11.231Z</time>
      </trkpt>
      <trkpt lat="43.11449" lon="-0.74951">
        <ele>289.63</ele>
        <time>2024-05-29T21:38:11.873Z</time>
      </trkpt>
      <trkpt lat="43.11435" lon="-0.74926">
        <ele>289.02</ele>
        <time>2024-05-29T21:38:12.519Z</time>
      </trkpt>
      <trkpt lat="43.1143" lon="-0.74906">
        <ele>288.58</ele>
        <time>2024-05-29T21:38:13.168Z</time>
      </trkpt>
      <trkpt lat="43.11426" lon="-0.74866">
        <ele>288.26</ele>
        <time>2024-05-29T21:38:13.823Z</time>
      </trkpt>
      <trkpt lat="43.11428" lon="-0.74842">
        <ele>287.92</ele>
        <time>2024-05-29T21:38:14.481Z</time>
      </trkpt>
      <trkpt lat="43.11435" lon="-0.74815">
        <ele>287.67</ele>
        <time>2024-05-29T21:38:15.143Z</time>
      </trkpt>
      <trkpt lat="43.11456" lon="-0.74746">
        <ele>287.42</ele>
        <time>2024-05-29T21:38:15.815Z</time>
      </trkpt>
      <trkpt lat="43.11483" lon="-0.74669">
        <ele>287.13</ele>
        <time>2024-05-29T21:38:16.499Z</time>
      </trkpt>
      <trkpt lat="43.11501" lon="-0.7463">
        <ele>286.88</ele>
        <time>2024-05-29T21:38:17.189Z</time>
      </trkpt>
      <trkpt lat="43.11511" lon="-0.74602">
        <ele>286.65</ele>
        <time>2024-05-29T21:38:17.883Z</time>
      </trkpt>
      <trkpt lat="43.11523" lon="-0.74515">
        <ele>286.46</ele>
        <time>2024-05-29T21:38:18.589Z</time>
      </trkpt>
      <trkpt lat="43.1153" lon="-0.7448">
        <ele>286.22</ele>
        <time>2024-05-29T21:38:19.300Z</time>
      </trkpt>
      <trkpt lat="43.11541" lon="-0.74445">
        <ele>285.95</ele>
        <time>2024-05-29T21:38:20.016Z</time>
      </trkpt>
      <trkpt lat="43.11556" lon="-0.74408">
        <ele>285.65</ele>
        <time>2024-05-29T21:38:20.738Z</time>
      </trkpt>
      <trkpt lat="43.11567" lon="-0.74386">
        <ele>285.41</ele>
        <time>2024-05-29T21:38:21.464Z</time>
      </trkpt>
      <trkpt lat="43.11614" lon="-0.74303">
        <ele>285.14</ele>
        <time>2024-05-29T21:38:22.204Z</time>
      </trkpt>
      <trkpt lat="43.11624" lon="-0.74281">
        <ele>284.91</ele>
        <time>2024-05-29T21:38:22.948Z</time>
      </trkpt>
      <trkpt lat="43.11638" lon="-0.7424">
        <ele>284.64</ele>
        <time>2024-05-29T21:38:23.698Z</time>
      </trkpt>
      <trkpt lat="43.11647" lon="-0.7422">
        <ele>284.37</ele>
        <time>2024-05-29T21:38:24.451Z</time>
      </trkpt>
      <trkpt lat="43.11694" lon="-0.74157">
        <ele>284.1</ele>
        <time>2024-05-29T21:38:25.216Z</time>
      </trkpt>
      <trkpt lat="43.11704" lon="-0.74137">
        <ele>283.83</ele>
        <time>2024-05-29T21:38:25.984Z</time>
      </trkpt>
      <trkpt lat="43.11718" lon="-0.74098">
        <ele>283.51</ele>
        <time>2024-05-29T21:38:26.758Z</time>
      </trkpt>
      <trkpt lat="43.11807" lon="-0.73962">
        <ele>283.25</ele>
        <time>2024-05-29T21:38:27.557Z</time>
      </trkpt>
      <trkpt lat="43.11828" lon="-0.73926">
        <ele>282.96</ele>
        <time>2024-05-29T21:38:28.363Z</time>
      </trkpt>
      <trkpt lat="43.11859" lon="-0.73851">
        <ele>282.56</ele>
        <time>2024-05-29T21:38:29.180Z</time>
      </trkpt>
      <trkpt lat="43.11891" lon="-0.73766">
        <ele>282.29</ele>
        <time>2024-05-29T21:38:30.010Z</time>
      </trkpt>
      <trkpt lat="43.11931" lon="-0.73695">
        <ele>281.98</ele>
        <time>2024-05-29T21:38:30.853Z</time>
      </trkpt>
      <trkpt lat="43.11955" lon="-0.73656">
        <ele>281.53</ele>
        <time>2024-05-29T21:38:31.702Z</time>
      </trkpt>
      <trkpt lat="43.12047" lon="-0.73556">
        <ele>281.22</ele>
        <time>2024-05-29T21:38:32.573Z</time>
      </trkpt>
      <trkpt lat="43.12054" lon="-0.73544">
        <ele>280.88</ele>
        <time>2024-05-29T21:38:33.446Z</time>
      </trkpt>
      <trkpt lat="43.12059" lon="-0.73527">
        <ele>280.55</ele>
        <time>2024-05-29T21:38:34.322Z</time>
      </trkpt>
      <trkpt lat="43.12059" lon="-0.73511">
        <ele>280.25</ele>
        <time>2024-05-29T21:38:35.200Z</time>
      </trkpt>
      <trkpt lat="43.12053" lon="-0.73467">
        <ele>279.97</ele>
        <time>2024-05-29T21:38:36.084Z</time>
      </trkpt>
      <trkpt lat="43.12054" lon="-0.73448">
        <ele>279.75</ele>
        <time>2024-05-29T21:38:36.971Z</time>
      </trkpt>
      <trkpt lat="43.1206" lon="-0.73429">
        <ele>279.55</ele>
        <time>2024-05-29T21:38:37.861Z</time>
      </trkpt>
      <trkpt lat="43.12073" lon="-0.73414">
        <ele>279.41</ele>
        <time>2024-05-29T21:38:38.754Z</time>
      </trkpt>
      <trkpt lat="43.12084" lon="-0.73406">
        <ele>279.24</ele>
        <time>2024-05-29T21:38:39.649Z</time>
      </trkpt>
      <trkpt lat="43.12102" lon="-0.73408">
        <ele>279.08</ele>
        <time>2024-05-29T21:38:40.547Z</time>
      </trkpt>
      <trkpt lat="43.12114" lon="-0.73404">
        <ele>278.98</ele>
        <time>2024-05-29T21:38:41.448Z</time>
      </trkpt>
      <trkpt lat="43.12112" lon="-0.73398">
        <ele>278.94</ele>
        <time>2024-05-29T21:38:42.350Z</time>
      </trkpt>
      <trkpt lat="43.12099" lon="-0.73365">
        <ele>279.01</ele>
        <time>2024-05-29T21:38:43.257Z</time>
      </trkpt>
      <trkpt lat="43.12097" lon="-0.73352">
        <ele>279.06</ele>
        <time>2024-05-29T21:38:44.166Z</time>
      </trkpt>
      <trkpt lat="43.12099" lon="-0.73328">
        <ele>279.11</ele>
        <time>2024-05-29T21:38:45.078Z</time>
      </trkpt>
      <trkpt lat="43.12126" lon="-0.73207">
        <ele>279.2</ele>
        <time>2024-05-29T21:38:46.007Z</time>
      </trkpt>
      <trkpt lat="43.12142" lon="-0.73152">
        <ele>279.28</ele>
        <time>2024-05-29T21:38:46.944Z</time>
      </trkpt>
      <trkpt lat="43.12144" lon="-0.73109">
        <ele>279.43</ele>
        <time>2024-05-29T21:38:47.887Z</time>
      </trkpt>
      <trkpt lat="43.12148" lon="-0.73062">
        <ele>279.5</ele>
        <time>2024-05-29T21:38:48.836Z</time>
      </trkpt>
      <trkpt lat="43.12147" lon="-0.73052">
        <ele>279.6</ele>
        <time>2024-05-29T21:38:49.787Z</time>
      </trkpt>
      <trkpt lat="43.12144" lon="-0.73045">
        <ele>279.71</ele>
        <time>2024-05-29T21:38:50.739Z</time>
      </trkpt>
      <trkpt lat="43.12137" lon="-0.73038">
        <ele>279.8</ele>
        <time>2024-05-29T21:38:51.693Z</time>
      </trkpt>
      <trkpt lat="43.12135" lon="-0.73003">
        <ele>279.86</ele>
        <time>2024-05-29T21:38:52.651Z</time>
      </trkpt>
      <trkpt lat="43.12108" lon="-0.72877">
        <ele>279.96</ele>
        <time>2024-05-29T21:38:53.627Z</time>
      </trkpt>
      <trkpt lat="43.12103" lon="-0.72866">
        <ele>280.16</ele>
        <time>2024-05-29T21:38:54.605Z</time>
      </trkpt>
      <trkpt lat="43.12079" lon="-0.72831">
        <ele>280.41</ele>
        <time>2024-05-29T21:38:55.590Z</time>
      </trkpt>
      <trkpt lat="43.12074" lon="-0.72816">
        <ele>280.59</ele>
        <time>2024-05-29T21:38:56.577Z</time>
      </trkpt>
      <trkpt lat="43.12073" lon="-0.7281">
        <ele>280.77</ele>
        <time>2024-05-29T21:38:57.565Z</time>
      </trkpt>
      <trkpt lat="43.12054" lon="-0.72808">
        <ele>280.95</ele>
        <time>2024-05-29T21:38:58.556Z</time>
      </trkpt>
      <trkpt lat="43.12045" lon="-0.72802">
        <ele>281.17</ele>
        <time>2024-05-29T21:38:59.549Z</time>
      </trkpt>
      <trkpt lat="43.12029" lon="-0.72784">
        <ele>281.38</ele>
        <time>2024-05-29T21:39:00.546Z</time>
      </trkpt>
      <trkpt lat="43.12023" lon="-0.72772">
        <ele>281.63</ele>
        <time>2024-05-29T21:39:01.545Z</time>
      </trkpt>
      <trkpt lat="43.12006" lon="-0.72726">
        <ele>281.9</ele>
        <time>2024-05-29T21:39:02.551Z</time>
      </trkpt>
      <trkpt lat="43.11997" lon="-0.72708">
        <ele>282.28</ele>
        <time>2024-05-29T21:39:03.560Z</time>
      </trkpt>
      <trkpt lat="43.11972" lon="-0.72679">
        <ele>282.78</ele>
        <time>2024-05-29T21:39:04.575Z</time>
      </trkpt>
      <trkpt lat="43.11954" lon="-0.72661">
        <ele>283.28</ele>
        <time>2024-05-29T21:39:05.594Z</time>
      </trkpt>
      <trkpt lat="43.11905" lon="-0.72642">
        <ele>283.76</ele>
        <time>2024-05-29T21:39:06.623Z</time>
      </trkpt>
      <trkpt lat="43.11876" lon="-0.72635">
        <ele>284.23</ele>
        <time>2024-05-29T21:39:07.657Z</time>
      </trkpt>
      <trkpt lat="43.11847" lon="-0.72634">
        <ele>284.73</ele>
        <time>2024-05-29T21:39:08.696Z</time>
      </trkpt>
      <trkpt lat="43.1181" lon="-0.72636">
        <ele>285.37</ele>
        <time>2024-05-29T21:39:09.742Z</time>
      </trkpt>
      <trkpt lat="43.11742" lon="-0.72652">
        <ele>286.11</ele>
        <time>2024-05-29T21:39:10.801Z</time>
      </trkpt>
      <trkpt lat="43.11718" lon="-0.72656">
        <ele>286.97</ele>
        <time>2024-05-29T21:39:11.865Z</time>
      </trkpt>
      <trkpt lat="43.11659" lon="-0.72658">
        <ele>287.8</ele>
        <time>2024-05-29T21:39:12.940Z</time>
      </trkpt>
      <trkpt lat="43.11623" lon="-0.72662">
        <ele>288.76</ele>
        <time>2024-05-29T21:39:14.021Z</time>
      </trkpt>
      <trkpt lat="43.11585" lon="-0.72676">
        <ele>289.8</ele>
        <time>2024-05-29T21:39:15.110Z</time>
      </trkpt>
      <trkpt lat="43.11557" lon="-0.72694">
        <ele>290.87</ele>
        <time>2024-05-29T21:39:16.204Z</time>
      </trkpt>
      <trkpt lat="43.11451" lon="-0.7278">
        <ele>292.13</ele>
        <time>2024-05-29T21:39:17.321Z</time>
      </trkpt>
      <trkpt lat="43.11377" lon="-0.72843">
        <ele>293.29</ele>
        <time>2024-05-29T21:39:18.455Z</time>
      </trkpt>
      <trkpt lat="43.11306" lon="-0.72886">
        <ele>294.5</ele>
        <time>2024-05-29T21:39:19.603Z</time>
      </trkpt>
      <trkpt lat="43.1127" lon="-0.729">
        <ele>295.74</ele>
        <time>2024-05-29T21:39:20.758Z</time>
      </trkpt>
      <trkpt lat="43.11221" lon="-0.72913">
        <ele>297.13</ele>
        <time>2024-05-29T21:39:21.922Z</time>
      </trkpt>
      <trkpt lat="43.11127" lon="-0.72925">
        <ele>299.02</ele>
        <time>2024-05-29T21:39:23.104Z</time>
      </trkpt>
      <trkpt lat="43.10961" lon="-0.72954">
        <ele>300.67</ele>
        <time>2024-05-29T21:39:24.317Z</time>
      </trkpt>
      <trkpt lat="43.10938" lon="-0.72959">
        <ele>301.89</ele>
        <time>2024-05-29T21:39:25.534Z</time>
      </trkpt>
      <trkpt lat="43.10908" lon="-0.72975">
        <ele>302.98</ele>
        <time>2024-05-29T21:39:26.757Z</time>
      </trkpt>
      <trkpt lat="43.10893" lon="-0.72976">
        <ele>304.17</ele>
        <time>2024-05-29T21:39:27.983Z</time>
      </trkpt>
      <trkpt lat="43.10849" lon="-0.72946">
        <ele>305.41</ele>
        <time>2024-05-29T21:39:29.218Z</time>
      </trkpt>
      <trkpt lat="43.1083" lon="-0.72943">
        <ele>306.59</ele>
        <time>2024-05-29T21:39:30.457Z</time>
      </trkpt>
      <trkpt lat="43.10748" lon="-0.72956">
        <ele>308.02</ele>
        <time>2024-05-29T21:39:31.711Z</time>
      </trkpt>
      <trkpt lat="43.10733" lon="-0.72952">
        <ele>309.22</ele>
        <time>2024-05-29T21:39:32.968Z</time>
      </trkpt>
      <trkpt lat="43.10727" lon="-0.72949">
        <ele>310.29</ele>
        <time>2024-05-29T21:39:34.226Z</time>
      </trkpt>
      <trkpt lat="43.10648" lon="-0.72907">
        <ele>311.35</ele>
        <time>2024-05-29T21:39:35.500Z</time>
      </trkpt>
      <trkpt lat="43.10619" lon="-0.72885">
        <ele>312.25</ele>
        <time>2024-05-29T21:39:36.780Z</time>
      </trkpt>
      <trkpt lat="43.10486" lon="-0.7274">
        <ele>313.84</ele>
        <time>2024-05-29T21:39:38.092Z</time>
      </trkpt>
      <trkpt lat="43.10353" lon="-0.72573">
        <ele>315</ele>
        <time>2024-05-29T21:39:39.437Z</time>
      </trkpt>
      <trkpt lat="43.10221" lon="-0.72401">
        <ele>314.56</ele>
        <time>2024-05-29T21:39:40.816Z</time>
      </trkpt>
      <trkpt lat="43.10202" lon="-0.72364">
        <ele>315.09</ele>
        <time>2024-05-29T21:39:42.202Z</time>
      </trkpt>
      <trkpt lat="43.10177" lon="-0.72287">
        <ele>315.69</ele>
        <time>2024-05-29T21:39:43.599Z</time>
      </trkpt>
      <trkpt lat="43.1015" lon="-0.72224">
        <ele>316.53</ele>
        <time>2024-05-29T21:39:45.006Z</time>
      </trkpt>
      <trkpt lat="43.10114" lon="-0.72173">
        <ele>316.89</ele>
        <time>2024-05-29T21:39:46.423Z</time>
      </trkpt>
      <trkpt lat="43.10033" lon="-0.72107">
        <ele>316.93</ele>
        <time>2024-05-29T21:39:47.857Z</time>
      </trkpt>
      <trkpt lat="43.0993" lon="-0.72027">
        <ele>316.97</ele>
        <time>2024-05-29T21:39:49.313Z</time>
      </trkpt>
      <trkpt lat="43.09903" lon="-0.72003">
        <ele>317.14</ele>
        <time>2024-05-29T21:39:50.775Z</time>
      </trkpt>
      <trkpt lat="43.099" lon="-0.71997">
        <ele>317.29</ele>
        <time>2024-05-29T21:39:52.238Z</time>
      </trkpt>
      <trkpt lat="43.09876" lon="-0.71956">
        <ele>317.42</ele>
        <time>2024-05-29T21:39:53.708Z</time>
      </trkpt>
      <trkpt lat="43.09828" lon="-0.71897">
        <ele>317.69</ele>
        <time>2024-05-29T21:39:55.190Z</time>
      </trkpt>
      <trkpt lat="43.09821" lon="-0.71885">
        <ele>317.82</ele>
        <time>2024-05-29T21:39:56.674Z</time>
      </trkpt>
      <trkpt lat="43.09817" lon="-0.71875">
        <ele>317.95</ele>
        <time>2024-05-29T21:39:58.160Z</time>
      </trkpt>
      <trkpt lat="43.09815" lon="-0.71867">
        <ele>318.1</ele>
        <time>2024-05-29T21:39:59.647Z</time>
      </trkpt>
      <trkpt lat="43.09813" lon="-0.71825">
        <ele>318.27</ele>
        <time>2024-05-29T21:40:01.140Z</time>
      </trkpt>
      <trkpt lat="43.09805" lon="-0.71789">
        <ele>318.53</ele>
        <time>2024-05-29T21:40:02.638Z</time>
      </trkpt>
      <trkpt lat="43.09793" lon="-0.7176">
        <ele>318.83</ele>
        <time>2024-05-29T21:40:04.141Z</time>
      </trkpt>
      <trkpt lat="43.09785" lon="-0.71745">
        <ele>319.21</ele>
        <time>2024-05-29T21:40:05.646Z</time>
      </trkpt>
      <trkpt lat="43.09777" lon="-0.71735">
        <ele>319.6</ele>
        <time>2024-05-29T21:40:07.153Z</time>
      </trkpt>
      <trkpt lat="43.09766" lon="-0.71725">
        <ele>320.01</ele>
        <time>2024-05-29T21:40:08.663Z</time>
      </trkpt>
      <trkpt lat="43.09705" lon="-0.71698">
        <ele>320.59</ele>
        <time>2024-05-29T21:40:10.185Z</time>
      </trkpt>
      <trkpt lat="43.09616" lon="-0.71687">
        <ele>321.38</ele>
        <time>2024-05-29T21:40:11.723Z</time>
      </trkpt>
      <trkpt lat="43.09557" lon="-0.71703">
        <ele>322.13</ele>
        <time>2024-05-29T21:40:13.272Z</time>
      </trkpt>
      <trkpt lat="43.09544" lon="-0.71664">
        <ele>322.93</ele>
        <time>2024-05-29T21:40:14.827Z</time>
      </trkpt>
      <trkpt lat="43.0954" lon="-0.71657">
        <ele>323.79</ele>
        <time>2024-05-29T21:40:16.383Z</time>
      </trkpt>
      <trkpt lat="43.09533" lon="-0.71651">
        <ele>324.73</ele>
        <time>2024-05-29T21:40:17.941Z</time>
      </trkpt>
      <trkpt lat="43.09511" lon="-0.71643">
        <ele>325.8</ele>
        <time>2024-05-29T21:40:19.503Z</time>
      </trkpt>
      <trkpt lat="43.09509" lon="-0.71638">
        <ele>326.92</ele>
        <time>2024-05-29T21:40:21.066Z</time>
      </trkpt>
      <trkpt lat="43.09507" lon="-0.71632">
        <ele>328.12</ele>
        <time>2024-05-29T21:40:22.630Z</time>
      </trkpt>
      <trkpt lat="43.09507" lon="-0.71599">
        <ele>329.4</ele>
        <time>2024-05-29T21:40:24.198Z</time>
      </trkpt>
      <trkpt lat="43.0952" lon="-0.71495">
        <ele>330.67</ele>
        <time>2024-05-29T21:40:25.781Z</time>
      </trkpt>
      <trkpt lat="43.09523" lon="-0.71448">
        <ele>332.44</ele>
        <time>2024-05-29T21:40:27.370Z</time>
      </trkpt>
      <trkpt lat="43.09522" lon="-0.71431">
        <ele>334.07</ele>
        <time>2024-05-29T21:40:28.961Z</time>
      </trkpt>
      <trkpt lat="43.09517" lon="-0.71412">
        <ele>335.71</ele>
        <time>2024-05-29T21:40:30.555Z</time>
      </trkpt>
      <trkpt lat="43.09502" lon="-0.71388">
        <ele>337.24</ele>
        <time>2024-05-29T21:40:32.154Z</time>
      </trkpt>
      <trkpt lat="43.09496" lon="-0.71372">
        <ele>338.87</ele>
        <time>2024-05-29T21:40:33.755Z</time>
      </trkpt>
      <trkpt lat="43.09492" lon="-0.71356">
        <ele>340.49</ele>
        <time>2024-05-29T21:40:35.358Z</time>
      </trkpt>
      <trkpt lat="43.09495" lon="-0.71336">
        <ele>342.22</ele>
        <time>2024-05-29T21:40:36.964Z</time>
      </trkpt>
      <trkpt lat="43.09509" lon="-0.71303">
        <ele>344.03</ele>
        <time>2024-05-29T21:40:38.575Z</time>
      </trkpt>
      <trkpt lat="43.09551" lon="-0.71233">
        <ele>346.15</ele>
        <time>2024-05-29T21:40:40.199Z</time>
      </trkpt>
      <trkpt lat="43.09561" lon="-0.71207">
        <ele>347.86</ele>
        <time>2024-05-29T21:40:41.827Z</time>
      </trkpt>
      <trkpt lat="43.09565" lon="-0.71193">
        <ele>349.45</ele>
        <time>2024-05-29T21:40:43.457Z</time>
      </trkpt>
      <trkpt lat="43.09568" lon="-0.71165">
        <ele>350.95</ele>
        <time>2024-05-29T21:40:45.091Z</time>
      </trkpt>
      <trkpt lat="43.09572" lon="-0.71111">
        <ele>352.47</ele>
        <time>2024-05-29T21:40:46.732Z</time>
      </trkpt>
      <trkpt lat="43.09575" lon="-0.71053">
        <ele>354.07</ele>
        <time>2024-05-29T21:40:48.381Z</time>
      </trkpt>
      <trkpt lat="43.09574" lon="-0.71036">
        <ele>355.27</ele>
        <time>2024-05-29T21:40:50.032Z</time>
      </trkpt>
      <trkpt lat="43.09565" lon="-0.71003">
        <ele>356.29</ele>
        <time>2024-05-29T21:40:51.688Z</time>
      </trkpt>
      <trkpt lat="43.09552" lon="-0.70967">
        <ele>357.42</ele>
        <time>2024-05-29T21:40:53.349Z</time>
      </trkpt>
      <trkpt lat="43.09537" lon="-0.70944">
        <ele>358.27</ele>
        <time>2024-05-29T21:40:55.015Z</time>
      </trkpt>
      <trkpt lat="43.09533" lon="-0.70941">
        <ele>359.01</ele>
        <time>2024-05-29T21:40:56.681Z</time>
      </trkpt>
      <trkpt lat="43.0953" lon="-0.7094">
        <ele>359.63</ele>
        <time>2024-05-29T21:40:58.348Z</time>
      </trkpt>
      <trkpt lat="43.09521" lon="-0.70942">
        <ele>360.07</ele>
        <time>2024-05-29T21:41:00.017Z</time>
      </trkpt>
      <trkpt lat="43.09517" lon="-0.70951">
        <ele>360.43</ele>
        <time>2024-05-29T21:41:01.687Z</time>
      </trkpt>
      <trkpt lat="43.09516" lon="-0.70966">
        <ele>360.82</ele>
        <time>2024-05-29T21:41:03.359Z</time>
      </trkpt>
      <trkpt lat="43.0952" lon="-0.70992">
        <ele>361.19</ele>
        <time>2024-05-29T21:41:05.035Z</time>
      </trkpt>
      <trkpt lat="43.09533" lon="-0.71051">
        <ele>361.39</ele>
        <time>2024-05-29T21:41:06.719Z</time>
      </trkpt>
      <trkpt lat="43.09534" lon="-0.71067">
        <ele>361.65</ele>
        <time>2024-05-29T21:41:08.405Z</time>
      </trkpt>
      <trkpt lat="43.09531" lon="-0.71081">
        <ele>361.98</ele>
        <time>2024-05-29T21:41:10.093Z</time>
      </trkpt>
      <trkpt lat="43.09527" lon="-0.71095">
        <ele>362.31</ele>
        <time>2024-05-29T21:41:11.784Z</time>
      </trkpt>
      <trkpt lat="43.09517" lon="-0.7111">
        <ele>362.73</ele>
        <time>2024-05-29T21:41:13.477Z</time>
      </trkpt>
      <trkpt lat="43.09499" lon="-0.71128">
        <ele>363.4</ele>
        <time>2024-05-29T21:41:15.174Z</time>
      </trkpt>
      <trkpt lat="43.09477" lon="-0.71174">
        <ele>363.95</ele>
        <time>2024-05-29T21:41:16.879Z</time>
      </trkpt>
      <trkpt lat="43.0947" lon="-0.71184">
        <ele>364.39</ele>
        <time>2024-05-29T21:41:18.586Z</time>
      </trkpt>
      <trkpt lat="43.09462" lon="-0.71191">
        <ele>364.94</ele>
        <time>2024-05-29T21:41:20.295Z</time>
      </trkpt>
      <trkpt lat="43.09448" lon="-0.71199">
        <ele>365.61</ele>
        <time>2024-05-29T21:41:22.006Z</time>
      </trkpt>
      <trkpt lat="43.09405" lon="-0.71217">
        <ele>366.3</ele>
        <time>2024-05-29T21:41:23.726Z</time>
      </trkpt>
      <trkpt lat="43.0938" lon="-0.71222">
        <ele>367.06</ele>
        <time>2024-05-29T21:41:25.450Z</time>
      </trkpt>
      <trkpt lat="43.09349" lon="-0.71219">
        <ele>367.86</ele>
        <time>2024-05-29T21:41:27.180Z</time>
      </trkpt>
      <trkpt lat="43.09328" lon="-0.71213">
        <ele>368.54</ele>
        <time>2024-05-29T21:41:28.914Z</time>
      </trkpt>
      <trkpt lat="43.09304" lon="-0.71197">
        <ele>369.33</ele>
        <time>2024-05-29T21:41:30.653Z</time>
      </trkpt>
      <trkpt lat="43.09278" lon="-0.71175">
        <ele>370.27</ele>
        <time>2024-05-29T21:41:32.398Z</time>
      </trkpt>
      <trkpt lat="43.09262" lon="-0.71166">
        <ele>371.32</ele>
        <time>2024-05-29T21:41:34.146Z</time>
      </trkpt>
      <trkpt lat="43.09244" lon="-0.71158">
        <ele>372.5</ele>
        <time>2024-05-29T21:41:35.898Z</time>
      </trkpt>
      <trkpt lat="43.09213" lon="-0.71149">
        <ele>373.46</ele>
        <time>2024-05-29T21:41:37.656Z</time>
      </trkpt>
      <trkpt lat="43.09205" lon="-0.71143">
        <ele>374.48</ele>
        <time>2024-05-29T21:41:39.415Z</time>
      </trkpt>
      <trkpt lat="43.09203" lon="-0.71136">
        <ele>375.59</ele>
        <time>2024-05-29T21:41:41.175Z</time>
      </trkpt>
      <trkpt lat="43.09202" lon="-0.71134">
        <ele>376.71</ele>
        <time>2024-05-29T21:41:42.936Z</time>
      </trkpt>
      <trkpt lat="43.09203" lon="-0.71124">
        <ele>377.93</ele>
        <time>2024-05-29T21:41:44.698Z</time>
      </trkpt>
      <trkpt lat="43.09208" lon="-0.71114">
        <ele>379.19</ele>
        <time>2024-05-29T21:41:46.462Z</time>
      </trkpt>
      <trkpt lat="43.09238" lon="-0.71072">
        <ele>380.82</ele>
        <time>2024-05-29T21:41:48.234Z</time>
      </trkpt>
      <trkpt lat="43.09246" lon="-0.71055">
        <ele>382.17</ele>
        <time>2024-05-29T21:41:50.008Z</time>
      </trkpt>
      <trkpt lat="43.09249" lon="-0.71045">
        <ele>383.43</ele>
        <time>2024-05-29T21:41:51.784Z</time>
      </trkpt>
      <trkpt lat="43.09252" lon="-0.71026">
        <ele>384.72</ele>
        <time>2024-05-29T21:41:53.562Z</time>
      </trkpt>
      <trkpt lat="43.09251" lon="-0.71015">
        <ele>385.89</ele>
        <time>2024-05-29T21:41:55.342Z</time>
      </trkpt>
      <trkpt lat="43.09249" lon="-0.71009">
        <ele>386.99</ele>
        <time>2024-05-29T21:41:57.123Z</time>
      </trkpt>
      <trkpt lat="43.09243" lon="-0.71001">
        <ele>388.01</ele>
        <time>2024-05-29T21:41:58.905Z</time>
      </trkpt>
      <trkpt lat="43.09235" lon="-0.70996">
        <ele>389.02</ele>
        <time>2024-05-29T21:42:00.689Z</time>
      </trkpt>
      <trkpt lat="43.09203" lon="-0.70991">
        <ele>389.78</ele>
        <time>2024-05-29T21:42:02.479Z</time>
      </trkpt>
      <trkpt lat="43.09192" lon="-0.70986">
        <ele>390.72</ele>
        <time>2024-05-29T21:42:04.271Z</time>
      </trkpt>
      <trkpt lat="43.09183" lon="-0.7098">
        <ele>391.69</ele>
        <time>2024-05-29T21:42:06.065Z</time>
      </trkpt>
      <trkpt lat="43.09175" lon="-0.70971">
        <ele>392.67</ele>
        <time>2024-05-29T21:42:07.861Z</time>
      </trkpt>
      <trkpt lat="43.09171" lon="-0.70961">
        <ele>393.68</ele>
        <time>2024-05-29T21:42:09.659Z</time>
      </trkpt>
      <trkpt lat="43.09169" lon="-0.70949">
        <ele>394.69</ele>
        <time>2024-05-29T21:42:11.458Z</time>
      </trkpt>
      <trkpt lat="43.09171" lon="-0.70897">
        <ele>395.93</ele>
        <time>2024-05-29T21:42:13.264Z</time>
      </trkpt>
      <trkpt lat="43.09174" lon="-0.70885">
        <ele>396.97</ele>
        <time>2024-05-29T21:42:15.072Z</time>
      </trkpt>
      <trkpt lat="43.09178" lon="-0.70877">
        <ele>398.03</ele>
        <time>2024-05-29T21:42:16.881Z</time>
      </trkpt>
      <trkpt lat="43.09184" lon="-0.70871">
        <ele>399.12</ele>
        <time>2024-05-29T21:42:18.692Z</time>
      </trkpt>
      <trkpt lat="43.09224" lon="-0.70855">
        <ele>400.54</ele>
        <time>2024-05-29T21:42:20.511Z</time>
      </trkpt>
      <trkpt lat="43.09237" lon="-0.70846">
        <ele>401.59</ele>
        <time>2024-05-29T21:42:22.332Z</time>
      </trkpt>
      <trkpt lat="43.09246" lon="-0.70837">
        <ele>402.61</ele>
        <time>2024-05-29T21:42:24.155Z</time>
      </trkpt>
      <trkpt lat="43.09254" lon="-0.70824">
        <ele>403.66</ele>
        <time>2024-05-29T21:42:25.981Z</time>
      </trkpt>
      <trkpt lat="43.09259" lon="-0.70808">
        <ele>404.68</ele>
        <time>2024-05-29T21:42:27.809Z</time>
      </trkpt>
      <trkpt lat="43.0926" lon="-0.70794">
        <ele>405.68</ele>
        <time>2024-05-29T21:42:29.639Z</time>
      </trkpt>
      <trkpt lat="43.09255" lon="-0.70772">
        <ele>406.7</ele>
        <time>2024-05-29T21:42:31.472Z</time>
      </trkpt>
      <trkpt lat="43.09248" lon="-0.70763">
        <ele>407.7</ele>
        <time>2024-05-29T21:42:33.307Z</time>
      </trkpt>
      <trkpt lat="43.09236" lon="-0.70755">
        <ele>408.66</ele>
        <time>2024-05-29T21:42:35.144Z</time>
      </trkpt>
      <trkpt lat="43.09169" lon="-0.70722">
        <ele>409.44</ele>
        <time>2024-05-29T21:42:36.995Z</time>
      </trkpt>
      <trkpt lat="43.09162" lon="-0.70716">
        <ele>410.4</ele>
        <time>2024-05-29T21:42:38.847Z</time>
      </trkpt>
      <trkpt lat="43.09158" lon="-0.70709">
        <ele>411.34</ele>
        <time>2024-05-29T21:42:40.700Z</time>
      </trkpt>
      <trkpt lat="43.09156" lon="-0.70699">
        <ele>412.31</ele>
        <time>2024-05-29T21:42:42.555Z</time>
      </trkpt>
      <trkpt lat="43.09161" lon="-0.70677">
        <ele>413.38</ele>
        <time>2024-05-29T21:42:44.413Z</time>
      </trkpt>
      <trkpt lat="43.09178" lon="-0.7064">
        <ele>414.46</ele>
        <time>2024-05-29T21:42:46.277Z</time>
      </trkpt>
      <trkpt lat="43.09187" lon="-0.70626">
        <ele>415.41</ele>
        <time>2024-05-29T21:42:48.143Z</time>
      </trkpt>
      <trkpt lat="43.0921" lon="-0.70599">
        <ele>416.55</ele>
        <time>2024-05-29T21:42:50.015Z</time>
      </trkpt>
      <trkpt lat="43.09214" lon="-0.70589">
        <ele>417.33</ele>
        <time>2024-05-29T21:42:51.889Z</time>
      </trkpt>
      <trkpt lat="43.09216" lon="-0.7057">
        <ele>418.01</ele>
        <time>2024-05-29T21:42:53.765Z</time>
      </trkpt>
      <trkpt lat="43.09213" lon="-0.70557">
        <ele>418.54</ele>
        <time>2024-05-29T21:42:55.643Z</time>
      </trkpt>
      <trkpt lat="43.09202" lon="-0.70524">
        <ele>418.96</ele>
        <time>2024-05-29T21:42:57.526Z</time>
      </trkpt>
      <trkpt lat="43.09201" lon="-0.70496">
        <ele>419.32</ele>
        <time>2024-05-29T21:42:59.413Z</time>
      </trkpt>
      <trkpt lat="43.09207" lon="-0.70462">
        <ele>419.62</ele>
        <time>2024-05-29T21:43:01.305Z</time>
      </trkpt>
      <trkpt lat="43.09212" lon="-0.70448">
        <ele>419.77</ele>
        <time>2024-05-29T21:43:03.199Z</time>
      </trkpt>
      <trkpt lat="43.09236" lon="-0.70419">
        <ele>419.75</ele>
        <time>2024-05-29T21:43:05.099Z</time>
      </trkpt>
      <trkpt lat="43.09242" lon="-0.70404">
        <ele>419.58</ele>
        <time>2024-05-29T21:43:07.001Z</time>
      </trkpt>
      <trkpt lat="43.09243" lon="-0.70349">
        <ele>419.26</ele>
        <time>2024-05-29T21:43:08.911Z</time>
      </trkpt>
      <trkpt lat="43.09255" lon="-0.70258">
        <ele>418.69</ele>
        <time>2024-05-29T21:43:10.833Z</time>
      </trkpt>
      <trkpt lat="43.09255" lon="-0.70244">
        <ele>418.29</ele>
        <time>2024-05-29T21:43:12.757Z</time>
      </trkpt>
      <trkpt lat="43.09251" lon="-0.70232">
        <ele>417.74</ele>
        <time>2024-05-29T21:43:14.683Z</time>
      </trkpt>
      <trkpt lat="43.09247" lon="-0.70223">
        <ele>417.06</ele>
        <time>2024-05-29T21:43:16.610Z</time>
      </trkpt>
      <trkpt lat="43.09242" lon="-0.70219">
        <ele>416.36</ele>
        <time>2024-05-29T21:43:18.538Z</time>
      </trkpt>
      <trkpt lat="43.09233" lon="-0.70217">
        <ele>415.64</ele>
        <time>2024-05-29T21:43:20.468Z</time>
      </trkpt>
      <trkpt lat="43.09146" lon="-0.70244">
        <ele>415.14</ele>
        <time>2024-05-29T21:43:22.415Z</time>
      </trkpt>
      <trkpt lat="43.09136" lon="-0.7024">
        <ele>414.41</ele>
        <time>2024-05-29T21:43:24.364Z</time>
      </trkpt>
      <trkpt lat="43.09129" lon="-0.70231">
        <ele>413.58</ele>
        <time>2024-05-29T21:43:26.314Z</time>
      </trkpt>
      <trkpt lat="43.09128" lon="-0.70215">
        <ele>412.66</ele>
        <time>2024-05-29T21:43:28.267Z</time>
      </trkpt>
      <trkpt lat="43.09135" lon="-0.70201">
        <ele>411.65</ele>
        <time>2024-05-29T21:43:30.222Z</time>
      </trkpt>
      <trkpt lat="43.09208" lon="-0.70129">
        <ele>410.02</ele>
        <time>2024-05-29T21:43:32.194Z</time>
      </trkpt>
      <trkpt lat="43.09223" lon="-0.70105">
        <ele>408.95</ele>
        <time>2024-05-29T21:43:34.170Z</time>
      </trkpt>
      <trkpt lat="43.09233" lon="-0.70084">
        <ele>407.96</ele>
        <time>2024-05-29T21:43:36.149Z</time>
      </trkpt>
      <trkpt lat="43.09236" lon="-0.70068">
        <ele>407.09</ele>
        <time>2024-05-29T21:43:38.131Z</time>
      </trkpt>
      <trkpt lat="43.09235" lon="-0.70061">
        <ele>406.35</ele>
        <time>2024-05-29T21:43:40.114Z</time>
      </trkpt>
      <trkpt lat="43.09235" lon="-0.70057">
        <ele>405.64</ele>
        <time>2024-05-29T21:43:42.097Z</time>
      </trkpt>
      <trkpt lat="43.09228" lon="-0.70044">
        <ele>405.07</ele>
        <time>2024-05-29T21:43:44.082Z</time>
      </trkpt>
      <trkpt lat="43.09219" lon="-0.7004">
        <ele>404.56</ele>
        <time>2024-05-29T21:43:46.069Z</time>
      </trkpt>
      <trkpt lat="43.09193" lon="-0.70041">
        <ele>404.25</ele>
        <time>2024-05-29T21:43:48.061Z</time>
      </trkpt>
      <trkpt lat="43.09173" lon="-0.70044">
        <ele>403.88</ele>
        <time>2024-05-29T21:43:50.057Z</time>
      </trkpt>
      <trkpt lat="43.09166" lon="-0.70042">
        <ele>403.4</ele>
        <time>2024-05-29T21:43:52.054Z</time>
      </trkpt>
      <trkpt lat="43.09162" lon="-0.70035">
        <ele>402.86</ele>
        <time>2024-05-29T21:43:54.052Z</time>
      </trkpt>
      <trkpt lat="43.09161" lon="-0.70028">
        <ele>402.31</ele>
        <time>2024-05-29T21:43:56.051Z</time>
      </trkpt>
      <trkpt lat="43.09162" lon="-0.70019">
        <ele>401.73</ele>
        <time>2024-05-29T21:43:58.051Z</time>
      </trkpt>
      <trkpt lat="43.09166" lon="-0.70008">
        <ele>401.08</ele>
        <time>2024-05-29T21:44:00.053Z</time>
      </trkpt>
      <trkpt lat="43.09199" lon="-0.69983">
        <ele>400.13</ele>
        <time>2024-05-29T21:44:02.062Z</time>
      </trkpt>
      <trkpt lat="43.09215" lon="-0.69966">
        <ele>399.31</ele>
        <time>2024-05-29T21:44:04.075Z</time>
      </trkpt>
      <trkpt lat="43.09223" lon="-0.6995">
        <ele>398.54</ele>
        <time>2024-05-29T21:44:06.091Z</time>
      </trkpt>
      <trkpt lat="43.0923" lon="-0.69926">
        <ele>397.78</ele>
        <time>2024-05-29T21:44:08.110Z</time>
      </trkpt>
      <trkpt lat="43.09233" lon="-0.69905">
        <ele>397.03</ele>
        <time>2024-05-29T21:44:10.132Z</time>
      </trkpt>
      <trkpt lat="43.09233" lon="-0.69882">
        <ele>396.28</ele>
        <time>2024-05-29T21:44:12.157Z</time>
      </trkpt>
      <trkpt lat="43.0923" lon="-0.69852">
        <ele>395.46</ele>
        <time>2024-05-29T21:44:14.186Z</time>
      </trkpt>
      <trkpt lat="43.09225" lon="-0.6984">
        <ele>394.67</ele>
        <time>2024-05-29T21:44:16.217Z</time>
      </trkpt>
      <trkpt lat="43.09219" lon="-0.69833">
        <ele>393.85</ele>
        <time>2024-05-29T21:44:18.250Z</time>
      </trkpt>
      <trkpt lat="43.09205" lon="-0.69825">
        <ele>393.07</ele>
        <time>2024-05-29T21:44:20.285Z</time>
      </trkpt>
      <trkpt lat="43.092" lon="-0.69819">
        <ele>392.09</ele>
        <time>2024-05-29T21:44:22.322Z</time>
      </trkpt>
      <trkpt lat="43.09198" lon="-0.69806">
        <ele>391</ele>
        <time>2024-05-29T21:44:24.360Z</time>
      </trkpt>
      <trkpt lat="43.09199" lon="-0.69798">
        <ele>389.81</ele>
        <time>2024-05-29T21:44:26.400Z</time>
      </trkpt>
      <trkpt lat="43.09204" lon="-0.69792">
        <ele>388.46</ele>
        <time>2024-05-29T21:44:28.441Z</time>
      </trkpt>
      <trkpt lat="43.09225" lon="-0.69774">
        <ele>386.71</ele>
        <time>2024-05-29T21:44:30.486Z</time>
      </trkpt>
      <trkpt lat="43.09231" lon="-0.69761">
        <ele>385.17</ele>
        <time>2024-05-29T21:44:32.533Z</time>
      </trkpt>
      <trkpt lat="43.09238" lon="-0.6974">
        <ele>383.59</ele>
        <time>2024-05-29T21:44:34.584Z</time>
      </trkpt>
      <trkpt lat="43.0926" lon="-0.69631">
        <ele>381.6</ele>
        <time>2024-05-29T21:44:36.650Z</time>
      </trkpt>
      <trkpt lat="43.09262" lon="-0.69607">
        <ele>379.88</ele>
        <time>2024-05-29T21:44:38.719Z</time>
      </trkpt>
      <trkpt lat="43.09259" lon="-0.69588">
        <ele>378.24</ele>
        <time>2024-05-29T21:44:40.791Z</time>
      </trkpt>
      <trkpt lat="43.09249" lon="-0.69557">
        <ele>376.72</ele>
        <time>2024-05-29T21:44:42.868Z</time>
      </trkpt>
      <trkpt lat="43.09247" lon="-0.69542">
        <ele>375.09</ele>
        <time>2024-05-29T21:44:44.947Z</time>
      </trkpt>
      <trkpt lat="43.09246" lon="-0.69478">
        <ele>373.04</ele>
        <time>2024-05-29T21:44:47.034Z</time>
      </trkpt>
      <trkpt lat="43.09243" lon="-0.69434">
        <ele>371.41</ele>
        <time>2024-05-29T21:44:49.127Z</time>
      </trkpt>
      <trkpt lat="43.09239" lon="-0.6941">
        <ele>369.88</ele>
        <time>2024-05-29T21:44:51.224Z</time>
      </trkpt>
      <trkpt lat="43.0921" lon="-0.69317">
        <ele>368.56</ele>
        <time>2024-05-29T21:44:53.335Z</time>
      </trkpt>
      <trkpt lat="43.09203" lon="-0.69271">
        <ele>367.1</ele>
        <time>2024-05-29T21:44:55.452Z</time>
      </trkpt>
      <trkpt lat="43.09199" lon="-0.69224">
        <ele>365.5</ele>
        <time>2024-05-29T21:44:57.575Z</time>
      </trkpt>
      <trkpt lat="43.09199" lon="-0.69196">
        <ele>364.06</ele>
        <time>2024-05-29T21:44:59.702Z</time>
      </trkpt>
      <trkpt lat="43.09203" lon="-0.69168">
        <ele>362.63</ele>
        <time>2024-05-29T21:45:01.833Z</time>
      </trkpt>
      <trkpt lat="43.0925" lon="-0.69">
        <ele>361.48</ele>
        <time>2024-05-29T21:45:03.989Z</time>
      </trkpt>
      <trkpt lat="43.0927" lon="-0.68965">
        <ele>360.36</ele>
        <time>2024-05-29T21:45:06.151Z</time>
      </trkpt>
      <trkpt lat="43.09279" lon="-0.68946">
        <ele>359.25</ele>
        <time>2024-05-29T21:45:08.316Z</time>
      </trkpt>
      <trkpt lat="43.09285" lon="-0.68927">
        <ele>358.1</ele>
        <time>2024-05-29T21:45:10.484Z</time>
      </trkpt>
      <trkpt lat="43.0929" lon="-0.68901">
        <ele>356.86</ele>
        <time>2024-05-29T21:45:12.655Z</time>
      </trkpt>
      <trkpt lat="43.09294" lon="-0.68859">
        <ele>355.42</ele>
        <time>2024-05-29T21:45:14.832Z</time>
      </trkpt>
      <trkpt lat="43.09294" lon="-0.68803">
        <ele>354.32</ele>
        <time>2024-05-29T21:45:17.017Z</time>
      </trkpt>
      <trkpt lat="43.09295" lon="-0.68776">
        <ele>353.49</ele>
        <time>2024-05-29T21:45:19.205Z</time>
      </trkpt>
      <trkpt lat="43.09299" lon="-0.68747">
        <ele>352.73</ele>
        <time>2024-05-29T21:45:21.397Z</time>
      </trkpt>
      <trkpt lat="43.09304" lon="-0.68727">
        <ele>352.03</ele>
        <time>2024-05-29T21:45:23.592Z</time>
      </trkpt>
      <trkpt lat="43.09316" lon="-0.68694">
        <ele>351.47</ele>
        <time>2024-05-29T21:45:25.792Z</time>
      </trkpt>
      <trkpt lat="43.09372" lon="-0.68595">
        <ele>350.96</ele>
        <time>2024-05-29T21:45:28.009Z</time>
      </trkpt>
      <trkpt lat="43.09378" lon="-0.68579">
        <ele>350.48</ele>
        <time>2024-05-29T21:45:30.229Z</time>
      </trkpt>
      <trkpt lat="43.0939" lon="-0.68489">
        <ele>349.93</ele>
        <time>2024-05-29T21:45:32.461Z</time>
      </trkpt>
      <trkpt lat="43.09393" lon="-0.68472">
        <ele>349.54</ele>
        <time>2024-05-29T21:45:34.696Z</time>
      </trkpt>
      <trkpt lat="43.09399" lon="-0.68461">
        <ele>349.22</ele>
        <time>2024-05-29T21:45:36.933Z</time>
      </trkpt>
      <trkpt lat="43.09407" lon="-0.68453">
        <ele>348.97</ele>
        <time>2024-05-29T21:45:39.171Z</time>
      </trkpt>
      <trkpt lat="43.09416" lon="-0.68447">
        <ele>348.76</ele>
        <time>2024-05-29T21:45:41.411Z</time>
      </trkpt>
      <trkpt lat="43.09453" lon="-0.68435">
        <ele>348.63</ele>
        <time>2024-05-29T21:45:43.658Z</time>
      </trkpt>
      <trkpt lat="43.09465" lon="-0.68429">
        <ele>348.46</ele>
        <time>2024-05-29T21:45:45.908Z</time>
      </trkpt>
      <trkpt lat="43.09475" lon="-0.6842">
        <ele>348.31</ele>
        <time>2024-05-29T21:45:48.160Z</time>
      </trkpt>
      <trkpt lat="43.09495" lon="-0.6839">
        <ele>348.18</ele>
        <time>2024-05-29T21:45:50.417Z</time>
      </trkpt>
      <trkpt lat="43.09509" lon="-0.68363">
        <ele>348.04</ele>
        <time>2024-05-29T21:45:52.679Z</time>
      </trkpt>
      <trkpt lat="43.09526" lon="-0.68319">
        <ele>348.08</ele>
        <time>2024-05-29T21:45:54.948Z</time>
      </trkpt>
      <trkpt lat="43.09535" lon="-0.68293">
        <ele>348.07</ele>
        <time>2024-05-29T21:45:57.221Z</time>
      </trkpt>
      <trkpt lat="43.09539" lon="-0.68276">
        <ele>347.91</ele>
        <time>2024-05-29T21:45:59.496Z</time>
      </trkpt>
      <trkpt lat="43.0955" lon="-0.68085">
        <ele>347.3</ele>
        <time>2024-05-29T21:46:01.797Z</time>
      </trkpt>
      <trkpt lat="43.09579" lon="-0.67304">
        <ele>346.29</ele>
        <time>2024-05-29T21:46:04.205Z</time>
      </trkpt>
      <trkpt lat="43.09584" lon="-0.67259">
        <ele>345.89</ele>
        <time>2024-05-29T21:46:06.619Z</time>
      </trkpt>
      <trkpt lat="43.09587" lon="-0.67253">
        <ele>345.47</ele>
        <time>2024-05-29T21:46:09.034Z</time>
      </trkpt>
      <trkpt lat="43.09594" lon="-0.67234">
        <ele>345.08</ele>
        <time>2024-05-29T21:46:11.452Z</time>
      </trkpt>
      <trkpt lat="43.09609" lon="-0.67212">
        <ele>344.65</ele>
        <time>2024-05-29T21:46:13.874Z</time>
      </trkpt>
      <trkpt lat="43.09652" lon="-0.67179">
        <ele>344.12</ele>
        <time>2024-05-29T21:46:16.305Z</time>
      </trkpt>
      <trkpt lat="43.09662" lon="-0.67166">
        <ele>343.73</ele>
        <time>2024-05-29T21:46:18.739Z</time>
      </trkpt>
      <trkpt lat="43.09672" lon="-0.67144">
        <ele>343.38</ele>
        <time>2024-05-29T21:46:21.176Z</time>
      </trkpt>
      <trkpt lat="43.09677" lon="-0.67115">
        <ele>343.06</ele>
        <time>2024-05-29T21:46:23.617Z</time>
      </trkpt>
      <trkpt lat="43.09677" lon="-0.67099">
        <ele>342.7</ele>
        <time>2024-05-29T21:46:26.061Z</time>
      </trkpt>
      <trkpt lat="43.0967" lon="-0.6705">
        <ele>342.5</ele>
        <time>2024-05-29T21:46:28.511Z</time>
      </trkpt>
      <trkpt lat="43.0967" lon="-0.67037">
        <ele>342.14</ele>
        <time>2024-05-29T21:46:30.963Z</time>
      </trkpt>
      <trkpt lat="43.09672" lon="-0.67024">
        <ele>341.71</ele>
        <time>2024-05-29T21:46:33.417Z</time>
      </trkpt>
      <trkpt lat="43.09676" lon="-0.67004">
        <ele>341.23</ele>
        <time>2024-05-29T21:46:35.874Z</time>
      </trkpt>
      <trkpt lat="43.09724" lon="-0.66876">
        <ele>340.38</ele>
        <time>2024-05-29T21:46:38.350Z</time>
      </trkpt>
      <trkpt lat="43.09745" lon="-0.66833">
        <ele>339.73</ele>
        <time>2024-05-29T21:46:40.833Z</time>
      </trkpt>
      <trkpt lat="43.09771" lon="-0.66787">
        <ele>338.96</ele>
        <time>2024-05-29T21:46:43.324Z</time>
      </trkpt>
      <trkpt lat="43.09819" lon="-0.6671">
        <ele>338.58</ele>
        <time>2024-05-29T21:46:45.829Z</time>
      </trkpt>
      <trkpt lat="43.09952" lon="-0.66515">
        <ele>337.95</ele>
        <time>2024-05-29T21:46:48.370Z</time>
      </trkpt>
      <trkpt lat="43.09966" lon="-0.66492">
        <ele>337.32</ele>
        <time>2024-05-29T21:46:50.915Z</time>
      </trkpt>
      <trkpt lat="43.10026" lon="-0.6637">
        <ele>336.52</ele>
        <time>2024-05-29T21:46:53.480Z</time>
      </trkpt>
      <trkpt lat="43.10062" lon="-0.66297">
        <ele>335.88</ele>
        <time>2024-05-29T21:46:56.057Z</time>
      </trkpt>
      <trkpt lat="43.10071" lon="-0.66275">
        <ele>335.14</ele>
        <time>2024-05-29T21:46:58.638Z</time>
      </trkpt>
      <trkpt lat="43.10086" lon="-0.66248">
        <ele>334.33</ele>
        <time>2024-05-29T21:47:01.224Z</time>
      </trkpt>
      <trkpt lat="43.10103" lon="-0.66229">
        <ele>333.52</ele>
        <time>2024-05-29T21:47:03.814Z</time>
      </trkpt>
      <trkpt lat="43.10106" lon="-0.66221">
        <ele>332.66</ele>
        <time>2024-05-29T21:47:06.405Z</time>
      </trkpt>
      <trkpt lat="43.1011" lon="-0.66206">
        <ele>331.76</ele>
        <time>2024-05-29T21:47:08.998Z</time>
      </trkpt>
      <trkpt lat="43.10113" lon="-0.66147">
        <ele>330.77</ele>
        <time>2024-05-29T21:47:11.599Z</time>
      </trkpt>
      <trkpt lat="43.10105" lon="-0.66112">
        <ele>329.66</ele>
        <time>2024-05-29T21:47:14.205Z</time>
      </trkpt>
      <trkpt lat="43.10101" lon="-0.66084">
        <ele>328.52</ele>
        <time>2024-05-29T21:47:16.815Z</time>
      </trkpt>
      <trkpt lat="43.10093" lon="-0.66059">
        <ele>327.43</ele>
        <time>2024-05-29T21:47:19.429Z</time>
      </trkpt>
      <trkpt lat="43.10089" lon="-0.66042">
        <ele>326.3</ele>
        <time>2024-05-29T21:47:22.045Z</time>
      </trkpt>
      <trkpt lat="43.10088" lon="-0.66029">
        <ele>325.14</ele>
        <time>2024-05-29T21:47:24.663Z</time>
      </trkpt>
      <trkpt lat="43.10093" lon="-0.66012">
        <ele>323.92</ele>
        <time>2024-05-29T21:47:27.283Z</time>
      </trkpt>
      <trkpt lat="43.10096" lon="-0.66006">
        <ele>322.75</ele>
        <time>2024-05-29T21:47:29.904Z</time>
      </trkpt>
      <trkpt lat="43.10105" lon="-0.65997">
        <ele>321.56</ele>
        <time>2024-05-29T21:47:32.527Z</time>
      </trkpt>
      <trkpt lat="43.10122" lon="-0.65986">
        <ele>320.35</ele>
        <time>2024-05-29T21:47:35.154Z</time>
      </trkpt>
      <trkpt lat="43.10148" lon="-0.65979">
        <ele>319.21</ele>
        <time>2024-05-29T21:47:37.786Z</time>
      </trkpt>
      <trkpt lat="43.10215" lon="-0.6597">
        <ele>318.01</ele>
        <time>2024-05-29T21:47:40.430Z</time>
      </trkpt>
      <trkpt lat="43.10231" lon="-0.6596">
        <ele>316.75</ele>
        <time>2024-05-29T21:47:43.078Z</time>
      </trkpt>
      <trkpt lat="43.10296" lon="-0.65895">
        <ele>315.36</ele>
        <time>2024-05-29T21:47:45.741Z</time>
      </trkpt>
      <trkpt lat="43.10303" lon="-0.6588">
        <ele>314.37</ele>
        <time>2024-05-29T21:47:48.406Z</time>
      </trkpt>
      <trkpt lat="43.10308" lon="-0.65862">
        <ele>313.44</ele>
        <time>2024-05-29T21:47:51.074Z</time>
      </trkpt>
      <trkpt lat="43.10334" lon="-0.65734">
        <ele>312.38</ele>
        <time>2024-05-29T21:47:53.760Z</time>
      </trkpt>
      <trkpt lat="43.10349" lon="-0.65668">
        <ele>311.39</ele>
        <time>2024-05-29T21:47:56.455Z</time>
      </trkpt>
      <trkpt lat="43.10359" lon="-0.65634">
        <ele>310.53</ele>
        <time>2024-05-29T21:47:59.155Z</time>
      </trkpt>
      <trkpt lat="43.10423" lon="-0.65467">
        <ele>309.81</ele>
        <time>2024-05-29T21:48:01.881Z</time>
      </trkpt>
      <trkpt lat="43.10442" lon="-0.65434">
        <ele>309.18</ele>
        <time>2024-05-29T21:48:04.613Z</time>
      </trkpt>
      <trkpt lat="43.10466" lon="-0.65403">
        <ele>308.66</ele>
        <time>2024-05-29T21:48:07.351Z</time>
      </trkpt>
      <trkpt lat="43.1055" lon="-0.6531">
        <ele>308.61</ele>
        <time>2024-05-29T21:48:10.109Z</time>
      </trkpt>
      <trkpt lat="43.1056" lon="-0.65295">
        <ele>308.42</ele>
        <time>2024-05-29T21:48:12.870Z</time>
      </trkpt>
      <trkpt lat="43.10567" lon="-0.65275">
        <ele>308.3</ele>
        <time>2024-05-29T21:48:15.634Z</time>
      </trkpt>
      <trkpt lat="43.10568" lon="-0.65262">
        <ele>308.16</ele>
        <time>2024-05-29T21:48:18.399Z</time>
      </trkpt>
      <trkpt lat="43.10562" lon="-0.65198">
        <ele>308.11</ele>
        <time>2024-05-29T21:48:21.173Z</time>
      </trkpt>
      <trkpt lat="43.10562" lon="-0.65176">
        <ele>307.98</ele>
        <time>2024-05-29T21:48:23.950Z</time>
      </trkpt>
      <trkpt lat="43.10571" lon="-0.65062">
        <ele>307.69</ele>
        <time>2024-05-29T21:48:26.743Z</time>
      </trkpt>
      <trkpt lat="43.10579" lon="-0.64997">
        <ele>307.25</ele>
        <time>2024-05-29T21:48:29.545Z</time>
      </trkpt>
      <trkpt lat="43.10581" lon="-0.64913">
        <ele>307.03</ele>
        <time>2024-05-29T21:48:32.358Z</time>
      </trkpt>
      <trkpt lat="43.10594" lon="-0.64823">
        <ele>307.09</ele>
        <time>2024-05-29T21:48:35.184Z</time>
      </trkpt>
      <trkpt lat="43.10596" lon="-0.64764">
        <ele>307.08</ele>
        <time>2024-05-29T21:48:38.018Z</time>
      </trkpt>
      <trkpt lat="43.10601" lon="-0.64736">
        <ele>307.01</ele>
        <time>2024-05-29T21:48:40.856Z</time>
      </trkpt>
      <trkpt lat="43.10626" lon="-0.6465">
        <ele>307.1</ele>
        <time>2024-05-29T21:48:43.706Z</time>
      </trkpt>
      <trkpt lat="43.10635" lon="-0.64609">
        <ele>307.15</ele>
        <time>2024-05-29T21:48:46.562Z</time>
      </trkpt>
      <trkpt lat="43.10637" lon="-0.64578">
        <ele>307.01</ele>
        <time>2024-05-29T21:48:49.423Z</time>
      </trkpt>
      <trkpt lat="43.10637" lon="-0.64534">
        <ele>306.49</ele>
        <time>2024-05-29T21:48:52.290Z</time>
      </trkpt>
      <trkpt lat="43.10628" lon="-0.64457">
        <ele>305.8</ele>
        <time>2024-05-29T21:48:55.167Z</time>
      </trkpt>
      <trkpt lat="43.10632" lon="-0.64428">
        <ele>305.6</ele>
        <time>2024-05-29T21:48:58.048Z</time>
      </trkpt>
      <trkpt lat="43.1067" lon="-0.64276">
        <ele>305.88</ele>
        <time>2024-05-29T21:49:00.951Z</time>
      </trkpt>
      <trkpt lat="43.10682" lon="-0.64241">
        <ele>305.57</ele>
        <time>2024-05-29T21:49:03.859Z</time>
      </trkpt>
      <trkpt lat="43.10717" lon="-0.6417">
        <ele>305.38</ele>
        <time>2024-05-29T21:49:06.779Z</time>
      </trkpt>
      <trkpt lat="43.10751" lon="-0.64051">
        <ele>304.79</ele>
        <time>2024-05-29T21:49:09.716Z</time>
      </trkpt>
      <trkpt lat="43.10758" lon="-0.63997">
        <ele>304.08</ele>
        <time>2024-05-29T21:49:12.661Z</time>
      </trkpt>
      <trkpt lat="43.10761" lon="-0.63962">
        <ele>303.4</ele>
        <time>2024-05-29T21:49:15.611Z</time>
      </trkpt>
      <trkpt lat="43.10766" lon="-0.63936">
        <ele>302.89</ele>
        <time>2024-05-29T21:49:18.564Z</time>
      </trkpt>
      <trkpt lat="43.10805" lon="-0.63817">
        <ele>302.63</ele>
        <time>2024-05-29T21:49:21.535Z</time>
      </trkpt>
      <trkpt lat="43.10822" lon="-0.63772">
        <ele>302.28</ele>
        <time>2024-05-29T21:49:24.513Z</time>
      </trkpt>
      <trkpt lat="43.10864" lon="-0.63695">
        <ele>302.06</ele>
        <time>2024-05-29T21:49:27.504Z</time>
      </trkpt>
      <trkpt lat="43.1093" lon="-0.63608">
        <ele>302.12</ele>
        <time>2024-05-29T21:49:30.512Z</time>
      </trkpt>
      <trkpt lat="43.1095" lon="-0.63564">
        <ele>301.79</ele>
        <time>2024-05-29T21:49:33.527Z</time>
      </trkpt>
      <trkpt lat="43.10963" lon="-0.6351">
        <ele>301.34</ele>
        <time>2024-05-29T21:49:36.550Z</time>
      </trkpt>
      <trkpt lat="43.10971" lon="-0.63429">
        <ele>300.8</ele>
        <time>2024-05-29T21:49:39.584Z</time>
      </trkpt>
      <trkpt lat="43.10975" lon="-0.63375">
        <ele>300.41</ele>
        <time>2024-05-29T21:49:42.626Z</time>
      </trkpt>
      <trkpt lat="43.10967" lon="-0.63307">
        <ele>299.78</ele>
        <time>2024-05-29T21:49:45.677Z</time>
      </trkpt>
      <trkpt lat="43.10969" lon="-0.63282">
        <ele>299.4</ele>
        <time>2024-05-29T21:49:48.731Z</time>
      </trkpt>
      <trkpt lat="43.10974" lon="-0.63262">
        <ele>299.12</ele>
        <time>2024-05-29T21:49:51.788Z</time>
      </trkpt>
      <trkpt lat="43.10983" lon="-0.63244">
        <ele>298.87</ele>
        <time>2024-05-29T21:49:54.848Z</time>
      </trkpt>
      <trkpt lat="43.11008" lon="-0.63218">
        <ele>298.61</ele>
        <time>2024-05-29T21:49:57.914Z</time>
      </trkpt>
      <trkpt lat="43.11093" lon="-0.63173">
        <ele>298.84</ele>
        <time>2024-05-29T21:50:00.997Z</time>
      </trkpt>
      <trkpt lat="43.11109" lon="-0.63161">
        <ele>298.63</ele>
        <time>2024-05-29T21:50:04.083Z</time>
      </trkpt>
      <trkpt lat="43.1112" lon="-0.63147">
        <ele>298.29</ele>
        <time>2024-05-29T21:50:07.172Z</time>
      </trkpt>
      <trkpt lat="43.11133" lon="-0.63117">
        <ele>298.13</ele>
        <time>2024-05-29T21:50:10.266Z</time>
      </trkpt>
      <trkpt lat="43.11137" lon="-0.63096">
        <ele>297.7</ele>
        <time>2024-05-29T21:50:13.363Z</time>
      </trkpt>
      <trkpt lat="43.11139" lon="-0.63077">
        <ele>297.06</ele>
        <time>2024-05-29T21:50:16.463Z</time>
      </trkpt>
      <trkpt lat="43.11138" lon="-0.63028">
        <ele>296.22</ele>
        <time>2024-05-29T21:50:19.569Z</time>
      </trkpt>
      <trkpt lat="43.11132" lon="-0.62988">
        <ele>295.43</ele>
        <time>2024-05-29T21:50:22.681Z</time>
      </trkpt>
      <trkpt lat="43.11119" lon="-0.62946">
        <ele>294.35</ele>
        <time>2024-05-29T21:50:25.799Z</time>
      </trkpt>
      <trkpt lat="43.11097" lon="-0.62892">
        <ele>293.21</ele>
        <time>2024-05-29T21:50:28.925Z</time>
      </trkpt>
      <trkpt lat="43.1103" lon="-0.62795">
        <ele>291.6</ele>
        <time>2024-05-29T21:50:32.070Z</time>
      </trkpt>
      <trkpt lat="43.10995" lon="-0.6275">
        <ele>290.61</ele>
        <time>2024-05-29T21:50:35.223Z</time>
      </trkpt>
      <trkpt lat="43.1099" lon="-0.62732">
        <ele>289.54</ele>
        <time>2024-05-29T21:50:38.379Z</time>
      </trkpt>
      <trkpt lat="43.10985" lon="-0.62712">
        <ele>288.52</ele>
        <time>2024-05-29T21:50:41.538Z</time>
      </trkpt>
      <trkpt lat="43.10983" lon="-0.62667">
        <ele>287.35</ele>
        <time>2024-05-29T21:50:44.703Z</time>
      </trkpt>
      <trkpt lat="43.10986" lon="-0.62571">
        <ele>286.01</ele>
        <time>2024-05-29T21:50:47.881Z</time>
      </trkpt>
      <trkpt lat="43.10989" lon="-0.62545">
        <ele>284.91</ele>
        <time>2024-05-29T21:50:51.063Z</time>
      </trkpt>
      <trkpt lat="43.10995" lon="-0.62528">
        <ele>283.89</ele>
        <time>2024-05-29T21:50:54.247Z</time>
      </trkpt>
      <trkpt lat="43.10994" lon="-0.62513">
        <ele>282.87</ele>
        <time>2024-05-29T21:50:57.433Z</time>
      </trkpt>
      <trkpt lat="43.10995" lon="-0.62491">
        <ele>281.92</ele>
        <time>2024-05-29T21:51:00.622Z</time>
      </trkpt>
      <trkpt lat="43.11001" lon="-0.62491">
        <ele>281.09</ele>
        <time>2024-05-29T21:51:03.813Z</time>
      </trkpt>
      <trkpt lat="43.11016" lon="-0.62485">
        <ele>280.33</ele>
        <time>2024-05-29T21:51:07.006Z</time>
      </trkpt>
      <trkpt lat="43.11067" lon="-0.62455">
        <ele>279.7</ele>
        <time>2024-05-29T21:51:10.210Z</time>
      </trkpt>
      <trkpt lat="43.1121" lon="-0.62359">
        <ele>278.99</ele>
        <time>2024-05-29T21:51:13.443Z</time>
      </trkpt>
      <trkpt lat="43.11226" lon="-0.62345">
        <ele>278.35</ele>
        <time>2024-05-29T21:51:16.680Z</time>
      </trkpt>
      <trkpt lat="43.11244" lon="-0.62316">
        <ele>277.74</ele>
        <time>2024-05-29T21:51:19.922Z</time>
      </trkpt>
      <trkpt lat="43.115" lon="-0.61712">
        <ele>277.08</ele>
        <time>2024-05-29T21:51:23.259Z</time>
      </trkpt>
      <trkpt lat="43.11517" lon="-0.61683">
        <ele>276.49</ele>
        <time>2024-05-29T21:51:26.601Z</time>
      </trkpt>
      <trkpt lat="43.11529" lon="-0.61669">
        <ele>275.94</ele>
        <time>2024-05-29T21:51:29.946Z</time>
      </trkpt>
      <trkpt lat="43.11547" lon="-0.61651">
        <ele>275.43</ele>
        <time>2024-05-29T21:51:33.295Z</time>
      </trkpt>
      <trkpt lat="43.11753" lon="-0.61452">
        <ele>275.13</ele>
        <time>2024-05-29T21:51:36.691Z</time>
      </trkpt>
      <trkpt lat="43.11807" lon="-0.61402">
        <ele>274.61</ele>
        <time>2024-05-29T21:51:40.100Z</time>
      </trkpt>
      <trkpt lat="43.11818" lon="-0.61394">
        <ele>274.13</ele>
        <time>2024-05-29T21:51:43.511Z</time>
      </trkpt>
      <trkpt lat="43.11832" lon="-0.61389">
        <ele>273.74</ele>
        <time>2024-05-29T21:51:46.925Z</time>
      </trkpt>
      <trkpt lat="43.11865" lon="-0.61384">
        <ele>273.4</ele>
        <time>2024-05-29T21:51:50.345Z</time>
      </trkpt>
      <trkpt lat="43.11891" lon="-0.61383">
        <ele>273.11</ele>
        <time>2024-05-29T21:51:53.770Z</time>
      </trkpt>
      <trkpt lat="43.1209" lon="-0.61389">
        <ele>272.8</ele>
        <time>2024-05-29T21:51:57.232Z</time>
      </trkpt>
      <trkpt lat="43.12192" lon="-0.61362">
        <ele>272.71</ele>
        <time>2024-05-29T21:52:00.713Z</time>
      </trkpt>
      <trkpt lat="43.12191" lon="-0.61358">
        <ele>272.45</ele>
        <time>2024-05-29T21:52:04.194Z</time>
      </trkpt>
      <trkpt lat="43.12201" lon="-0.61356">
        <ele>272.24</ele>
        <time>2024-05-29T21:52:07.677Z</time>
      </trkpt>
      <trkpt lat="43.12205" lon="-0.61352">
        <ele>272.05</ele>
        <time>2024-05-29T21:52:11.161Z</time>
      </trkpt>
      <trkpt lat="43.12208" lon="-0.61342">
        <ele>271.87</ele>
        <time>2024-05-29T21:52:14.647Z</time>
      </trkpt>
      <trkpt lat="43.12208" lon="-0.61332">
        <ele>271.74</ele>
        <time>2024-05-29T21:52:18.134Z</time>
      </trkpt>
      <trkpt lat="43.12185" lon="-0.61294">
        <ele>271.58</ele>
        <time>2024-05-29T21:52:21.628Z</time>
      </trkpt>
      <trkpt lat="43.12188" lon="-0.61291">
        <ele>271.56</ele>
        <time>2024-05-29T21:52:25.123Z</time>
      </trkpt>
      <trkpt lat="43.12158" lon="-0.61244">
        <ele>271.51</ele>
        <time>2024-05-29T21:52:28.626Z</time>
      </trkpt>
      <trkpt lat="43.1212" lon="-0.612">
        <ele>271.54</ele>
        <time>2024-05-29T21:52:32.138Z</time>
      </trkpt>
      <trkpt lat="43.12029" lon="-0.61076">
        <ele>271.58</ele>
        <time>2024-05-29T21:52:35.674Z</time>
      </trkpt>
      <trkpt lat="43.11989" lon="-0.61024">
        <ele>271.84</ele>
        <time>2024-05-29T21:52:39.220Z</time>
      </trkpt>
      <trkpt lat="43.11942" lon="-0.61001">
        <ele>272.12</ele>
        <time>2024-05-29T21:52:42.776Z</time>
      </trkpt>
      <trkpt lat="43.11926" lon="-0.6099">
        <ele>272.66</ele>
        <time>2024-05-29T21:52:46.335Z</time>
      </trkpt>
      <trkpt lat="43.11915" lon="-0.60978">
        <ele>273.33</ele>
        <time>2024-05-29T21:52:49.897Z</time>
      </trkpt>
      <trkpt lat="43.11837" lon="-0.60826">
        <ele>274.33</ele>
        <time>2024-05-29T21:52:53.484Z</time>
      </trkpt>
      <trkpt lat="43.11829" lon="-0.60814">
        <ele>275.27</ele>
        <time>2024-05-29T21:52:57.073Z</time>
      </trkpt>
      <trkpt lat="43.11824" lon="-0.6081">
        <ele>276.31</ele>
        <time>2024-05-29T21:53:00.663Z</time>
      </trkpt>
      <trkpt lat="43.1182" lon="-0.60806">
        <ele>277.47</ele>
        <time>2024-05-29T21:53:04.254Z</time>
      </trkpt>
      <trkpt lat="43.11807" lon="-0.60802">
        <ele>278.77</ele>
        <time>2024-05-29T21:53:07.848Z</time>
      </trkpt>
      <trkpt lat="43.11794" lon="-0.60804">
        <ele>280.12</ele>
        <time>2024-05-29T21:53:11.444Z</time>
      </trkpt>
      <trkpt lat="43.11685" lon="-0.60841">
        <ele>281.65</ele>
        <time>2024-05-29T21:53:15.061Z</time>
      </trkpt>
      <trkpt lat="43.11621" lon="-0.60839">
        <ele>283.47</ele>
        <time>2024-05-29T21:53:18.690Z</time>
      </trkpt>
      <trkpt lat="43.11605" lon="-0.60835">
        <ele>285.05</ele>
        <time>2024-05-29T21:53:22.322Z</time>
      </trkpt>
      <trkpt lat="43.11597" lon="-0.60832">
        <ele>286.53</ele>
        <time>2024-05-29T21:53:25.955Z</time>
      </trkpt>
      <trkpt lat="43.11589" lon="-0.60823">
        <ele>287.98</ele>
        <time>2024-05-29T21:53:29.590Z</time>
      </trkpt>
      <trkpt lat="43.11558" lon="-0.60771">
        <ele>289.71</ele>
        <time>2024-05-29T21:53:33.235Z</time>
      </trkpt>
      <trkpt lat="43.11552" lon="-0.60748">
        <ele>291.08</ele>
        <time>2024-05-29T21:53:36.883Z</time>
      </trkpt>
      <trkpt lat="43.11549" lon="-0.60707">
        <ele>292.3</ele>
        <time>2024-05-29T21:53:40.537Z</time>
      </trkpt>
      <trkpt lat="43.11547" lon="-0.60696">
        <ele>293.36</ele>
        <time>2024-05-29T21:53:44.192Z</time>
      </trkpt>
      <trkpt lat="43.11542" lon="-0.60686">
        <ele>294.3</ele>
        <time>2024-05-29T21:53:47.849Z</time>
      </trkpt>
      <trkpt lat="43.11494" lon="-0.60646">
        <ele>295.09</ele>
        <time>2024-05-29T21:53:51.516Z</time>
      </trkpt>
      <trkpt lat="43.11513" lon="-0.60622">
        <ele>295.74</ele>
        <time>2024-05-29T21:53:55.188Z</time>
      </trkpt>
      <trkpt lat="43.1155" lon="-0.60559">
        <ele>296.24</ele>
        <time>2024-05-29T21:53:58.871Z</time>
      </trkpt>
      <trkpt lat="43.11562" lon="-0.60544">
        <ele>296.59</ele>
        <time>2024-05-29T21:54:02.557Z</time>
      </trkpt>
      <trkpt lat="43.11595" lon="-0.60525">
        <ele>296.77</ele>
        <time>2024-05-29T21:54:06.250Z</time>
      </trkpt>
      <trkpt lat="43.11608" lon="-0.60523">
        <ele>296.79</ele>
        <time>2024-05-29T21:54:09.945Z</time>
      </trkpt>
      <trkpt lat="43.11626" lon="-0.60526">
        <ele>296.65</ele>
        <time>2024-05-29T21:54:13.643Z</time>
      </trkpt>
      <trkpt lat="43.11647" lon="-0.60524">
        <ele>296.3</ele>
        <time>2024-05-29T21:54:17.345Z</time>
      </trkpt>
      <trkpt lat="43.1166" lon="-0.60519">
        <ele>295.86</ele>
        <time>2024-05-29T21:54:21.050Z</time>
      </trkpt>
      <trkpt lat="43.11734" lon="-0.60466">
        <ele>295.34</ele>
        <time>2024-05-29T21:54:24.770Z</time>
      </trkpt>
      <trkpt lat="43.11794" lon="-0.60421">
        <ele>294.52</ele>
        <time>2024-05-29T21:54:28.503Z</time>
      </trkpt>
      <trkpt lat="43.11937" lon="-0.60287">
        <ele>293.61</ele>
        <time>2024-05-29T21:54:32.268Z</time>
      </trkpt>
      <trkpt lat="43.11992" lon="-0.60245">
        <ele>292.9</ele>
        <time>2024-05-29T21:54:36.045Z</time>
      </trkpt>
      <trkpt lat="43.12028" lon="-0.60222">
        <ele>291.91</ele>
        <time>2024-05-29T21:54:39.830Z</time>
      </trkpt>
      <trkpt lat="43.12053" lon="-0.60209">
        <ele>290.88</ele>
        <time>2024-05-29T21:54:43.620Z</time>
      </trkpt>
      <trkpt lat="43.12186" lon="-0.60162">
        <ele>289.53</ele>
        <time>2024-05-29T21:54:47.435Z</time>
      </trkpt>
      <trkpt lat="43.12208" lon="-0.60152">
        <ele>288.44</ele>
        <time>2024-05-29T21:54:51.254Z</time>
      </trkpt>
      <trkpt lat="43.12306" lon="-0.60055">
        <ele>287.26</ele>
        <time>2024-05-29T21:54:55.096Z</time>
      </trkpt>
      <trkpt lat="43.12335" lon="-0.6003">
        <ele>286.2</ele>
        <time>2024-05-29T21:54:58.944Z</time>
      </trkpt>
      <trkpt lat="43.12478" lon="-0.59962">
        <ele>285.17</ele>
        <time>2024-05-29T21:55:02.820Z</time>
      </trkpt>
      <trkpt lat="43.12502" lon="-0.59957">
        <ele>283.71</ele>
        <time>2024-05-29T21:55:06.701Z</time>
      </trkpt>
      <trkpt lat="43.12589" lon="-0.59958">
        <ele>282.02</ele>
        <time>2024-05-29T21:55:10.598Z</time>
      </trkpt>
      <trkpt lat="43.1262" lon="-0.59954">
        <ele>280.69</ele>
        <time>2024-05-29T21:55:14.501Z</time>
      </trkpt>
      <trkpt lat="43.12649" lon="-0.59939">
        <ele>279.7</ele>
        <time>2024-05-29T21:55:18.410Z</time>
      </trkpt>
      <trkpt lat="43.1269" lon="-0.59925">
        <ele>278.3</ele>
        <time>2024-05-29T21:55:22.327Z</time>
      </trkpt>
      <trkpt lat="43.12745" lon="-0.59894">
        <ele>276.6</ele>
        <time>2024-05-29T21:55:26.255Z</time>
      </trkpt>
      <trkpt lat="43.12758" lon="-0.5988">
        <ele>275.59</ele>
        <time>2024-05-29T21:55:30.186Z</time>
      </trkpt>
      <trkpt lat="43.1279" lon="-0.59825">
        <ele>274.85</ele>
        <time>2024-05-29T21:55:34.126Z</time>
      </trkpt>
      <trkpt lat="43.12807" lon="-0.59805">
        <ele>273.62</ele>
        <time>2024-05-29T21:55:38.071Z</time>
      </trkpt>
      <trkpt lat="43.12822" lon="-0.59793">
        <ele>272.42</ele>
        <time>2024-05-29T21:55:42.019Z</time>
      </trkpt>
      <trkpt lat="43.13189" lon="-0.59626">
        <ele>270.63</ele>
        <time>2024-05-29T21:55:46.039Z</time>
      </trkpt>
      <trkpt lat="43.13226" lon="-0.59613">
        <ele>269.48</ele>
        <time>2024-05-29T21:55:50.066Z</time>
      </trkpt>
      <trkpt lat="43.13343" lon="-0.59581">
        <ele>268.41</ele>
        <time>2024-05-29T21:55:54.115Z</time>
      </trkpt>
      <trkpt lat="43.13476" lon="-0.5955">
        <ele>267.3</ele>
        <time>2024-05-29T21:55:58.189Z</time>
      </trkpt>
      <trkpt lat="43.13503" lon="-0.59537">
        <ele>266.45</ele>
        <time>2024-05-29T21:56:02.268Z</time>
      </trkpt>
      <trkpt lat="43.13523" lon="-0.59519">
        <ele>265.68</ele>
        <time>2024-05-29T21:56:06.352Z</time>
      </trkpt>
      <trkpt lat="43.13527" lon="-0.59501">
        <ele>264.93</ele>
        <time>2024-05-29T21:56:10.438Z</time>
      </trkpt>
      <trkpt lat="43.13527" lon="-0.59497">
        <ele>264.19</ele>
        <time>2024-05-29T21:56:14.525Z</time>
      </trkpt>
      <trkpt lat="43.13545" lon="-0.59498">
        <ele>263.54</ele>
        <time>2024-05-29T21:56:18.615Z</time>
      </trkpt>
      <trkpt lat="43.13563" lon="-0.59494">
        <ele>262.89</ele>
        <time>2024-05-29T21:56:22.709Z</time>
      </trkpt>
      <trkpt lat="43.13656" lon="-0.59457">
        <ele>262.22</ele>
        <time>2024-05-29T21:56:26.821Z</time>
      </trkpt>
      <trkpt lat="43.13706" lon="-0.59431">
        <ele>261.53</ele>
        <time>2024-05-29T21:56:30.943Z</time>
      </trkpt>
      <trkpt lat="43.13755" lon="-0.59405">
        <ele>261.04</ele>
        <time>2024-05-29T21:56:35.074Z</time>
      </trkpt>
      <trkpt lat="43.13836" lon="-0.59353">
        <ele>260.54</ele>
        <time>2024-05-29T21:56:39.222Z</time>
      </trkpt>
      <trkpt lat="43.13923" lon="-0.59294">
        <ele>260.07</ele>
        <time>2024-05-29T21:56:43.388Z</time>
      </trkpt>
      <trkpt lat="43.13963" lon="-0.59263">
        <ele>259.74</ele>
        <time>2024-05-29T21:56:47.563Z</time>
      </trkpt>
      <trkpt lat="43.14025" lon="-0.59222">
        <ele>259.53</ele>
        <time>2024-05-29T21:56:51.751Z</time>
      </trkpt>
      <trkpt lat="43.14037" lon="-0.59219">
        <ele>259.19</ele>
        <time>2024-05-29T21:56:55.941Z</time>
      </trkpt>
      <trkpt lat="43.14074" lon="-0.59218">
        <ele>258.79</ele>
        <time>2024-05-29T21:57:00.138Z</time>
      </trkpt>
      <trkpt lat="43.14123" lon="-0.59199">
        <ele>258.55</ele>
        <time>2024-05-29T21:57:04.344Z</time>
      </trkpt>
      <trkpt lat="43.14228" lon="-0.59177">
        <ele>258.28</ele>
        <time>2024-05-29T21:57:08.570Z</time>
      </trkpt>
      <trkpt lat="43.14251" lon="-0.59165">
        <ele>258.15</ele>
        <time>2024-05-29T21:57:12.801Z</time>
      </trkpt>
      <trkpt lat="43.14295" lon="-0.59122">
        <ele>257.93</ele>
        <time>2024-05-29T21:57:17.042Z</time>
      </trkpt>
      <trkpt lat="43.14303" lon="-0.59116">
        <ele>257.81</ele>
        <time>2024-05-29T21:57:21.284Z</time>
      </trkpt>
      <trkpt lat="43.14338" lon="-0.59102">
        <ele>257.66</ele>
        <time>2024-05-29T21:57:25.533Z</time>
      </trkpt>
      <trkpt lat="43.14392" lon="-0.59086">
        <ele>257.51</ele>
        <time>2024-05-29T21:57:29.792Z</time>
      </trkpt>
      <trkpt lat="43.14441" lon="-0.59067">
        <ele>257.56</ele>
        <time>2024-05-29T21:57:34.061Z</time>
      </trkpt>
      <trkpt lat="43.14489" lon="-0.59043">
        <ele>257.53</ele>
        <time>2024-05-29T21:57:38.339Z</time>
      </trkpt>
      <trkpt lat="43.14576" lon="-0.58988">
        <ele>257.45</ele>
        <time>2024-05-29T21:57:42.635Z</time>
      </trkpt>
      <trkpt lat="43.14667" lon="-0.58914">
        <ele>257.23</ele>
        <time>2024-05-29T21:57:46.951Z</time>
      </trkpt>
      <trkpt lat="43.14757" lon="-0.58827">
        <ele>257.33</ele>
        <time>2024-05-29T21:57:51.287Z</time>
      </trkpt>
      <trkpt lat="43.14771" lon="-0.58816">
        <ele>257.4</ele>
        <time>2024-05-29T21:57:55.626Z</time>
      </trkpt>
      <trkpt lat="43.14784" lon="-0.58809">
        <ele>257.39</ele>
        <time>2024-05-29T21:57:59.968Z</time>
      </trkpt>
      <trkpt lat="43.14881" lon="-0.58774">
        <ele>257.47</ele>
        <time>2024-05-29T21:58:04.329Z</time>
      </trkpt>
      <trkpt lat="43.1491" lon="-0.5876">
        <ele>257.35</ele>
        <time>2024-05-29T21:58:08.695Z</time>
      </trkpt>
      <trkpt lat="43.15055" lon="-0.58668">
        <ele>257.81</ele>
        <time>2024-05-29T21:58:13.091Z</time>
      </trkpt>
      <trkpt lat="43.15071" lon="-0.58661">
        <ele>257.52</ele>
        <time>2024-05-29T21:58:17.490Z</time>
      </trkpt>
      <trkpt lat="43.15114" lon="-0.5865">
        <ele>257.37</ele>
        <time>2024-05-29T21:58:21.897Z</time>
      </trkpt>
      <trkpt lat="43.15432" lon="-0.58683">
        <ele>256.68</ele>
        <time>2024-05-29T21:58:26.364Z</time>
      </trkpt>
      <trkpt lat="43.15572" lon="-0.58713">
        <ele>256.25</ele>
        <time>2024-05-29T21:58:30.857Z</time>
      </trkpt>
      <trkpt lat="43.15627" lon="-0.5873">
        <ele>255.18</ele>
        <time>2024-05-29T21:58:35.361Z</time>
      </trkpt>
      <trkpt lat="43.15658" lon="-0.58745">
        <ele>253.85</ele>
        <time>2024-05-29T21:58:39.871Z</time>
      </trkpt>
      <trkpt lat="43.1568" lon="-0.5875">
        <ele>252.68</ele>
        <time>2024-05-29T21:58:44.385Z</time>
      </trkpt>
      <trkpt lat="43.15768" lon="-0.58756">
        <ele>251.82</ele>
        <time>2024-05-29T21:58:48.915Z</time>
      </trkpt>
      <trkpt lat="43.15845" lon="-0.58781">
        <ele>250.23</ele>
        <time>2024-05-29T21:58:53.460Z</time>
      </trkpt>
      <trkpt lat="43.15887" lon="-0.588">
        <ele>249.09</ele>
        <time>2024-05-29T21:58:58.013Z</time>
      </trkpt>
      <trkpt lat="43.16125" lon="-0.59015">
        <ele>247.43</ele>
        <time>2024-05-29T21:59:02.619Z</time>
      </trkpt>
      <trkpt lat="43.16195" lon="-0.59061">
        <ele>245.78</ele>
        <time>2024-05-29T21:59:07.240Z</time>
      </trkpt>
      <trkpt lat="43.16201" lon="-0.59063">
        <ele>244.54</ele>
        <time>2024-05-29T21:59:11.862Z</time>
      </trkpt>
      <trkpt lat="43.16251" lon="-0.59075">
        <ele>243.28</ele>
        <time>2024-05-29T21:59:16.493Z</time>
      </trkpt>
      <trkpt lat="43.16326" lon="-0.59081">
        <ele>242.16</ele>
        <time>2024-05-29T21:59:21.138Z</time>
      </trkpt>
      <trkpt lat="43.16373" lon="-0.5907">
        <ele>241.17</ele>
        <time>2024-05-29T21:59:25.792Z</time>
      </trkpt>
      <trkpt lat="43.16402" lon="-0.59072">
        <ele>240.12</ele>
        <time>2024-05-29T21:59:30.452Z</time>
      </trkpt>
      <trkpt lat="43.16512" lon="-0.59122">
        <ele>239.13</ele>
        <time>2024-05-29T21:59:35.133Z</time>
      </trkpt>
      <trkpt lat="43.16543" lon="-0.5913">
        <ele>238.34</ele>
        <time>2024-05-29T21:59:39.820Z</time>
      </trkpt>
      <trkpt lat="43.1658" lon="-0.59133">
        <ele>237.7</ele>
        <time>2024-05-29T21:59:44.514Z</time>
      </trkpt>
      <trkpt lat="43.16642" lon="-0.59148">
        <ele>237.16</ele>
        <time>2024-05-29T21:59:49.220Z</time>
      </trkpt>
      <trkpt lat="43.16675" lon="-0.59156">
        <ele>236.71</ele>
        <time>2024-05-29T21:59:53.932Z</time>
      </trkpt>
      <trkpt lat="43.16692" lon="-0.59165">
        <ele>236.43</ele>
        <time>2024-05-29T21:59:58.647Z</time>
      </trkpt>
      <trkpt lat="43.16715" lon="-0.59184">
        <ele>236.29</ele>
        <time>2024-05-29T22:00:03.367Z</time>
      </trkpt>
      <trkpt lat="43.1674" lon="-0.59213">
        <ele>236.23</ele>
        <time>2024-05-29T22:00:08.093Z</time>
      </trkpt>
      <trkpt lat="43.1679" lon="-0.59277">
        <ele>236.05</ele>
        <time>2024-05-29T22:00:12.832Z</time>
      </trkpt>
      <trkpt lat="43.16819" lon="-0.59317">
        <ele>236.13</ele>
        <time>2024-05-29T22:00:17.579Z</time>
      </trkpt>
      <trkpt lat="43.16965" lon="-0.59478">
        <ele>236.17</ele>
        <time>2024-05-29T22:00:22.361Z</time>
      </trkpt>
      <trkpt lat="43.16991" lon="-0.59499">
        <ele>236.41</ele>
        <time>2024-05-29T22:00:27.148Z</time>
      </trkpt>
      <trkpt lat="43.17026" lon="-0.59515">
        <ele>236.87</ele>
        <time>2024-05-29T22:00:31.942Z</time>
      </trkpt>
      <trkpt lat="43.17067" lon="-0.59529">
        <ele>237.45</ele>
        <time>2024-05-29T22:00:36.744Z</time>
      </trkpt>
      <trkpt lat="43.17114" lon="-0.5955">
        <ele>238.11</ele>
        <time>2024-05-29T22:00:41.555Z</time>
      </trkpt>
      <trkpt lat="43.17186" lon="-0.59622">
        <ele>238.29</ele>
        <time>2024-05-29T22:00:46.383Z</time>
      </trkpt>
      <trkpt lat="43.17285" lon="-0.59686">
        <ele>239.22</ele>
        <time>2024-05-29T22:00:51.231Z</time>
      </trkpt>
      <trkpt lat="43.17305" lon="-0.59696">
        <ele>239.42</ele>
        <time>2024-05-29T22:00:56.083Z</time>
      </trkpt>
      <trkpt lat="43.17355" lon="-0.597">
        <ele>239.48</ele>
        <time>2024-05-29T22:01:00.944Z</time>
      </trkpt>
      <trkpt lat="43.17378" lon="-0.59707">
        <ele>239.26</ele>
        <time>2024-05-29T22:01:05.810Z</time>
      </trkpt>
      <trkpt lat="43.17404" lon="-0.59722">
        <ele>239.29</ele>
        <time>2024-05-29T22:01:10.681Z</time>
      </trkpt>
      <trkpt lat="43.17444" lon="-0.5975">
        <ele>239.28</ele>
        <time>2024-05-29T22:01:15.560Z</time>
      </trkpt>
      <trkpt lat="43.17731" lon="-0.60002">
        <ele>237.95</ele>
        <time>2024-05-29T22:01:20.503Z</time>
      </trkpt>
      <trkpt lat="43.17742" lon="-0.60015">
        <ele>237.39</ele>
        <time>2024-05-29T22:01:25.449Z</time>
      </trkpt>
      <trkpt lat="43.17749" lon="-0.60026">
        <ele>236.76</ele>
        <time>2024-05-29T22:01:30.397Z</time>
      </trkpt>
      <trkpt lat="43.17763" lon="-0.60057">
        <ele>235.97</ele>
        <time>2024-05-29T22:01:35.350Z</time>
      </trkpt>
      <trkpt lat="43.17791" lon="-0.60125">
        <ele>235.11</ele>
        <time>2024-05-29T22:01:40.313Z</time>
      </trkpt>
      <trkpt lat="43.17799" lon="-0.60148">
        <ele>234.43</ele>
        <time>2024-05-29T22:01:45.280Z</time>
      </trkpt>
      <trkpt lat="43.1781" lon="-0.60171">
        <ele>233.76</ele>
        <time>2024-05-29T22:01:50.250Z</time>
      </trkpt>
      <trkpt lat="43.17843" lon="-0.60229">
        <ele>232.98</ele>
        <time>2024-05-29T22:01:55.230Z</time>
      </trkpt>
      <trkpt lat="43.17845" lon="-0.60237">
        <ele>232.41</ele>
        <time>2024-05-29T22:02:00.212Z</time>
      </trkpt>
      <trkpt lat="43.17856" lon="-0.60297">
        <ele>231.81</ele>
        <time>2024-05-29T22:02:05.202Z</time>
      </trkpt>
      <trkpt lat="43.17858" lon="-0.60325">
        <ele>231.37</ele>
        <time>2024-05-29T22:02:10.196Z</time>
      </trkpt>
      <trkpt lat="43.17854" lon="-0.60356">
        <ele>231.05</ele>
        <time>2024-05-29T22:02:15.194Z</time>
      </trkpt>
      <trkpt lat="43.17814" lon="-0.60472">
        <ele>230.66</ele>
        <time>2024-05-29T22:02:20.210Z</time>
      </trkpt>
      <trkpt lat="43.17796" lon="-0.60454">
        <ele>230.67</ele>
        <time>2024-05-29T22:02:25.230Z</time>
      </trkpt>
      <trkpt lat="43.1778" lon="-0.60445">
        <ele>230.91</ele>
        <time>2024-05-29T22:02:30.253Z</time>
      </trkpt>
      <trkpt lat="43.17723" lon="-0.60594">
        <ele>231.56</ele>
        <time>2024-05-29T22:02:35.299Z</time>
      </trkpt>
      <trkpt lat="43.17707" lon="-0.60623">
        <ele>232.08</ele>
        <time>2024-05-29T22:02:40.350Z</time>
      </trkpt>
      <trkpt lat="43.17703" lon="-0.60628">
        <ele>232.7</ele>
        <time>2024-05-29T22:02:45.402Z</time>
      </trkpt>
      <trkpt lat="43.17696" lon="-0.60634">
        <ele>233.47</ele>
        <time>2024-05-29T22:02:50.455Z</time>
      </trkpt>
      <trkpt lat="43.17637" lon="-0.60649">
        <ele>234.47</ele>
        <time>2024-05-29T22:02:55.519Z</time>
      </trkpt>
      <trkpt lat="43.17573" lon="-0.60667">
        <ele>235.44</ele>
        <time>2024-05-29T22:03:00.596Z</time>
      </trkpt>
      <trkpt lat="43.17555" lon="-0.60674">
        <ele>236.53</ele>
        <time>2024-05-29T22:03:05.676Z</time>
      </trkpt>
      <trkpt lat="43.17536" lon="-0.60685">
        <ele>237.74</ele>
        <time>2024-05-29T22:03:10.760Z</time>
      </trkpt>
      <trkpt lat="43.17505" lon="-0.6071">
        <ele>239.13</ele>
        <time>2024-05-29T22:03:15.851Z</time>
      </trkpt>
      <trkpt lat="43.1749" lon="-0.60719">
        <ele>240.41</ele>
        <time>2024-05-29T22:03:20.945Z</time>
      </trkpt>
      <trkpt lat="43.17394" lon="-0.60755">
        <ele>241.98</ele>
        <time>2024-05-29T22:03:26.057Z</time>
      </trkpt>
      <trkpt lat="43.17387" lon="-0.60766">
        <ele>243.25</ele>
        <time>2024-05-29T22:03:31.171Z</time>
      </trkpt>
      <trkpt lat="43.17376" lon="-0.60791">
        <ele>244.53</ele>
        <time>2024-05-29T22:03:36.289Z</time>
      </trkpt>
      <trkpt lat="43.17292" lon="-0.60878">
        <ele>245.86</ele>
        <time>2024-05-29T22:03:41.427Z</time>
      </trkpt>
      <trkpt lat="43.17188" lon="-0.60977">
        <ele>246.99</ele>
        <time>2024-05-29T22:03:46.588Z</time>
      </trkpt>
      <trkpt lat="43.17144" lon="-0.61029">
        <ele>248.1</ele>
        <time>2024-05-29T22:03:51.760Z</time>
      </trkpt>
      <trkpt lat="43.17032" lon="-0.61156">
        <ele>249.08</ele>
        <time>2024-05-29T22:03:56.959Z</time>
      </trkpt>
      <trkpt lat="43.1695" lon="-0.61246">
        <ele>250.01</ele>
        <time>2024-05-29T22:04:02.178Z</time>
      </trkpt>
      <trkpt lat="43.16929" lon="-0.61267">
        <ele>250.82</ele>
        <time>2024-05-29T22:04:07.402Z</time>
      </trkpt>
      <trkpt lat="43.16767" lon="-0.61382">
        <ele>251.71</ele>
        <time>2024-05-29T22:04:12.660Z</time>
      </trkpt>
      <trkpt lat="43.16745" lon="-0.61404">
        <ele>252.27</ele>
        <time>2024-05-29T22:04:17.923Z</time>
      </trkpt>
      <trkpt lat="43.16727" lon="-0.61432">
        <ele>252.79</ele>
        <time>2024-05-29T22:04:23.191Z</time>
      </trkpt>
      <trkpt lat="43.16709" lon="-0.61475">
        <ele>253.23</ele>
        <time>2024-05-29T22:04:28.465Z</time>
      </trkpt>
      <trkpt lat="43.16674" lon="-0.61595">
        <ele>253.45</ele>
        <time>2024-05-29T22:04:33.757Z</time>
      </trkpt>
      <trkpt lat="43.1666" lon="-0.61627">
        <ele>253.69</ele>
        <time>2024-05-29T22:04:39.054Z</time>
      </trkpt>
      <trkpt lat="43.16665" lon="-0.61629">
        <ele>253.82</ele>
        <time>2024-05-29T22:04:44.352Z</time>
      </trkpt>
      <trkpt lat="43.16683" lon="-0.61631">
        <ele>253.84</ele>
        <time>2024-05-29T22:04:49.653Z</time>
      </trkpt>
      <trkpt lat="43.16729" lon="-0.61649">
        <ele>253.73</ele>
        <time>2024-05-29T22:04:54.963Z</time>
      </trkpt>
      <trkpt lat="43.16933" lon="-0.6179">
        <ele>253.57</ele>
        <time>2024-05-29T22:05:00.316Z</time>
      </trkpt>
      <trkpt lat="43.16955" lon="-0.6181">
        <ele>253.52</ele>
        <time>2024-05-29T22:05:05.674Z</time>
      </trkpt>
      <trkpt lat="43.17047" lon="-0.61922">
        <ele>253.22</ele>
        <time>2024-05-29T22:05:11.055Z</time>
      </trkpt>
      <trkpt lat="43.1708" lon="-0.61952">
        <ele>253.08</ele>
        <time>2024-05-29T22:05:16.443Z</time>
      </trkpt>
      <trkpt lat="43.17113" lon="-0.61973">
        <ele>252.88</ele>
        <time>2024-05-29T22:05:21.838Z</time>
      </trkpt>
      <trkpt lat="43.17153" lon="-0.61986">
        <ele>252.75</ele>
        <time>2024-05-29T22:05:27.241Z</time>
      </trkpt>
      <trkpt lat="43.17199" lon="-0.61991">
        <ele>252.59</ele>
        <time>2024-05-29T22:05:32.652Z</time>
      </trkpt>
      <trkpt lat="43.17243" lon="-0.61985">
        <ele>252.48</ele>
        <time>2024-05-29T22:05:38.071Z</time>
      </trkpt>
      <trkpt lat="43.1723" lon="-0.62053">
        <ele>252.43</ele>
        <time>2024-05-29T22:05:43.500Z</time>
      </trkpt>
      <trkpt lat="43.1723" lon="-0.62077">
        <ele>252.32</ele>
        <time>2024-05-29T22:05:48.932Z</time>
      </trkpt>
      <trkpt lat="43.17235" lon="-0.62116">
        <ele>252.2</ele>
        <time>2024-05-29T22:05:54.370Z</time>
      </trkpt>
      <trkpt lat="43.17231" lon="-0.62197">
        <ele>252.36</ele>
        <time>2024-05-29T22:05:59.819Z</time>
      </trkpt>
      <trkpt lat="43.17235" lon="-0.62203">
        <ele>252.31</ele>
        <time>2024-05-29T22:06:05.269Z</time>
      </trkpt>
      <trkpt lat="43.17249" lon="-0.62224">
        <ele>252.34</ele>
        <time>2024-05-29T22:06:10.723Z</time>
      </trkpt>
      <trkpt lat="43.17252" lon="-0.6224">
        <ele>252.32</ele>
        <time>2024-05-29T22:06:16.179Z</time>
      </trkpt>
      <trkpt lat="43.17257" lon="-0.62252">
        <ele>252.31</ele>
        <time>2024-05-29T22:06:21.637Z</time>
      </trkpt>
      <trkpt lat="43.17267" lon="-0.6226">
        <ele>252.25</ele>
        <time>2024-05-29T22:06:27.097Z</time>
      </trkpt>
      <trkpt lat="43.17292" lon="-0.62271">
        <ele>252.03</ele>
        <time>2024-05-29T22:06:32.562Z</time>
      </trkpt>
      <trkpt lat="43.17297" lon="-0.62282">
        <ele>251.92</ele>
        <time>2024-05-29T22:06:38.029Z</time>
      </trkpt>
      <trkpt lat="43.17296" lon="-0.62303">
        <ele>251.88</ele>
        <time>2024-05-29T22:06:43.498Z</time>
      </trkpt>
      <trkpt lat="43.17283" lon="-0.62345">
        <ele>252.14</ele>
        <time>2024-05-29T22:06:48.974Z</time>
      </trkpt>
      <trkpt lat="43.17284" lon="-0.62356">
        <ele>252.22</ele>
        <time>2024-05-29T22:06:54.451Z</time>
      </trkpt>
      <trkpt lat="43.17288" lon="-0.62368">
        <ele>252.27</ele>
        <time>2024-05-29T22:06:59.930Z</time>
      </trkpt>
      <trkpt lat="43.17349" lon="-0.62403">
        <ele>252.21</ele>
        <time>2024-05-29T22:07:05.421Z</time>
      </trkpt>
      <trkpt lat="43.17401" lon="-0.62456">
        <ele>251.78</ele>
        <time>2024-05-29T22:07:10.924Z</time>
      </trkpt>
      <trkpt lat="43.17443" lon="-0.62513">
        <ele>251.28</ele>
        <time>2024-05-29T22:07:16.438Z</time>
      </trkpt>
      <trkpt lat="43.17625" lon="-0.62672">
        <ele>250.67</ele>
        <time>2024-05-29T22:07:21.993Z</time>
      </trkpt>
      <trkpt lat="43.17638" lon="-0.6269">
        <ele>250.55</ele>
        <time>2024-05-29T22:07:27.551Z</time>
      </trkpt>
      <trkpt lat="43.17631" lon="-0.62695">
        <ele>250.29</ele>
        <time>2024-05-29T22:07:33.110Z</time>
      </trkpt>
      <trkpt lat="43.17613" lon="-0.62742">
        <ele>250.31</ele>
        <time>2024-05-29T22:07:38.677Z</time>
      </trkpt>
      <trkpt lat="43.17611" lon="-0.62761">
        <ele>250.12</ele>
        <time>2024-05-29T22:07:44.246Z</time>
      </trkpt>
      <trkpt lat="43.17613" lon="-0.6278">
        <ele>249.86</ele>
        <time>2024-05-29T22:07:49.818Z</time>
      </trkpt>
      <trkpt lat="43.17623" lon="-0.62821">
        <ele>249.47</ele>
        <time>2024-05-29T22:07:55.396Z</time>
      </trkpt>
      <trkpt lat="43.17641" lon="-0.62871">
        <ele>249.01</ele>
        <time>2024-05-29T22:08:00.981Z</time>
      </trkpt>
      <trkpt lat="43.17661" lon="-0.62907">
        <ele>248.41</ele>
        <time>2024-05-29T22:08:06.572Z</time>
      </trkpt>
      <trkpt lat="43.17699" lon="-0.62961">
        <ele>248.04</ele>
        <time>2024-05-29T22:08:12.174Z</time>
      </trkpt>
      <trkpt lat="43.17722" lon="-0.62999">
        <ele>247.56</ele>
        <time>2024-05-29T22:08:17.782Z</time>
      </trkpt>
      <trkpt lat="43.17747" lon="-0.63059">
        <ele>247.07</ele>
        <time>2024-05-29T22:08:23.400Z</time>
      </trkpt>
      <trkpt lat="43.17781" lon="-0.6315">
        <ele>246.8</ele>
        <time>2024-05-29T22:08:29.032Z</time>
      </trkpt>
      <trkpt lat="43.17799" lon="-0.63204">
        <ele>246.19</ele>
        <time>2024-05-29T22:08:34.672Z</time>
      </trkpt>
      <trkpt lat="43.17815" lon="-0.63325">
        <ele>245.63</ele>
        <time>2024-05-29T22:08:40.329Z</time>
      </trkpt>
      <trkpt lat="43.17823" lon="-0.63372">
        <ele>244.88</ele>
        <time>2024-05-29T22:08:45.992Z</time>
      </trkpt>
      <trkpt lat="43.17838" lon="-0.63429">
        <ele>244.17</ele>
        <time>2024-05-29T22:08:51.663Z</time>
      </trkpt>
      <trkpt lat="43.17848" lon="-0.63488">
        <ele>243.4</ele>
        <time>2024-05-29T22:08:57.343Z</time>
      </trkpt>
      <trkpt lat="43.17865" lon="-0.63655">
        <ele>242.68</ele>
        <time>2024-05-29T22:09:03.046Z</time>
      </trkpt>
      <trkpt lat="43.17871" lon="-0.63679">
        <ele>241.86</ele>
        <time>2024-05-29T22:09:08.752Z</time>
      </trkpt>
      <trkpt lat="43.17904" lon="-0.63769">
        <ele>241</ele>
        <time>2024-05-29T22:09:14.472Z</time>
      </trkpt>
      <trkpt lat="43.17954" lon="-0.6387">
        <ele>239.86</ele>
        <time>2024-05-29T22:09:20.208Z</time>
      </trkpt>
      <trkpt lat="43.17977" lon="-0.6393">
        <ele>238.7</ele>
        <time>2024-05-29T22:09:25.954Z</time>
      </trkpt>
      <trkpt lat="43.18" lon="-0.63999">
        <ele>237.65</ele>
        <time>2024-05-29T22:09:31.710Z</time>
      </trkpt>
      <trkpt lat="43.1785" lon="-0.64094">
        <ele>236.69</ele>
        <time>2024-05-29T22:09:37.497Z</time>
      </trkpt>
      <trkpt lat="43.17816" lon="-0.64121">
        <ele>235.9</ele>
        <time>2024-05-29T22:09:43.291Z</time>
      </trkpt>
      <trkpt lat="43.17797" lon="-0.64143">
        <ele>235.12</ele>
        <time>2024-05-29T22:09:49.090Z</time>
      </trkpt>
      <trkpt lat="43.1778" lon="-0.64167">
        <ele>234.31</ele>
        <time>2024-05-29T22:09:54.893Z</time>
      </trkpt>
      <trkpt lat="43.1775" lon="-0.64225">
        <ele>233.48</ele>
        <time>2024-05-29T22:10:00.706Z</time>
      </trkpt>
      <trkpt lat="43.17741" lon="-0.64236">
        <ele>232.79</ele>
        <time>2024-05-29T22:10:06.521Z</time>
      </trkpt>
      <trkpt lat="43.17728" lon="-0.6425">
        <ele>232.14</ele>
        <time>2024-05-29T22:10:12.339Z</time>
      </trkpt>
      <trkpt lat="43.17687" lon="-0.64283">
        <ele>231.54</ele>
        <time>2024-05-29T22:10:18.166Z</time>
      </trkpt>
      <trkpt lat="43.17674" lon="-0.64298">
        <ele>231.03</ele>
        <time>2024-05-29T22:10:23.996Z</time>
      </trkpt>
      <trkpt lat="43.17678" lon="-0.64303">
        <ele>230.57</ele>
        <time>2024-05-29T22:10:29.827Z</time>
      </trkpt>
      <trkpt lat="43.17697" lon="-0.64328">
        <ele>230.15</ele>
        <time>2024-05-29T22:10:35.663Z</time>
      </trkpt>
      <trkpt lat="43.17742" lon="-0.64372">
        <ele>229.86</ele>
        <time>2024-05-29T22:10:41.509Z</time>
      </trkpt>
      <trkpt lat="43.17768" lon="-0.64411">
        <ele>229.48</ele>
        <time>2024-05-29T22:10:47.363Z</time>
      </trkpt>
      <trkpt lat="43.17789" lon="-0.6443">
        <ele>229.23</ele>
        <time>2024-05-29T22:10:53.221Z</time>
      </trkpt>
      <trkpt lat="43.17872" lon="-0.64479">
        <ele>229.09</ele>
        <time>2024-05-29T22:10:59.096Z</time>
      </trkpt>
      <trkpt lat="43.17891" lon="-0.64507">
        <ele>228.86</ele>
        <time>2024-05-29T22:11:04.976Z</time>
      </trkpt>
      <trkpt lat="43.17905" lon="-0.64522">
        <ele>228.63</ele>
        <time>2024-05-29T22:11:10.860Z</time>
      </trkpt>
      <trkpt lat="43.17927" lon="-0.6453">
        <ele>228.5</ele>
        <time>2024-05-29T22:11:16.748Z</time>
      </trkpt>
      <trkpt lat="43.17953" lon="-0.64533">
        <ele>228.5</ele>
        <time>2024-05-29T22:11:22.641Z</time>
      </trkpt>
      <trkpt lat="43.17975" lon="-0.64528">
        <ele>228.51</ele>
        <time>2024-05-29T22:11:28.538Z</time>
      </trkpt>
      <trkpt lat="43.18022" lon="-0.64495">
        <ele>228.51</ele>
        <time>2024-05-29T22:11:34.445Z</time>
      </trkpt>
      <trkpt lat="43.18033" lon="-0.64492">
        <ele>228.43</ele>
        <time>2024-05-29T22:11:40.354Z</time>
      </trkpt>
      <trkpt lat="43.18045" lon="-0.64494">
        <ele>228.36</ele>
        <time>2024-05-29T22:11:46.265Z</time>
      </trkpt>
      <trkpt lat="43.18098" lon="-0.64514">
        <ele>228.28</ele>
        <time>2024-05-29T22:11:52.186Z</time>
      </trkpt>
      <trkpt lat="43.18121" lon="-0.64525">
        <ele>228.21</ele>
        <time>2024-05-29T22:11:58.112Z</time>
      </trkpt>
      <trkpt lat="43.18131" lon="-0.64574">
        <ele>228.17</ele>
        <time>2024-05-29T22:12:04.045Z</time>
      </trkpt>
      <trkpt lat="43.18137" lon="-0.64588">
        <ele>228.12</ele>
        <time>2024-05-29T22:12:09.980Z</time>
      </trkpt>
      <trkpt lat="43.18149" lon="-0.64599">
        <ele>228.01</ele>
        <time>2024-05-29T22:12:15.918Z</time>
      </trkpt>
      <trkpt lat="43.18169" lon="-0.64607">
        <ele>227.9</ele>
        <time>2024-05-29T22:12:21.859Z</time>
      </trkpt>
      <trkpt lat="43.18212" lon="-0.6461">
        <ele>227.69</ele>
        <time>2024-05-29T22:12:27.808Z</time>
      </trkpt>
      <trkpt lat="43.18228" lon="-0.64617">
        <ele>227.51</ele>
        <time>2024-05-29T22:12:33.761Z</time>
      </trkpt>
      <trkpt lat="43.1824" lon="-0.6463">
        <ele>227.32</ele>
        <time>2024-05-29T22:12:39.716Z</time>
      </trkpt>
      <trkpt lat="43.18258" lon="-0.64663">
        <ele>227.12</ele>
        <time>2024-05-29T22:12:45.677Z</time>
      </trkpt>
      <trkpt lat="43.18306" lon="-0.64699">
        <ele>226.95</ele>
        <time>2024-05-29T22:12:51.648Z</time>
      </trkpt>
      <trkpt lat="43.18337" lon="-0.64726">
        <ele>226.81</ele>
        <time>2024-05-29T22:12:57.626Z</time>
      </trkpt>
      <trkpt lat="43.18351" lon="-0.64732">
        <ele>226.67</ele>
        <time>2024-05-29T22:13:03.607Z</time>
      </trkpt>
      <trkpt lat="43.18393" lon="-0.64725">
        <ele>226.48</ele>
        <time>2024-05-29T22:13:09.596Z</time>
      </trkpt>
      <trkpt lat="43.18435" lon="-0.64735">
        <ele>226.19</ele>
        <time>2024-05-29T22:13:15.593Z</time>
      </trkpt>
      <trkpt lat="43.18494" lon="-0.64738">
        <ele>226.1</ele>
        <time>2024-05-29T22:13:21.601Z</time>
      </trkpt>
      <trkpt lat="43.18519" lon="-0.64742">
        <ele>225.96</ele>
        <time>2024-05-29T22:13:27.613Z</time>
      </trkpt>
      <trkpt lat="43.18543" lon="-0.64737">
        <ele>225.84</ele>
        <time>2024-05-29T22:13:33.630Z</time>
      </trkpt>
      <trkpt lat="43.18572" lon="-0.64719">
        <ele>225.65</ele>
        <time>2024-05-29T22:13:39.653Z</time>
      </trkpt>
      <trkpt lat="43.18664" lon="-0.647">
        <ele>225.56</ele>
        <time>2024-05-29T22:13:45.693Z</time>
      </trkpt>
      <trkpt lat="43.18684" lon="-0.64702">
        <ele>225.43</ele>
        <time>2024-05-29T22:13:51.737Z</time>
      </trkpt>
      <trkpt lat="43.18705" lon="-0.64707">
        <ele>225.25</ele>
        <time>2024-05-29T22:13:57.785Z</time>
      </trkpt>
      <trkpt lat="43.18764" lon="-0.64703">
        <ele>225.23</ele>
        <time>2024-05-29T22:14:03.844Z</time>
      </trkpt>
      <trkpt lat="43.18787" lon="-0.64693">
        <ele>225.14</ele>
        <time>2024-05-29T22:14:09.907Z</time>
      </trkpt>
      <trkpt lat="43.18805" lon="-0.64689">
        <ele>225.05</ele>
        <time>2024-05-29T22:14:15.974Z</time>
      </trkpt>
      <trkpt lat="43.18831" lon="-0.64692">
        <ele>224.96</ele>
        <time>2024-05-29T22:14:22.045Z</time>
      </trkpt>
      <trkpt lat="43.18835" lon="-0.64698">
        <ele>224.79</ele>
        <time>2024-05-29T22:14:28.117Z</time>
      </trkpt>
      <trkpt lat="43.18868" lon="-0.64694">
        <ele>224.62</ele>
        <time>2024-05-29T22:14:34.196Z</time>
      </trkpt>
      <trkpt lat="43.18892" lon="-0.647">
        <ele>224.42</ele>
        <time>2024-05-29T22:14:40.279Z</time>
      </trkpt>
      <trkpt lat="43.18905" lon="-0.64695">
        <ele>224.27</ele>
        <time>2024-05-29T22:14:46.365Z</time>
      </trkpt>
      <trkpt lat="43.18919" lon="-0.64677">
        <ele>224.18</ele>
        <time>2024-05-29T22:14:52.454Z</time>
      </trkpt>
      <trkpt lat="43.18952" lon="-0.64598">
        <ele>224.08</ele>
        <time>2024-05-29T22:14:58.556Z</time>
      </trkpt>
      <trkpt lat="43.18985" lon="-0.64638">
        <ele>223.81</ele>
        <time>2024-05-29T22:15:04.666Z</time>
      </trkpt>
      <trkpt lat="43.19021" lon="-0.64676">
        <ele>223.41</ele>
        <time>2024-05-29T22:15:10.784Z</time>
      </trkpt>
      <trkpt lat="43.1917" lon="-0.64804">
        <ele>222.93</ele>
        <time>2024-05-29T22:15:16.935Z</time>
      </trkpt>
      <trkpt lat="43.19226" lon="-0.64848">
        <ele>222.34</ele>
        <time>2024-05-29T22:15:23.098Z</time>
      </trkpt>
      <trkpt lat="43.19313" lon="-0.6489">
        <ele>221.67</ele>
        <time>2024-05-29T22:15:29.278Z</time>
      </trkpt>
      <trkpt lat="43.19368" lon="-0.64915">
        <ele>221.33</ele>
        <time>2024-05-29T22:15:35.469Z</time>
      </trkpt>
      <trkpt lat="43.1942" lon="-0.64933">
        <ele>220.83</ele>
        <time>2024-05-29T22:15:41.670Z</time>
      </trkpt>
      <trkpt lat="43.19496" lon="-0.64947">
        <ele>220.4</ele>
        <time>2024-05-29T22:15:47.885Z</time>
      </trkpt>
      <trkpt lat="43.19553" lon="-0.64961">
        <ele>219.69</ele>
        <time>2024-05-29T22:15:54.111Z</time>
      </trkpt>
      <trkpt lat="43.19568" lon="-0.64967">
        <ele>219.09</ele>
        <time>2024-05-29T22:16:00.340Z</time>
      </trkpt>
      <trkpt lat="43.19579" lon="-0.64983">
        <ele>218.54</ele>
        <time>2024-05-29T22:16:06.572Z</time>
      </trkpt>
      <trkpt lat="43.1959" lon="-0.65019">
        <ele>218.04</ele>
        <time>2024-05-29T22:16:12.809Z</time>
      </trkpt>
      <trkpt lat="43.1959" lon="-0.65087">
        <ele>217.43</ele>
        <time>2024-05-29T22:16:19.055Z</time>
      </trkpt>
      <trkpt lat="43.19581" lon="-0.65232">
        <ele>216.9</ele>
        <time>2024-05-29T22:16:25.321Z</time>
      </trkpt>
      <trkpt lat="43.1958" lon="-0.65271">
        <ele>216.35</ele>
        <time>2024-05-29T22:16:31.593Z</time>
      </trkpt>
      <trkpt lat="43.1959" lon="-0.65368">
        <ele>215.68</ele>
        <time>2024-05-29T22:16:37.878Z</time>
      </trkpt>
      <trkpt lat="43.19592" lon="-0.65413">
        <ele>215.23</ele>
        <time>2024-05-29T22:16:44.169Z</time>
      </trkpt>
      <trkpt lat="43.19588" lon="-0.65467">
        <ele>214.86</ele>
        <time>2024-05-29T22:16:50.467Z</time>
      </trkpt>
      <trkpt lat="43.1958" lon="-0.65532">
        <ele>214.58</ele>
        <time>2024-05-29T22:16:56.774Z</time>
      </trkpt>
      <trkpt lat="43.19573" lon="-0.65567">
        <ele>214.29</ele>
        <time>2024-05-29T22:17:03.086Z</time>
      </trkpt>
      <trkpt lat="43.19563" lon="-0.65606">
        <ele>213.89</ele>
        <time>2024-05-29T22:17:09.404Z</time>
      </trkpt>
      <trkpt lat="43.19504" lon="-0.6577">
        <ele>213.31</ele>
        <time>2024-05-29T22:17:15.747Z</time>
      </trkpt>
      <trkpt lat="43.19501" lon="-0.65808">
        <ele>213.27</ele>
        <time>2024-05-29T22:17:22.095Z</time>
      </trkpt>
      <trkpt lat="43.1952" lon="-0.65893">
        <ele>213.24</ele>
        <time>2024-05-29T22:17:28.455Z</time>
      </trkpt>
      <trkpt lat="43.19524" lon="-0.65929">
        <ele>213.37</ele>
        <time>2024-05-29T22:17:34.820Z</time>
      </trkpt>
      <trkpt lat="43.1952" lon="-0.6596">
        <ele>213.58</ele>
        <time>2024-05-29T22:17:41.189Z</time>
      </trkpt>
      <trkpt lat="43.19508" lon="-0.6599">
        <ele>213.77</ele>
        <time>2024-05-29T22:17:47.563Z</time>
      </trkpt>
      <trkpt lat="43.19438" lon="-0.66128">
        <ele>213.98</ele>
        <time>2024-05-29T22:17:53.960Z</time>
      </trkpt>
      <trkpt lat="43.19381" lon="-0.66231">
        <ele>214.3</ele>
        <time>2024-05-29T22:18:00.375Z</time>
      </trkpt>
      <trkpt lat="43.19337" lon="-0.66326">
        <ele>214.7</ele>
        <time>2024-05-29T22:18:06.805Z</time>
      </trkpt>
      <trkpt lat="43.19321" lon="-0.66353">
        <ele>215.11</ele>
        <time>2024-05-29T22:18:13.240Z</time>
      </trkpt>
      <trkpt lat="43.193" lon="-0.66371">
        <ele>215.54</ele>
        <time>2024-05-29T22:18:19.679Z</time>
      </trkpt>
      <trkpt lat="43.1921" lon="-0.66428">
        <ele>216.06</ele>
        <time>2024-05-29T22:18:26.137Z</time>
      </trkpt>
      <trkpt lat="43.19184" lon="-0.66455">
        <ele>216.69</ele>
        <time>2024-05-29T22:18:32.601Z</time>
      </trkpt>
      <trkpt lat="43.19125" lon="-0.66527">
        <ele>217.33</ele>
        <time>2024-05-29T22:18:39.079Z</time>
      </trkpt>
      <trkpt lat="43.19093" lon="-0.66596">
        <ele>217.71</ele>
        <time>2024-05-29T22:18:45.569Z</time>
      </trkpt>
      <trkpt lat="43.19005" lon="-0.66932">
        <ele>218.6</ele>
        <time>2024-05-29T22:18:52.107Z</time>
      </trkpt>
      <trkpt lat="43.19004" lon="-0.66958">
        <ele>219.07</ele>
        <time>2024-05-29T22:18:58.649Z</time>
      </trkpt>
      <trkpt lat="43.19019" lon="-0.67019">
        <ele>219.39</ele>
        <time>2024-05-29T22:19:05.199Z</time>
      </trkpt>
      <trkpt lat="43.19022" lon="-0.67048">
        <ele>219.76</ele>
        <time>2024-05-29T22:19:11.753Z</time>
      </trkpt>
      <trkpt lat="43.19021" lon="-0.67083">
        <ele>220.1</ele>
        <time>2024-05-29T22:19:18.312Z</time>
      </trkpt>
      <trkpt lat="43.19015" lon="-0.67119">
        <ele>220.5</ele>
        <time>2024-05-29T22:19:24.876Z</time>
      </trkpt>
      <trkpt lat="43.1899" lon="-0.67185">
        <ele>220.91</ele>
        <time>2024-05-29T22:19:31.450Z</time>
      </trkpt>
      <trkpt lat="43.18987" lon="-0.67214">
        <ele>221.29</ele>
        <time>2024-05-29T22:19:38.028Z</time>
      </trkpt>
      <trkpt lat="43.18996" lon="-0.67322">
        <ele>221.57</ele>
        <time>2024-05-29T22:19:44.621Z</time>
      </trkpt>
      <trkpt lat="43.18996" lon="-0.67359">
        <ele>222.06</ele>
        <time>2024-05-29T22:19:51.219Z</time>
      </trkpt>
      <trkpt lat="43.18992" lon="-0.67389">
        <ele>222.44</ele>
        <time>2024-05-29T22:19:57.821Z</time>
      </trkpt>
      <trkpt lat="43.18976" lon="-0.67442">
        <ele>222.84</ele>
        <time>2024-05-29T22:20:04.431Z</time>
      </trkpt>
      <trkpt lat="43.18953" lon="-0.67528">
        <ele>223.4</ele>
        <time>2024-05-29T22:20:11.054Z</time>
      </trkpt>
      <trkpt lat="43.18915" lon="-0.67631">
        <ele>223.45</ele>
        <time>2024-05-29T22:20:17.692Z</time>
      </trkpt>
      <trkpt lat="43.18887" lon="-0.67677">
        <ele>223.77</ele>
        <time>2024-05-29T22:20:24.338Z</time>
      </trkpt>
      <trkpt lat="43.18862" lon="-0.67724">
        <ele>224.15</ele>
        <time>2024-05-29T22:20:30.992Z</time>
      </trkpt>
      <trkpt lat="43.18834" lon="-0.67818">
        <ele>224.58</ele>
        <time>2024-05-29T22:20:37.660Z</time>
      </trkpt>
      <trkpt lat="43.18827" lon="-0.67856">
        <ele>224.82</ele>
        <time>2024-05-29T22:20:44.333Z</time>
      </trkpt>
      <trkpt lat="43.18828" lon="-0.6788">
        <ele>225</ele>
        <time>2024-05-29T22:20:51.010Z</time>
      </trkpt>
      <trkpt lat="43.18834" lon="-0.67904">
        <ele>225.16</ele>
        <time>2024-05-29T22:20:57.690Z</time>
      </trkpt>
      <trkpt lat="43.18862" lon="-0.67955">
        <ele>225.21</ele>
        <time>2024-05-29T22:21:04.379Z</time>
      </trkpt>
      <trkpt lat="43.18867" lon="-0.67976">
        <ele>225.2</ele>
        <time>2024-05-29T22:21:11.071Z</time>
      </trkpt>
      <trkpt lat="43.18868" lon="-0.67989">
        <ele>225.28</ele>
        <time>2024-05-29T22:21:17.765Z</time>
      </trkpt>
      <trkpt lat="43.18867" lon="-0.68002">
        <ele>225.29</ele>
        <time>2024-05-29T22:21:24.460Z</time>
      </trkpt>
      <trkpt lat="43.18864" lon="-0.68015">
        <ele>225.34</ele>
        <time>2024-05-29T22:21:31.157Z</time>
      </trkpt>
      <trkpt lat="43.18854" lon="-0.68037">
        <ele>225.44</ele>
        <time>2024-05-29T22:21:37.858Z</time>
      </trkpt>
      <trkpt lat="43.18839" lon="-0.68049">
        <ele>225.49</ele>
        <time>2024-05-29T22:21:44.562Z</time>
      </trkpt>
      <trkpt lat="43.18813" lon="-0.68058">
        <ele>225.4</ele>
        <time>2024-05-29T22:21:51.271Z</time>
      </trkpt>
      <trkpt lat="43.18804" lon="-0.68064">
        <ele>225.25</ele>
        <time>2024-05-29T22:21:57.982Z</time>
      </trkpt>
      <trkpt lat="43.18797" lon="-0.6807">
        <ele>225.08</ele>
        <time>2024-05-29T22:22:04.694Z</time>
      </trkpt>
      <trkpt lat="43.18787" lon="-0.6809">
        <ele>224.83</ele>
        <time>2024-05-29T22:22:11.410Z</time>
      </trkpt>
      <trkpt lat="43.18784" lon="-0.68102">
        <ele>224.59</ele>
        <time>2024-05-29T22:22:18.127Z</time>
      </trkpt>
      <trkpt lat="43.18783" lon="-0.68114">
        <ele>224.38</ele>
        <time>2024-05-29T22:22:24.846Z</time>
      </trkpt>
      <trkpt lat="43.18786" lon="-0.68148">
        <ele>224.11</ele>
        <time>2024-05-29T22:22:31.570Z</time>
      </trkpt>
      <trkpt lat="43.18789" lon="-0.6817">
        <ele>223.91</ele>
        <time>2024-05-29T22:22:38.297Z</time>
      </trkpt>
      <trkpt lat="43.18792" lon="-0.68183">
        <ele>223.72</ele>
        <time>2024-05-29T22:22:45.026Z</time>
      </trkpt>
      <trkpt lat="43.18796" lon="-0.68193">
        <ele>223.52</ele>
        <time>2024-05-29T22:22:51.756Z</time>
      </trkpt>
      <trkpt lat="43.18825" lon="-0.6824">
        <ele>223.36</ele>
        <time>2024-05-29T22:22:58.495Z</time>
      </trkpt>
      <trkpt lat="43.18832" lon="-0.68256">
        <ele>223.24</ele>
        <time>2024-05-29T22:23:05.236Z</time>
      </trkpt>
      <trkpt lat="43.18839" lon="-0.68284">
        <ele>223.14</ele>
        <time>2024-05-29T22:23:11.981Z</time>
      </trkpt>
      <trkpt lat="43.18839" lon="-0.68293">
        <ele>223.08</ele>
        <time>2024-05-29T22:23:18.727Z</time>
      </trkpt>
      <trkpt lat="43.18841" lon="-0.68325">
        <ele>223.01</ele>
        <time>2024-05-29T22:23:25.478Z</time>
      </trkpt>
      <trkpt lat="43.18842" lon="-0.6847">
        <ele>223.19</ele>
        <time>2024-05-29T22:23:32.248Z</time>
      </trkpt>
      <trkpt lat="43.18851" lon="-0.68544">
        <ele>223.35</ele>
        <time>2024-05-29T22:23:39.029Z</time>
      </trkpt>
      <trkpt lat="43.18851" lon="-0.68573">
        <ele>223.56</ele>
        <time>2024-05-29T22:23:45.814Z</time>
      </trkpt>
      <trkpt lat="43.18845" lon="-0.68619">
        <ele>223.9</ele>
        <time>2024-05-29T22:23:52.605Z</time>
      </trkpt>
      <trkpt lat="43.18843" lon="-0.68648">
        <ele>224.23</ele>
        <time>2024-05-29T22:23:59.400Z</time>
      </trkpt>
      <trkpt lat="43.1885" lon="-0.68673">
        <ele>224.65</ele>
        <time>2024-05-29T22:24:06.199Z</time>
      </trkpt>
      <trkpt lat="43.18871" lon="-0.68714">
        <ele>225.28</ele>
        <time>2024-05-29T22:24:13.004Z</time>
      </trkpt>
      <trkpt lat="43.18942" lon="-0.6888">
        <ele>225.68</ele>
        <time>2024-05-29T22:24:19.836Z</time>
      </trkpt>
      <trkpt lat="43.18993" lon="-0.68974">
        <ele>226.43</ele>
        <time>2024-05-29T22:24:26.683Z</time>
      </trkpt>
      <trkpt lat="43.19009" lon="-0.68998">
        <ele>227.07</ele>
        <time>2024-05-29T22:24:33.535Z</time>
      </trkpt>
      <trkpt lat="43.19031" lon="-0.69019">
        <ele>227.76</ele>
        <time>2024-05-29T22:24:40.392Z</time>
      </trkpt>
      <trkpt lat="43.19054" lon="-0.69034">
        <ele>228.64</ele>
        <time>2024-05-29T22:24:47.254Z</time>
      </trkpt>
      <trkpt lat="43.19074" lon="-0.69042">
        <ele>229.63</ele>
        <time>2024-05-29T22:24:54.120Z</time>
      </trkpt>
      <trkpt lat="43.19096" lon="-0.69043">
        <ele>230.82</ele>
        <time>2024-05-29T22:25:00.990Z</time>
      </trkpt>
      <trkpt lat="43.19109" lon="-0.69038">
        <ele>232.08</ele>
        <time>2024-05-29T22:25:07.862Z</time>
      </trkpt>
      <trkpt lat="43.19133" lon="-0.6902">
        <ele>233.55</ele>
        <time>2024-05-29T22:25:14.739Z</time>
      </trkpt>
      <trkpt lat="43.19169" lon="-0.68984">
        <ele>235.03</ele>
        <time>2024-05-29T22:25:21.625Z</time>
      </trkpt>
      <trkpt lat="43.19192" lon="-0.68952">
        <ele>236.36</ele>
        <time>2024-05-29T22:25:28.517Z</time>
      </trkpt>
      <trkpt lat="43.19222" lon="-0.68905">
        <ele>237.68</ele>
        <time>2024-05-29T22:25:35.417Z</time>
      </trkpt>
      <trkpt lat="43.19235" lon="-0.6889">
        <ele>239.1</ele>
        <time>2024-05-29T22:25:42.320Z</time>
      </trkpt>
      <trkpt lat="43.1925" lon="-0.68881">
        <ele>240.66</ele>
        <time>2024-05-29T22:25:49.226Z</time>
      </trkpt>
      <trkpt lat="43.19285" lon="-0.68873">
        <ele>242.34</ele>
        <time>2024-05-29T22:25:56.139Z</time>
      </trkpt>
      <trkpt lat="43.19303" lon="-0.68866">
        <ele>244.11</ele>
        <time>2024-05-29T22:26:03.055Z</time>
      </trkpt>
      <trkpt lat="43.19322" lon="-0.68844">
        <ele>246.07</ele>
        <time>2024-05-29T22:26:09.976Z</time>
      </trkpt>
      <trkpt lat="43.1934" lon="-0.68833">
        <ele>247.95</ele>
        <time>2024-05-29T22:26:16.901Z</time>
      </trkpt>
      <trkpt lat="43.19353" lon="-0.68832">
        <ele>249.79</ele>
        <time>2024-05-29T22:26:23.828Z</time>
      </trkpt>
      <trkpt lat="43.19367" lon="-0.68842">
        <ele>251.63</ele>
        <time>2024-05-29T22:26:30.758Z</time>
      </trkpt>
      <trkpt lat="43.19377" lon="-0.68858">
        <ele>253.51</ele>
        <time>2024-05-29T22:26:37.691Z</time>
      </trkpt>
      <trkpt lat="43.19383" lon="-0.68879">
        <ele>255.39</ele>
        <time>2024-05-29T22:26:44.627Z</time>
      </trkpt>
      <trkpt lat="43.19397" lon="-0.68951">
        <ele>257.42</ele>
        <time>2024-05-29T22:26:51.573Z</time>
      </trkpt>
      <trkpt lat="43.19407" lon="-0.68978">
        <ele>259.42</ele>
        <time>2024-05-29T22:26:58.523Z</time>
      </trkpt>
      <trkpt lat="43.19461" lon="-0.69078">
        <ele>261.96</ele>
        <time>2024-05-29T22:27:05.490Z</time>
      </trkpt>
      <trkpt lat="43.19465" lon="-0.69094">
        <ele>263.94</ele>
        <time>2024-05-29T22:27:12.459Z</time>
      </trkpt>
      <trkpt lat="43.19464" lon="-0.6911">
        <ele>265.89</ele>
        <time>2024-05-29T22:27:19.431Z</time>
      </trkpt>
      <trkpt lat="43.19457" lon="-0.6913">
        <ele>267.72</ele>
        <time>2024-05-29T22:27:26.406Z</time>
      </trkpt>
      <trkpt lat="43.19455" lon="-0.69149">
        <ele>269.58</ele>
        <time>2024-05-29T22:27:33.383Z</time>
      </trkpt>
      <trkpt lat="43.1946" lon="-0.69193">
        <ele>271.61</ele>
        <time>2024-05-29T22:27:40.366Z</time>
      </trkpt>
      <trkpt lat="43.19461" lon="-0.69217">
        <ele>273.4</ele>
        <time>2024-05-29T22:27:47.353Z</time>
      </trkpt>
      <trkpt lat="43.19456" lon="-0.69244">
        <ele>275.14</ele>
        <time>2024-05-29T22:27:54.343Z</time>
      </trkpt>
      <trkpt lat="43.19449" lon="-0.69263">
        <ele>276.76</ele>
        <time>2024-05-29T22:28:01.336Z</time>
      </trkpt>
      <trkpt lat="43.19444" lon="-0.69272">
        <ele>278.25</ele>
        <time>2024-05-29T22:28:08.331Z</time>
      </trkpt>
      <trkpt lat="43.19433" lon="-0.69297">
        <ele>279.7</ele>
        <time>2024-05-29T22:28:15.330Z</time>
      </trkpt>
      <trkpt lat="43.1943" lon="-0.69324">
        <ele>281.05</ele>
        <time>2024-05-29T22:28:22.333Z</time>
      </trkpt>
      <trkpt lat="43.19435" lon="-0.69345">
        <ele>282.31</ele>
        <time>2024-05-29T22:28:29.339Z</time>
      </trkpt>
      <trkpt lat="43.19449" lon="-0.69369">
        <ele>283.44</ele>
        <time>2024-05-29T22:28:36.349Z</time>
      </trkpt>
      <trkpt lat="43.19458" lon="-0.69391">
        <ele>284.4</ele>
        <time>2024-05-29T22:28:43.362Z</time>
      </trkpt>
      <trkpt lat="43.1946" lon="-0.69414">
        <ele>285.21</ele>
        <time>2024-05-29T22:28:50.378Z</time>
      </trkpt>
      <trkpt lat="43.19445" lon="-0.69534">
        <ele>285.63</ele>
        <time>2024-05-29T22:28:57.411Z</time>
      </trkpt>
      <trkpt lat="43.19425" lon="-0.69589">
        <ele>286.51</ele>
        <time>2024-05-29T22:29:04.452Z</time>
      </trkpt>
      <trkpt lat="43.19418" lon="-0.69615">
        <ele>287.33</ele>
        <time>2024-05-29T22:29:11.497Z</time>
      </trkpt>
      <trkpt lat="43.19417" lon="-0.69646">
        <ele>288.03</ele>
        <time>2024-05-29T22:29:18.546Z</time>
      </trkpt>
      <trkpt lat="43.19409" lon="-0.69761">
        <ele>288.47</ele>
        <time>2024-05-29T22:29:25.611Z</time>
      </trkpt>
      <trkpt lat="43.19418" lon="-0.69865">
        <ele>289.03</ele>
        <time>2024-05-29T22:29:32.690Z</time>
      </trkpt>
      <trkpt lat="43.19421" lon="-0.69926">
        <ele>289.38</ele>
        <time>2024-05-29T22:29:39.778Z</time>
      </trkpt>
      <trkpt lat="43.19419" lon="-0.69953">
        <ele>289.73</ele>
        <time>2024-05-29T22:29:46.869Z</time>
      </trkpt>
      <trkpt lat="43.19412" lon="-0.69985">
        <ele>290.02</ele>
        <time>2024-05-29T22:29:53.965Z</time>
      </trkpt>
      <trkpt lat="43.19398" lon="-0.70017">
        <ele>290.21</ele>
        <time>2024-05-29T22:30:01.066Z</time>
      </trkpt>
      <trkpt lat="43.19367" lon="-0.70069">
        <ele>290.4</ele>
        <time>2024-05-29T22:30:08.176Z</time>
      </trkpt>
      <trkpt lat="43.19363" lon="-0.70089">
        <ele>290.45</ele>
        <time>2024-05-29T22:30:15.289Z</time>
      </trkpt>
      <trkpt lat="43.19361" lon="-0.7021">
        <ele>290.28</ele>
        <time>2024-05-29T22:30:22.418Z</time>
      </trkpt>
      <trkpt lat="43.19365" lon="-0.70241">
        <ele>290.15</ele>
        <time>2024-05-29T22:30:29.552Z</time>
      </trkpt>
      <trkpt lat="43.19371" lon="-0.70263">
        <ele>289.93</ele>
        <time>2024-05-29T22:30:36.689Z</time>
      </trkpt>
      <trkpt lat="43.19412" lon="-0.70385">
        <ele>289.31</ele>
        <time>2024-05-29T22:30:43.844Z</time>
      </trkpt>
      <trkpt lat="43.19422" lon="-0.70417">
        <ele>288.78</ele>
        <time>2024-05-29T22:30:51.004Z</time>
      </trkpt>
      <trkpt lat="43.19433" lon="-0.70469">
        <ele>288.3</ele>
        <time>2024-05-29T22:30:58.171Z</time>
      </trkpt>
      <trkpt lat="43.19435" lon="-0.70511">
        <ele>287.85</ele>
        <time>2024-05-29T22:31:05.344Z</time>
      </trkpt>
      <trkpt lat="43.19426" lon="-0.70552">
        <ele>287.21</ele>
        <time>2024-05-29T22:31:12.523Z</time>
      </trkpt>
      <trkpt lat="43.19416" lon="-0.70577">
        <ele>286.56</ele>
        <time>2024-05-29T22:31:19.706Z</time>
      </trkpt>
      <trkpt lat="43.19374" lon="-0.70634">
        <ele>285.82</ele>
        <time>2024-05-29T22:31:26.900Z</time>
      </trkpt>
      <trkpt lat="43.19371" lon="-0.70643">
        <ele>285.27</ele>
        <time>2024-05-29T22:31:34.095Z</time>
      </trkpt>
      <trkpt lat="43.1937" lon="-0.70656">
        <ele>284.71</ele>
        <time>2024-05-29T22:31:41.292Z</time>
      </trkpt>
      <trkpt lat="43.19382" lon="-0.70725">
        <ele>284.01</ele>
        <time>2024-05-29T22:31:48.498Z</time>
      </trkpt>
      <trkpt lat="43.19387" lon="-0.70776">
        <ele>283.56</ele>
        <time>2024-05-29T22:31:55.711Z</time>
      </trkpt>
      <trkpt lat="43.19393" lon="-0.70807">
        <ele>283.14</ele>
        <time>2024-05-29T22:32:02.929Z</time>
      </trkpt>
      <trkpt lat="43.19408" lon="-0.70859">
        <ele>282.89</ele>
        <time>2024-05-29T22:32:10.154Z</time>
      </trkpt>
      <trkpt lat="43.19418" lon="-0.70887">
        <ele>282.62</ele>
        <time>2024-05-29T22:32:17.384Z</time>
      </trkpt>
      <trkpt lat="43.19429" lon="-0.70911">
        <ele>282.4</ele>
        <time>2024-05-29T22:32:24.617Z</time>
      </trkpt>
      <trkpt lat="43.19456" lon="-0.70949">
        <ele>282.18</ele>
        <time>2024-05-29T22:32:31.858Z</time>
      </trkpt>
      <trkpt lat="43.1948" lon="-0.70978">
        <ele>281.85</ele>
        <time>2024-05-29T22:32:39.105Z</time>
      </trkpt>
      <trkpt lat="43.19494" lon="-0.71004">
        <ele>281.56</ele>
        <time>2024-05-29T22:32:46.356Z</time>
      </trkpt>
      <trkpt lat="43.19496" lon="-0.71013">
        <ele>281.42</ele>
        <time>2024-05-29T22:32:53.608Z</time>
      </trkpt>
      <trkpt lat="43.19495" lon="-0.7102">
        <ele>281.3</ele>
        <time>2024-05-29T22:33:00.861Z</time>
      </trkpt>
      <trkpt lat="43.19509" lon="-0.71084">
        <ele>281.41</ele>
        <time>2024-05-29T22:33:08.123Z</time>
      </trkpt>
      <trkpt lat="43.19517" lon="-0.71099">
        <ele>281.26</ele>
        <time>2024-05-29T22:33:15.388Z</time>
      </trkpt>
      <trkpt lat="43.19607" lon="-0.71196">
        <ele>281.05</ele>
        <time>2024-05-29T22:33:22.674Z</time>
      </trkpt>
      <trkpt lat="43.19614" lon="-0.71206">
        <ele>280.8</ele>
        <time>2024-05-29T22:33:29.962Z</time>
      </trkpt>
      <trkpt lat="43.19618" lon="-0.71217">
        <ele>280.53</ele>
        <time>2024-05-29T22:33:37.252Z</time>
      </trkpt>
      <trkpt lat="43.19619" lon="-0.71229">
        <ele>280.24</ele>
        <time>2024-05-29T22:33:44.543Z</time>
      </trkpt>
      <trkpt lat="43.19616" lon="-0.7126">
        <ele>279.94</ele>
        <time>2024-05-29T22:33:51.839Z</time>
      </trkpt>
      <trkpt lat="43.19617" lon="-0.71278">
        <ele>279.55</ele>
        <time>2024-05-29T22:33:59.137Z</time>
      </trkpt>
      <trkpt lat="43.19632" lon="-0.71338">
        <ele>279.01</ele>
        <time>2024-05-29T22:34:06.444Z</time>
      </trkpt>
      <trkpt lat="43.19632" lon="-0.71358">
        <ele>278.33</ele>
        <time>2024-05-29T22:34:13.753Z</time>
      </trkpt>
      <trkpt lat="43.19626" lon="-0.71383">
        <ele>277.5</ele>
        <time>2024-05-29T22:34:21.066Z</time>
      </trkpt>
      <trkpt lat="43.19616" lon="-0.71398">
        <ele>276.63</ele>
        <time>2024-05-29T22:34:28.382Z</time>
      </trkpt>
      <trkpt lat="43.19583" lon="-0.71428">
        <ele>275.69</ele>
        <time>2024-05-29T22:34:35.705Z</time>
      </trkpt>
      <trkpt lat="43.1957" lon="-0.71446">
        <ele>274.61</ele>
        <time>2024-05-29T22:34:43.032Z</time>
      </trkpt>
      <trkpt lat="43.19563" lon="-0.71462">
        <ele>273.4</ele>
        <time>2024-05-29T22:34:50.361Z</time>
      </trkpt>
      <trkpt lat="43.19474" lon="-0.71717">
        <ele>272.19</ele>
        <time>2024-05-29T22:34:57.729Z</time>
      </trkpt>
      <trkpt lat="43.19471" lon="-0.71736">
        <ele>270.83</ele>
        <time>2024-05-29T22:35:05.099Z</time>
      </trkpt>
      <trkpt lat="43.19473" lon="-0.71761">
        <ele>269.27</ele>
        <time>2024-05-29T22:35:12.473Z</time>
      </trkpt>
      <trkpt lat="43.19483" lon="-0.71773">
        <ele>267.54</ele>
        <time>2024-05-29T22:35:19.849Z</time>
      </trkpt>
      <trkpt lat="43.19498" lon="-0.71776">
        <ele>265.66</ele>
        <time>2024-05-29T22:35:27.228Z</time>
      </trkpt>
      <trkpt lat="43.19523" lon="-0.71765">
        <ele>263.43</ele>
        <time>2024-05-29T22:35:34.612Z</time>
      </trkpt>
      <trkpt lat="43.19592" lon="-0.71716">
        <ele>260.58</ele>
        <time>2024-05-29T22:35:42.010Z</time>
      </trkpt>
      <trkpt lat="43.19617" lon="-0.71705">
        <ele>258.32</ele>
        <time>2024-05-29T22:35:49.413Z</time>
      </trkpt>
      <trkpt lat="43.19645" lon="-0.71706">
        <ele>255.96</ele>
        <time>2024-05-29T22:35:56.821Z</time>
      </trkpt>
      <trkpt lat="43.19649" lon="-0.71708">
        <ele>253.85</ele>
        <time>2024-05-29T22:36:04.230Z</time>
      </trkpt>
      <trkpt lat="43.19657" lon="-0.71713">
        <ele>251.71</ele>
        <time>2024-05-29T22:36:11.641Z</time>
      </trkpt>
      <trkpt lat="43.19663" lon="-0.71726">
        <ele>249.69</ele>
        <time>2024-05-29T22:36:19.054Z</time>
      </trkpt>
      <trkpt lat="43.19663" lon="-0.71743">
        <ele>247.67</ele>
        <time>2024-05-29T22:36:26.469Z</time>
      </trkpt>
      <trkpt lat="43.19657" lon="-0.71779">
        <ele>245.71</ele>
        <time>2024-05-29T22:36:33.889Z</time>
      </trkpt>
      <trkpt lat="43.19642" lon="-0.71808">
        <ele>243.93</ele>
        <time>2024-05-29T22:36:41.314Z</time>
      </trkpt>
      <trkpt lat="43.1963" lon="-0.71827">
        <ele>242.08</ele>
        <time>2024-05-29T22:36:48.743Z</time>
      </trkpt>
      <trkpt lat="43.19629" lon="-0.7184">
        <ele>240.07</ele>
        <time>2024-05-29T22:36:56.173Z</time>
      </trkpt>
      <trkpt lat="43.19638" lon="-0.7185">
        <ele>237.97</ele>
        <time>2024-05-29T22:37:03.605Z</time>
      </trkpt>
      <trkpt lat="43.19651" lon="-0.71854">
        <ele>235.76</ele>
        <time>2024-05-29T22:37:11.040Z</time>
      </trkpt>
      <trkpt lat="43.19774" lon="-0.71842">
        <ele>232.13</ele>
        <time>2024-05-29T22:37:18.498Z</time>
      </trkpt>
      <trkpt lat="43.19793" lon="-0.71843">
        <ele>230</ele>
        <time>2024-05-29T22:37:25.959Z</time>
      </trkpt>
      <trkpt lat="43.19805" lon="-0.71852">
        <ele>228</ele>
        <time>2024-05-29T22:37:33.423Z</time>
      </trkpt>
      <trkpt lat="43.19812" lon="-0.71871">
        <ele>226.16</ele>
        <time>2024-05-29T22:37:40.890Z</time>
      </trkpt>
      <trkpt lat="43.19815" lon="-0.7189">
        <ele>224.39</ele>
        <time>2024-05-29T22:37:48.359Z</time>
      </trkpt>
      <trkpt lat="43.19814" lon="-0.71921">
        <ele>222.65</ele>
        <time>2024-05-29T22:37:55.833Z</time>
      </trkpt>
      <trkpt lat="43.19807" lon="-0.7196">
        <ele>220.97</ele>
        <time>2024-05-29T22:38:03.312Z</time>
      </trkpt>
      <trkpt lat="43.19795" lon="-0.72">
        <ele>219.27</ele>
        <time>2024-05-29T22:38:10.797Z</time>
      </trkpt>
      <trkpt lat="43.19779" lon="-0.72026">
        <ele>217.63</ele>
        <time>2024-05-29T22:38:18.287Z</time>
      </trkpt>
      <trkpt lat="43.19742" lon="-0.72061">
        <ele>216.07</ele>
        <time>2024-05-29T22:38:25.785Z</time>
      </trkpt>
      <trkpt lat="43.19714" lon="-0.72103">
        <ele>214.41</ele>
        <time>2024-05-29T22:38:33.291Z</time>
      </trkpt>
      <trkpt lat="43.19696" lon="-0.7212">
        <ele>212.95</ele>
        <time>2024-05-29T22:38:40.801Z</time>
      </trkpt>
      <trkpt lat="43.19665" lon="-0.72135">
        <ele>211.72</ele>
        <time>2024-05-29T22:38:48.317Z</time>
      </trkpt>
      <trkpt lat="43.19654" lon="-0.72145">
        <ele>210.52</ele>
        <time>2024-05-29T22:38:55.835Z</time>
      </trkpt>
      <trkpt lat="43.19651" lon="-0.72162">
        <ele>209.38</ele>
        <time>2024-05-29T22:39:03.356Z</time>
      </trkpt>
      <trkpt lat="43.19654" lon="-0.72179">
        <ele>208.26</ele>
        <time>2024-05-29T22:39:10.879Z</time>
      </trkpt>
      <trkpt lat="43.19667" lon="-0.72192">
        <ele>207.18</ele>
        <time>2024-05-29T22:39:18.405Z</time>
      </trkpt>
      <trkpt lat="43.19724" lon="-0.72197">
        <ele>205.89</ele>
        <time>2024-05-29T22:39:25.942Z</time>
      </trkpt>
      <trkpt lat="43.19742" lon="-0.72204">
        <ele>204.8</ele>
        <time>2024-05-29T22:39:33.482Z</time>
      </trkpt>
      <trkpt lat="43.19759" lon="-0.72217">
        <ele>203.83</ele>
        <time>2024-05-29T22:39:41.026Z</time>
      </trkpt>
      <trkpt lat="43.19772" lon="-0.72244">
        <ele>202.99</ele>
        <time>2024-05-29T22:39:48.574Z</time>
      </trkpt>
      <trkpt lat="43.19773" lon="-0.72261">
        <ele>202.27</ele>
        <time>2024-05-29T22:39:56.125Z</time>
      </trkpt>
      <trkpt lat="43.19772" lon="-0.72315">
        <ele>201.57</ele>
        <time>2024-05-29T22:40:03.683Z</time>
      </trkpt>
      <trkpt lat="43.19773" lon="-0.72337">
        <ele>200.87</ele>
        <time>2024-05-29T22:40:11.244Z</time>
      </trkpt>
      <trkpt lat="43.19787" lon="-0.72406">
        <ele>200</ele>
        <time>2024-05-29T22:40:18.815Z</time>
      </trkpt>
      <trkpt lat="43.19786" lon="-0.72435">
        <ele>199.47</ele>
        <time>2024-05-29T22:40:26.390Z</time>
      </trkpt>
      <trkpt lat="43.19778" lon="-0.72541">
        <ele>199.05</ele>
        <time>2024-05-29T22:40:33.979Z</time>
      </trkpt>
      <trkpt lat="43.19777" lon="-0.72606">
        <ele>198.57</ele>
        <time>2024-05-29T22:40:41.577Z</time>
      </trkpt>
      <trkpt lat="43.19787" lon="-0.7281">
        <ele>198.19</ele>
        <time>2024-05-29T22:40:49.203Z</time>
      </trkpt>
      <trkpt lat="43.19796" lon="-0.72927">
        <ele>198.14</ele>
        <time>2024-05-29T22:40:56.845Z</time>
      </trkpt>
      <trkpt lat="43.19826" lon="-0.73078">
        <ele>198.01</ele>
        <time>2024-05-29T22:41:04.508Z</time>
      </trkpt>
      <trkpt lat="43.19833" lon="-0.73137">
        <ele>198</ele>
        <time>2024-05-29T22:41:12.179Z</time>
      </trkpt>
      <trkpt lat="43.19839" lon="-0.73171">
        <ele>197.97</ele>
        <time>2024-05-29T22:41:19.855Z</time>
      </trkpt>
      <trkpt lat="43.19851" lon="-0.73199">
        <ele>197.94</ele>
        <time>2024-05-29T22:41:27.535Z</time>
      </trkpt>
      <trkpt lat="43.19999" lon="-0.7342">
        <ele>198.2</ele>
        <time>2024-05-29T22:41:35.256Z</time>
      </trkpt>
      <trkpt lat="43.20067" lon="-0.73485">
        <ele>197.93</ele>
        <time>2024-05-29T22:41:42.993Z</time>
      </trkpt>
      <trkpt lat="43.20078" lon="-0.73507">
        <ele>197.87</ele>
        <time>2024-05-29T22:41:50.733Z</time>
      </trkpt>
      <trkpt lat="43.20093" lon="-0.7355">
        <ele>198.03</ele>
        <time>2024-05-29T22:41:58.480Z</time>
      </trkpt>
      <trkpt lat="43.20106" lon="-0.73602">
        <ele>198.21</ele>
        <time>2024-05-29T22:42:06.234Z</time>
      </trkpt>
      <trkpt lat="43.20125" lon="-0.73827">
        <ele>198.41</ele>
        <time>2024-05-29T22:42:14.019Z</time>
      </trkpt>
      <trkpt lat="43.20178" lon="-0.74083">
        <ele>198.66</ele>
        <time>2024-05-29T22:42:21.840Z</time>
      </trkpt>
      <trkpt lat="43.20252" lon="-0.74392">
        <ele>198.96</ele>
        <time>2024-05-29T22:42:29.706Z</time>
      </trkpt>
      <trkpt lat="43.20259" lon="-0.74432">
        <ele>199.28</ele>
        <time>2024-05-29T22:42:37.577Z</time>
      </trkpt>
      <trkpt lat="43.20259" lon="-0.74441">
        <ele>199.6</ele>
        <time>2024-05-29T22:42:45.449Z</time>
      </trkpt>
      <trkpt lat="43.20259" lon="-0.74457">
        <ele>199.94</ele>
        <time>2024-05-29T22:42:53.324Z</time>
      </trkpt>
      <trkpt lat="43.20254" lon="-0.74483">
        <ele>200.32</ele>
        <time>2024-05-29T22:43:01.202Z</time>
      </trkpt>
      <trkpt lat="43.20226" lon="-0.74584">
        <ele>200.72</ele>
        <time>2024-05-29T22:43:09.095Z</time>
      </trkpt>
      <trkpt lat="43.20217" lon="-0.74631">
        <ele>201</ele>
        <time>2024-05-29T22:43:16.995Z</time>
      </trkpt>
      <trkpt lat="43.20198" lon="-0.74782">
        <ele>201.42</ele>
        <time>2024-05-29T22:43:24.915Z</time>
      </trkpt>
      <trkpt lat="43.20184" lon="-0.74875">
        <ele>201.95</ele>
        <time>2024-05-29T22:43:32.848Z</time>
      </trkpt>
      <trkpt lat="43.20168" lon="-0.74963">
        <ele>202.4</ele>
        <time>2024-05-29T22:43:40.794Z</time>
      </trkpt>
      <trkpt lat="43.20142" lon="-0.75066">
        <ele>202.71</ele>
        <time>2024-05-29T22:43:48.754Z</time>
      </trkpt>
      <trkpt lat="43.2013" lon="-0.75102">
        <ele>202.85</ele>
        <time>2024-05-29T22:43:56.720Z</time>
      </trkpt>
      <trkpt lat="43.2009" lon="-0.7518">
        <ele>202.92</ele>
        <time>2024-05-29T22:44:04.699Z</time>
      </trkpt>
      <trkpt lat="43.20075" lon="-0.75213">
        <ele>203.05</ele>
        <time>2024-05-29T22:44:12.683Z</time>
      </trkpt>
      <trkpt lat="43.19897" lon="-0.7566">
        <ele>203.29</ele>
        <time>2024-05-29T22:44:20.736Z</time>
      </trkpt>
      <trkpt lat="43.19882" lon="-0.7568">
        <ele>203.6</ele>
        <time>2024-05-29T22:44:28.793Z</time>
      </trkpt>
      <trkpt lat="43.19869" lon="-0.75691">
        <ele>203.93</ele>
        <time>2024-05-29T22:44:36.853Z</time>
      </trkpt>
      <trkpt lat="43.1985" lon="-0.75703">
        <ele>204.3</ele>
        <time>2024-05-29T22:44:44.917Z</time>
      </trkpt>
      <trkpt lat="43.19827" lon="-0.75706">
        <ele>204.61</ele>
        <time>2024-05-29T22:44:52.985Z</time>
      </trkpt>
      <trkpt lat="43.19771" lon="-0.757">
        <ele>204.89</ele>
        <time>2024-05-29T22:45:01.064Z</time>
      </trkpt>
      <trkpt lat="43.19738" lon="-0.75706">
        <ele>205.15</ele>
        <time>2024-05-29T22:45:09.149Z</time>
      </trkpt>
      <trkpt lat="43.19686" lon="-0.75722">
        <ele>205.36</ele>
        <time>2024-05-29T22:45:17.244Z</time>
      </trkpt>
      <trkpt lat="43.1959" lon="-0.75758">
        <ele>205.43</ele>
        <time>2024-05-29T22:45:25.357Z</time>
      </trkpt>
      <trkpt lat="43.19467" lon="-0.7581">
        <ele>205.95</ele>
        <time>2024-05-29T22:45:33.494Z</time>
      </trkpt>
      <trkpt lat="43.19435" lon="-0.75826">
        <ele>206.22</ele>
        <time>2024-05-29T22:45:41.638Z</time>
      </trkpt>
      <trkpt lat="43.19397" lon="-0.75854">
        <ele>206.73</ele>
        <time>2024-05-29T22:45:49.790Z</time>
      </trkpt>
      <trkpt lat="43.19373" lon="-0.75881">
        <ele>207.22</ele>
        <time>2024-05-29T22:45:57.947Z</time>
      </trkpt>
      <trkpt lat="43.1936" lon="-0.75902">
        <ele>207.69</ele>
        <time>2024-05-29T22:46:06.108Z</time>
      </trkpt>
      <trkpt lat="43.19352" lon="-0.7593">
        <ele>208.08</ele>
        <time>2024-05-29T22:46:14.273Z</time>
      </trkpt>
      <trkpt lat="43.19333" lon="-0.76056">
        <ele>208.26</ele>
        <time>2024-05-29T22:46:22.456Z</time>
      </trkpt>
      <trkpt lat="43.19317" lon="-0.76102">
        <ele>208.65</ele>
        <time>2024-05-29T22:46:30.646Z</time>
      </trkpt>
      <trkpt lat="43.19268" lon="-0.762">
        <ele>209.22</ele>
        <time>2024-05-29T22:46:38.852Z</time>
      </trkpt>
      <trkpt lat="43.19244" lon="-0.76263">
        <ele>209.52</ele>
        <time>2024-05-29T22:46:47.068Z</time>
      </trkpt>
      <trkpt lat="43.19193" lon="-0.76421">
        <ele>209.84</ele>
        <time>2024-05-29T22:46:55.307Z</time>
      </trkpt>
      <trkpt lat="43.19124" lon="-0.76728">
        <ele>210.86</ele>
        <time>2024-05-29T22:47:03.590Z</time>
      </trkpt>
      <trkpt lat="43.19121" lon="-0.76734">
        <ele>211.26</ele>
        <time>2024-05-29T22:47:11.874Z</time>
      </trkpt>
      <trkpt lat="43.19113" lon="-0.76751">
        <ele>211.66</ele>
        <time>2024-05-29T22:47:20.161Z</time>
      </trkpt>
      <trkpt lat="43.19086" lon="-0.76784">
        <ele>211.99</ele>
        <time>2024-05-29T22:47:28.454Z</time>
      </trkpt>
      <trkpt lat="43.19069" lon="-0.76809">
        <ele>212.29</ele>
        <time>2024-05-29T22:47:36.752Z</time>
      </trkpt>
      <trkpt lat="43.19059" lon="-0.76828">
        <ele>212.59</ele>
        <time>2024-05-29T22:47:45.053Z</time>
      </trkpt>
      <trkpt lat="43.19041" lon="-0.76874">
        <ele>212.83</ele>
        <time>2024-05-29T22:47:53.361Z</time>
      </trkpt>
      <trkpt lat="43.19028" lon="-0.76888">
        <ele>213.13</ele>
        <time>2024-05-29T22:48:01.672Z</time>
      </trkpt>
      <trkpt lat="43.18999" lon="-0.76894">
        <ele>213.49</ele>
        <time>2024-05-29T22:48:09.989Z</time>
      </trkpt>
      <trkpt lat="43.1898" lon="-0.76903">
        <ele>213.98</ele>
        <time>2024-05-29T22:48:18.309Z</time>
      </trkpt>
      <trkpt lat="43.18965" lon="-0.76912">
        <ele>214.51</ele>
        <time>2024-05-29T22:48:26.633Z</time>
      </trkpt>
      <trkpt lat="43.18942" lon="-0.7693">
        <ele>215.1</ele>
        <time>2024-05-29T22:48:34.961Z</time>
      </trkpt>
      <trkpt lat="43.18935" lon="-0.7694">
        <ele>215.65</ele>
        <time>2024-05-29T22:48:43.291Z</time>
      </trkpt>
      <trkpt lat="43.18929" lon="-0.76956">
        <ele>216.24</ele>
        <time>2024-05-29T22:48:51.624Z</time>
      </trkpt>
      <trkpt lat="43.18927" lon="-0.76971">
        <ele>216.85</ele>
        <time>2024-05-29T22:48:59.959Z</time>
      </trkpt>
      <trkpt lat="43.18905" lon="-0.77135">
        <ele>216.98</ele>
        <time>2024-05-29T22:49:08.317Z</time>
      </trkpt>
      <trkpt lat="43.18901" lon="-0.77145">
        <ele>217.65</ele>
        <time>2024-05-29T22:49:16.676Z</time>
      </trkpt>
      <trkpt lat="43.18894" lon="-0.77159">
        <ele>218.39</ele>
        <time>2024-05-29T22:49:25.037Z</time>
      </trkpt>
      <trkpt lat="43.18854" lon="-0.77198">
        <ele>219.17</ele>
        <time>2024-05-29T22:49:33.408Z</time>
      </trkpt>
      <trkpt lat="43.18837" lon="-0.77211">
        <ele>220.23</ele>
        <time>2024-05-29T22:49:41.782Z</time>
      </trkpt>
      <trkpt lat="43.1883" lon="-0.77212">
        <ele>221.34</ele>
        <time>2024-05-29T22:49:50.158Z</time>
      </trkpt>
      <trkpt lat="43.18824" lon="-0.77213">
        <ele>222.53</ele>
        <time>2024-05-29T22:49:58.535Z</time>
      </trkpt>
      <trkpt lat="43.18719" lon="-0.77197">
        <ele>224.17</ele>
        <time>2024-05-29T22:50:06.931Z</time>
      </trkpt>
      <trkpt lat="43.18691" lon="-0.77193">
        <ele>225.65</ele>
        <time>2024-05-29T22:50:15.333Z</time>
      </trkpt>
      <trkpt lat="43.1868" lon="-0.77194">
        <ele>227.03</ele>
        <time>2024-05-29T22:50:23.737Z</time>
      </trkpt>
      <trkpt lat="43.18645" lon="-0.77209">
        <ele>228.55</ele>
        <time>2024-05-29T22:50:32.147Z</time>
      </trkpt>
      <trkpt lat="43.18618" lon="-0.77228">
        <ele>230.04</ele>
        <time>2024-05-29T22:50:40.563Z</time>
      </trkpt>
      <trkpt lat="43.18614" lon="-0.77234">
        <ele>231.4</ele>
        <time>2024-05-29T22:50:48.980Z</time>
      </trkpt>
      <trkpt lat="43.18607" lon="-0.77253">
        <ele>232.75</ele>
        <time>2024-05-29T22:50:57.400Z</time>
      </trkpt>
      <trkpt lat="43.18563" lon="-0.77513">
        <ele>234.75</ele>
        <time>2024-05-29T22:51:05.856Z</time>
      </trkpt>
      <trkpt lat="43.18554" lon="-0.77546">
        <ele>235.94</ele>
        <time>2024-05-29T22:51:14.317Z</time>
      </trkpt>
      <trkpt lat="43.18542" lon="-0.77566">
        <ele>237.01</ele>
        <time>2024-05-29T22:51:22.782Z</time>
      </trkpt>
      <trkpt lat="43.18531" lon="-0.77602">
        <ele>237.88</ele>
        <time>2024-05-29T22:51:31.252Z</time>
      </trkpt>
      <trkpt lat="43.18509" lon="-0.77682">
        <ele>238.45</ele>
        <time>2024-05-29T22:51:39.734Z</time>
      </trkpt>
      <trkpt lat="43.18503" lon="-0.77698">
        <ele>238.99</ele>
        <time>2024-05-29T22:51:48.218Z</time>
      </trkpt>
      <trkpt lat="43.18468" lon="-0.77733">
        <ele>239.29</ele>
        <time>2024-05-29T22:51:56.710Z</time>
      </trkpt>
      <trkpt lat="43.18449" lon="-0.77759">
        <ele>239.45</ele>
        <time>2024-05-29T22:52:05.207Z</time>
      </trkpt>
      <trkpt lat="43.18431" lon="-0.77778">
        <ele>239.49</ele>
        <time>2024-05-29T22:52:13.708Z</time>
      </trkpt>
      <trkpt lat="43.18411" lon="-0.77789">
        <ele>239.35</ele>
        <time>2024-05-29T22:52:22.213Z</time>
      </trkpt>
      <trkpt lat="43.18394" lon="-0.77795">
        <ele>239.12</ele>
        <time>2024-05-29T22:52:30.722Z</time>
      </trkpt>
      <trkpt lat="43.18376" lon="-0.77797">
        <ele>238.77</ele>
        <time>2024-05-29T22:52:39.234Z</time>
      </trkpt>
      <trkpt lat="43.18306" lon="-0.77793">
        <ele>238.49</ele>
        <time>2024-05-29T22:52:47.759Z</time>
      </trkpt>
      <trkpt lat="43.18302" lon="-0.77789">
        <ele>237.89</ele>
        <time>2024-05-29T22:52:56.285Z</time>
      </trkpt>
      <trkpt lat="43.18241" lon="-0.77723">
        <ele>237.04</ele>
        <time>2024-05-29T22:53:04.825Z</time>
      </trkpt>
      <trkpt lat="43.18229" lon="-0.77708">
        <ele>236.16</ele>
        <time>2024-05-29T22:53:13.368Z</time>
      </trkpt>
      <trkpt lat="43.18146" lon="-0.77656">
        <ele>235.16</ele>
        <time>2024-05-29T22:53:21.928Z</time>
      </trkpt>
      <trkpt lat="43.18113" lon="-0.77641">
        <ele>233.97</ele>
        <time>2024-05-29T22:53:30.495Z</time>
      </trkpt>
      <trkpt lat="43.18061" lon="-0.77628">
        <ele>232.75</ele>
        <time>2024-05-29T22:53:39.072Z</time>
      </trkpt>
      <trkpt lat="43.18015" lon="-0.77641">
        <ele>231.58</ele>
        <time>2024-05-29T22:53:47.657Z</time>
      </trkpt>
      <trkpt lat="43.1798" lon="-0.77642">
        <ele>230.22</ele>
        <time>2024-05-29T22:53:56.249Z</time>
      </trkpt>
      <trkpt lat="43.17925" lon="-0.77629">
        <ele>228.65</ele>
        <time>2024-05-29T22:54:04.851Z</time>
      </trkpt>
      <trkpt lat="43.1789" lon="-0.77608">
        <ele>227.41</ele>
        <time>2024-05-29T22:54:13.461Z</time>
      </trkpt>
      <trkpt lat="43.17872" lon="-0.77594">
        <ele>226.24</ele>
        <time>2024-05-29T22:54:22.074Z</time>
      </trkpt>
      <trkpt lat="43.17871" lon="-0.77602">
        <ele>225.14</ele>
        <time>2024-05-29T22:54:30.688Z</time>
      </trkpt>
      <trkpt lat="43.1787" lon="-0.77608">
        <ele>224.09</ele>
        <time>2024-05-29T22:54:39.303Z</time>
      </trkpt>
      <trkpt lat="43.17876" lon="-0.77626">
        <ele>223.13</ele>
        <time>2024-05-29T22:54:47.921Z</time>
      </trkpt>
      <trkpt lat="43.17896" lon="-0.77672">
        <ele>222.13</ele>
        <time>2024-05-29T22:54:56.546Z</time>
      </trkpt>
      <trkpt lat="43.17907" lon="-0.77705">
        <ele>221.12</ele>
        <time>2024-05-29T22:55:05.176Z</time>
      </trkpt>
      <trkpt lat="43.17913" lon="-0.77713">
        <ele>220.3</ele>
        <time>2024-05-29T22:55:13.808Z</time>
      </trkpt>
      <trkpt lat="43.17926" lon="-0.77721">
        <ele>219.56</ele>
        <time>2024-05-29T22:55:22.442Z</time>
      </trkpt>
      <trkpt lat="43.17929" lon="-0.77732">
        <ele>218.86</ele>
        <time>2024-05-29T22:55:31.078Z</time>
      </trkpt>
      <trkpt lat="43.1793" lon="-0.77749">
        <ele>218.28</ele>
        <time>2024-05-29T22:55:39.716Z</time>
      </trkpt>
      <trkpt lat="43.17927" lon="-0.77801">
        <ele>217.88</ele>
        <time>2024-05-29T22:55:48.361Z</time>
      </trkpt>
      <trkpt lat="43.17896" lon="-0.77804">
        <ele>217.45</ele>
        <time>2024-05-29T22:55:57.012Z</time>
      </trkpt>
      <trkpt lat="43.17831" lon="-0.77791">
        <ele>216.88</ele>
        <time>2024-05-29T22:56:05.675Z</time>
      </trkpt>
      <trkpt lat="43.17815" lon="-0.77791">
        <ele>216.61</ele>
        <time>2024-05-29T22:56:14.341Z</time>
      </trkpt>
      <trkpt lat="43.178" lon="-0.77795">
        <ele>216.45</ele>
        <time>2024-05-29T22:56:23.010Z</time>
      </trkpt>
      <trkpt lat="43.17783" lon="-0.77803">
        <ele>216.35</ele>
        <time>2024-05-29T22:56:31.683Z</time>
      </trkpt>
      <trkpt lat="43.17769" lon="-0.77816">
        <ele>216.31</ele>
        <time>2024-05-29T22:56:40.359Z</time>
      </trkpt>
      <trkpt lat="43.17759" lon="-0.77827">
        <ele>216.29</ele>
        <time>2024-05-29T22:56:49.037Z</time>
      </trkpt>
      <trkpt lat="43.17743" lon="-0.7785">
        <ele>216.34</ele>
        <time>2024-05-29T22:56:57.719Z</time>
      </trkpt>
      <trkpt lat="43.17724" lon="-0.77888">
        <ele>216.34</ele>
        <time>2024-05-29T22:57:06.408Z</time>
      </trkpt>
      <trkpt lat="43.17715" lon="-0.77911">
        <ele>216.39</ele>
        <time>2024-05-29T22:57:15.100Z</time>
      </trkpt>
      <trkpt lat="43.17689" lon="-0.77998">
        <ele>216.49</ele>
        <time>2024-05-29T22:57:23.805Z</time>
      </trkpt>
      <trkpt lat="43.17665" lon="-0.78028">
        <ele>216.59</ele>
        <time>2024-05-29T22:57:32.516Z</time>
      </trkpt>
      <trkpt lat="43.17652" lon="-0.78049">
        <ele>216.71</ele>
        <time>2024-05-29T22:57:41.231Z</time>
      </trkpt>
      <trkpt lat="43.17642" lon="-0.78071">
        <ele>216.84</ele>
        <time>2024-05-29T22:57:49.949Z</time>
      </trkpt>
      <trkpt lat="43.17624" lon="-0.78118">
        <ele>217.08</ele>
        <time>2024-05-29T22:57:58.675Z</time>
      </trkpt>
      <trkpt lat="43.17595" lon="-0.78131">
        <ele>217.21</ele>
        <time>2024-05-29T22:58:07.406Z</time>
      </trkpt>
      <trkpt lat="43.17557" lon="-0.78155">
        <ele>217.22</ele>
        <time>2024-05-29T22:58:16.145Z</time>
      </trkpt>
      <trkpt lat="43.17503" lon="-0.782">
        <ele>217.26</ele>
        <time>2024-05-29T22:58:24.896Z</time>
      </trkpt>
      <trkpt lat="43.1749" lon="-0.78221">
        <ele>217.31</ele>
        <time>2024-05-29T22:58:33.651Z</time>
      </trkpt>
      <trkpt lat="43.17488" lon="-0.78226">
        <ele>217.37</ele>
        <time>2024-05-29T22:58:42.406Z</time>
      </trkpt>
      <trkpt lat="43.17476" lon="-0.78276">
        <ele>217.38</ele>
        <time>2024-05-29T22:58:51.169Z</time>
      </trkpt>
      <trkpt lat="43.1747" lon="-0.78292">
        <ele>217.39</ele>
        <time>2024-05-29T22:58:59.934Z</time>
      </trkpt>
      <trkpt lat="43.17446" lon="-0.78343">
        <ele>217.36</ele>
        <time>2024-05-29T22:59:08.707Z</time>
      </trkpt>
      <trkpt lat="43.1743" lon="-0.7836">
        <ele>217.4</ele>
        <time>2024-05-29T22:59:17.484Z</time>
      </trkpt>
      <trkpt lat="43.17403" lon="-0.78385">
        <ele>217.44</ele>
        <time>2024-05-29T22:59:26.267Z</time>
      </trkpt>
      <trkpt lat="43.17289" lon="-0.78611">
        <ele>217.57</ele>
        <time>2024-05-29T22:59:35.087Z</time>
      </trkpt>
      <trkpt lat="43.17277" lon="-0.78647">
        <ele>217.67</ele>
        <time>2024-05-29T22:59:43.913Z</time>
      </trkpt>
      <trkpt lat="43.17237" lon="-0.7875">
        <ele>217.67</ele>
        <time>2024-05-29T22:59:52.755Z</time>
      </trkpt>
      <trkpt lat="43.17194" lon="-0.78832">
        <ele>217.91</ele>
        <time>2024-05-29T23:00:01.610Z</time>
      </trkpt>
      <trkpt lat="43.17176" lon="-0.78858">
        <ele>218.02</ele>
        <time>2024-05-29T23:00:10.470Z</time>
      </trkpt>
      <trkpt lat="43.17127" lon="-0.78916">
        <ele>218.24</ele>
        <time>2024-05-29T23:00:19.342Z</time>
      </trkpt>
      <trkpt lat="43.17105" lon="-0.78939">
        <ele>218.45</ele>
        <time>2024-05-29T23:00:28.220Z</time>
      </trkpt>
      <trkpt lat="43.17065" lon="-0.78967">
        <ele>218.63</ele>
        <time>2024-05-29T23:00:37.106Z</time>
      </trkpt>
      <trkpt lat="43.17042" lon="-0.78987">
        <ele>218.8</ele>
        <time>2024-05-29T23:00:45.997Z</time>
      </trkpt>
      <trkpt lat="43.16994" lon="-0.79035">
        <ele>219.12</ele>
        <time>2024-05-29T23:00:54.899Z</time>
      </trkpt>
      <trkpt lat="43.16973" lon="-0.79052">
        <ele>219.32</ele>
        <time>2024-05-29T23:01:03.806Z</time>
      </trkpt>
      <trkpt lat="43.16957" lon="-0.79069">
        <ele>219.51</ele>
        <time>2024-05-29T23:01:12.716Z</time>
      </trkpt>
      <trkpt lat="43.16949" lon="-0.79091">
        <ele>219.75</ele>
        <time>2024-05-29T23:01:21.630Z</time>
      </trkpt>
      <trkpt lat="43.16937" lon="-0.79138">
        <ele>220.02</ele>
        <time>2024-05-29T23:01:30.550Z</time>
      </trkpt>
      <trkpt lat="43.16911" lon="-0.79203">
        <ele>220.4</ele>
        <time>2024-05-29T23:01:39.481Z</time>
      </trkpt>
      <trkpt lat="43.16892" lon="-0.79264">
        <ele>220.67</ele>
        <time>2024-05-29T23:01:48.421Z</time>
      </trkpt>
      <trkpt lat="43.16881" lon="-0.79272">
        <ele>220.66</ele>
        <time>2024-05-29T23:01:57.363Z</time>
      </trkpt>
      <trkpt lat="43.16858" lon="-0.79266">
        <ele>220.45</ele>
        <time>2024-05-29T23:02:06.309Z</time>
      </trkpt>
      <trkpt lat="43.16835" lon="-0.79274">
        <ele>220.37</ele>
        <time>2024-05-29T23:02:15.260Z</time>
      </trkpt>
      <trkpt lat="43.16803" lon="-0.79305">
        <ele>220.53</ele>
        <time>2024-05-29T23:02:24.218Z</time>
      </trkpt>
      <trkpt lat="43.16767" lon="-0.79318">
        <ele>220.61</ele>
        <time>2024-05-29T23:02:33.183Z</time>
      </trkpt>
      <trkpt lat="43.16708" lon="-0.79327">
        <ele>220.62</ele>
        <time>2024-05-29T23:02:42.159Z</time>
      </trkpt>
      <trkpt lat="43.16679" lon="-0.79343">
        <ele>220.76</ele>
        <time>2024-05-29T23:02:51.141Z</time>
      </trkpt>
      <trkpt lat="43.16649" lon="-0.79347">
        <ele>220.99</ele>
        <time>2024-05-29T23:03:00.128Z</time>
      </trkpt>
      <trkpt lat="43.16487" lon="-0.79465">
        <ele>221.54</ele>
        <time>2024-05-29T23:03:09.150Z</time>
      </trkpt>
      <trkpt lat="43.16373" lon="-0.79532">
        <ele>222</ele>
        <time>2024-05-29T23:03:18.195Z</time>
      </trkpt>
      <trkpt lat="43.16326" lon="-0.79595">
        <ele>222.52</ele>
        <time>2024-05-29T23:03:27.252Z</time>
      </trkpt>
      <trkpt lat="43.16301" lon="-0.79663">
        <ele>223.32</ele>
        <time>2024-05-29T23:03:36.319Z</time>
      </trkpt>
      <trkpt lat="43.16289" lon="-0.79683">
        <ele>224.22</ele>
        <time>2024-05-29T23:03:45.390Z</time>
      </trkpt>
      <trkpt lat="43.16237" lon="-0.79709">
        <ele>225.27</ele>
        <time>2024-05-29T23:03:54.471Z</time>
      </trkpt>
      <trkpt lat="43.16213" lon="-0.79737">
        <ele>226.57</ele>
        <time>2024-05-29T23:04:03.558Z</time>
      </trkpt>
      <trkpt lat="43.16201" lon="-0.79745">
        <ele>228.19</ele>
        <time>2024-05-29T23:04:12.647Z</time>
      </trkpt>
      <trkpt lat="43.16178" lon="-0.79767">
        <ele>230.15</ele>
        <time>2024-05-29T23:04:21.742Z</time>
      </trkpt>
      <trkpt lat="43.16167" lon="-0.79786">
        <ele>232.36</ele>
        <time>2024-05-29T23:04:30.840Z</time>
      </trkpt>
      <trkpt lat="43.16166" lon="-0.79808">
        <ele>234.86</ele>
        <time>2024-05-29T23:04:39.941Z</time>
      </trkpt>
      <trkpt lat="43.16177" lon="-0.79847">
        <ele>237.63</ele>
        <time>2024-05-29T23:04:49.048Z</time>
      </trkpt>
      <trkpt lat="43.16175" lon="-0.7987">
        <ele>240.76</ele>
        <time>2024-05-29T23:04:58.158Z</time>
      </trkpt>
      <trkpt lat="43.16161" lon="-0.79884">
        <ele>244.31</ele>
        <time>2024-05-29T23:05:07.271Z</time>
      </trkpt>
      <trkpt lat="43.1609" lon="-0.79913">
        <ele>248.61</ele>
        <time>2024-05-29T23:05:16.398Z</time>
      </trkpt>
      <trkpt lat="43.16004" lon="-0.79957">
        <ele>253.09</ele>
        <time>2024-05-29T23:05:25.542Z</time>
      </trkpt>
      <trkpt lat="43.15958" lon="-0.80004">
        <ele>257.49</ele>
        <time>2024-05-29T23:05:34.697Z</time>
      </trkpt>
      <trkpt lat="43.15901" lon="-0.80005">
        <ele>262.81</ele>
        <time>2024-05-29T23:05:43.862Z</time>
      </trkpt>
      <trkpt lat="43.15891" lon="-0.80049">
        <ele>267.77</ele>
        <time>2024-05-29T23:05:53.033Z</time>
      </trkpt>
      <trkpt lat="43.15867" lon="-0.8008">
        <ele>273.18</ele>
        <time>2024-05-29T23:06:02.211Z</time>
      </trkpt>
      <trkpt lat="43.15827" lon="-0.80118">
        <ele>279.08</ele>
        <time>2024-05-29T23:06:11.398Z</time>
      </trkpt>
      <trkpt lat="43.15802" lon="-0.80167">
        <ele>285.19</ele>
        <time>2024-05-29T23:06:20.593Z</time>
      </trkpt>
      <trkpt lat="43.15763" lon="-0.80214">
        <ele>291.78</ele>
        <time>2024-05-29T23:06:29.797Z</time>
      </trkpt>
      <trkpt lat="43.1572" lon="-0.80249">
        <ele>298.4</ele>
        <time>2024-05-29T23:06:39.011Z</time>
      </trkpt>
      <trkpt lat="43.15689" lon="-0.80256">
        <ele>304.95</ele>
        <time>2024-05-29T23:06:48.231Z</time>
      </trkpt>
      <trkpt lat="43.15671" lon="-0.80253">
        <ele>311.65</ele>
        <time>2024-05-29T23:06:57.454Z</time>
      </trkpt>
      <trkpt lat="43.15656" lon="-0.80212">
        <ele>318.45</ele>
        <time>2024-05-29T23:07:06.683Z</time>
      </trkpt>
      <trkpt lat="43.15564" lon="-0.80143">
        <ele>325.17</ele>
        <time>2024-05-29T23:07:15.932Z</time>
      </trkpt>
      <trkpt lat="43.15453" lon="-0.80098">
        <ele>332.53</ele>
        <time>2024-05-29T23:07:25.202Z</time>
      </trkpt>
      <trkpt lat="43.15398" lon="-0.80102">
        <ele>339.85</ele>
        <time>2024-05-29T23:07:34.483Z</time>
      </trkpt>
      <trkpt lat="43.15257" lon="-0.80163">
        <ele>347.89</ele>
        <time>2024-05-29T23:07:43.791Z</time>
      </trkpt>
      <trkpt lat="43.15152" lon="-0.80182">
        <ele>356.44</ele>
        <time>2024-05-29T23:07:53.119Z</time>
      </trkpt>
      <trkpt lat="43.15133" lon="-0.80175">
        <ele>363.94</ele>
        <time>2024-05-29T23:08:02.450Z</time>
      </trkpt>
      <trkpt lat="43.15109" lon="-0.80158">
        <ele>371.44</ele>
        <time>2024-05-29T23:08:11.786Z</time>
      </trkpt>
      <trkpt lat="43.15085" lon="-0.80153">
        <ele>379.03</ele>
        <time>2024-05-29T23:08:21.127Z</time>
      </trkpt>
      <trkpt lat="43.14909" lon="-0.80234">
        <ele>387.96</ele>
        <time>2024-05-29T23:08:30.502Z</time>
      </trkpt>
      <trkpt lat="43.14867" lon="-0.80239">
        <ele>395.79</ele>
        <time>2024-05-29T23:08:39.885Z</time>
      </trkpt>
      <trkpt lat="43.14847" lon="-0.80222">
        <ele>403.28</ele>
        <time>2024-05-29T23:08:49.273Z</time>
      </trkpt>
      <trkpt lat="43.14848" lon="-0.80088">
        <ele>410.54</ele>
        <time>2024-05-29T23:08:58.679Z</time>
      </trkpt>
      <trkpt lat="43.14832" lon="-0.80019">
        <ele>417.96</ele>
        <time>2024-05-29T23:09:08.095Z</time>
      </trkpt>
      <trkpt lat="43.14827" lon="-0.79964">
        <ele>425.14</ele>
        <time>2024-05-29T23:09:17.518Z</time>
      </trkpt>
      <trkpt lat="43.14832" lon="-0.79866">
        <ele>432.14</ele>
        <time>2024-05-29T23:09:26.955Z</time>
      </trkpt>
      <trkpt lat="43.14826" lon="-0.79854">
        <ele>438.67</ele>
        <time>2024-05-29T23:09:36.394Z</time>
      </trkpt>
      <trkpt lat="43.14818" lon="-0.79854">
        <ele>444.97</ele>
        <time>2024-05-29T23:09:45.834Z</time>
      </trkpt>
      <trkpt lat="43.14642" lon="-0.7995">
        <ele>452.42</ele>
        <time>2024-05-29T23:09:55.309Z</time>
      </trkpt>
      <trkpt lat="43.14547" lon="-0.80029">
        <ele>458.5</ele>
        <time>2024-05-29T23:10:04.805Z</time>
      </trkpt>
      <trkpt lat="43.14525" lon="-0.80065">
        <ele>463.93</ele>
        <time>2024-05-29T23:10:14.308Z</time>
      </trkpt>
      <trkpt lat="43.14458" lon="-0.8024">
        <ele>469.45</ele>
        <time>2024-05-29T23:10:23.837Z</time>
      </trkpt>
      <trkpt lat="43.14457" lon="-0.80357">
        <ele>474.16</ele>
        <time>2024-05-29T23:10:33.382Z</time>
      </trkpt>
      <trkpt lat="43.14449" lon="-0.8041">
        <ele>478.39</ele>
        <time>2024-05-29T23:10:42.935Z</time>
      </trkpt>
      <trkpt lat="43.14406" lon="-0.80486">
        <ele>482.49</ele>
        <time>2024-05-29T23:10:52.501Z</time>
      </trkpt>
      <trkpt lat="43.14399" lon="-0.80536">
        <ele>485.73</ele>
        <time>2024-05-29T23:11:02.074Z</time>
      </trkpt>
      <trkpt lat="43.14399" lon="-0.80572">
        <ele>488.59</ele>
        <time>2024-05-29T23:11:11.652Z</time>
      </trkpt>
      <trkpt lat="43.14432" lon="-0.80718">
        <ele>491.4</ele>
        <time>2024-05-29T23:11:21.251Z</time>
      </trkpt>
      <trkpt lat="43.14425" lon="-0.80761">
        <ele>493.68</ele>
        <time>2024-05-29T23:11:30.856Z</time>
      </trkpt>
      <trkpt lat="43.14414" lon="-0.80778">
        <ele>495.19</ele>
        <time>2024-05-29T23:11:40.464Z</time>
      </trkpt>
      <trkpt lat="43.14405" lon="-0.80789">
        <ele>496.23</ele>
        <time>2024-05-29T23:11:50.074Z</time>
      </trkpt>
      <trkpt lat="43.14386" lon="-0.80819">
        <ele>496.81</ele>
        <time>2024-05-29T23:11:59.689Z</time>
      </trkpt>
      <trkpt lat="43.14376" lon="-0.80848">
        <ele>496.93</ele>
        <time>2024-05-29T23:12:09.309Z</time>
      </trkpt>
      <trkpt lat="43.14379" lon="-0.80914">
        <ele>496.61</ele>
        <time>2024-05-29T23:12:18.938Z</time>
      </trkpt>
      <trkpt lat="43.14409" lon="-0.81045">
        <ele>496.03</ele>
        <time>2024-05-29T23:12:28.585Z</time>
      </trkpt>
      <trkpt lat="43.14408" lon="-0.81134">
        <ele>495.22</ele>
        <time>2024-05-29T23:12:38.244Z</time>
      </trkpt>
      <trkpt lat="43.14406" lon="-0.8114">
        <ele>494.14</ele>
        <time>2024-05-29T23:12:47.904Z</time>
      </trkpt>
      <trkpt lat="43.14401" lon="-0.81156">
        <ele>492.85</ele>
        <time>2024-05-29T23:12:57.567Z</time>
      </trkpt>
      <trkpt lat="43.14347" lon="-0.81216">
        <ele>490.99</ele>
        <time>2024-05-29T23:13:07.243Z</time>
      </trkpt>
      <trkpt lat="43.14323" lon="-0.81249">
        <ele>489.17</ele>
        <time>2024-05-29T23:13:16.925Z</time>
      </trkpt>
      <trkpt lat="43.14311" lon="-0.8127">
        <ele>487.19</ele>
        <time>2024-05-29T23:13:26.611Z</time>
      </trkpt>
      <trkpt lat="43.14305" lon="-0.81295">
        <ele>485.15</ele>
        <time>2024-05-29T23:13:36.300Z</time>
      </trkpt>
      <trkpt lat="43.14306" lon="-0.81311">
        <ele>483.12</ele>
        <time>2024-05-29T23:13:45.991Z</time>
      </trkpt>
      <trkpt lat="43.1431" lon="-0.81335">
        <ele>480.99</ele>
        <time>2024-05-29T23:13:55.686Z</time>
      </trkpt>
      <trkpt lat="43.1432" lon="-0.81363">
        <ele>478.91</ele>
        <time>2024-05-29T23:14:05.385Z</time>
      </trkpt>
      <trkpt lat="43.14366" lon="-0.81447">
        <ele>477.02</ele>
        <time>2024-05-29T23:14:15.098Z</time>
      </trkpt>
      <trkpt lat="43.1437" lon="-0.81459">
        <ele>474.97</ele>
        <time>2024-05-29T23:14:24.813Z</time>
      </trkpt>
      <trkpt lat="43.1437" lon="-0.81469">
        <ele>472.92</ele>
        <time>2024-05-29T23:14:34.529Z</time>
      </trkpt>
      <trkpt lat="43.14363" lon="-0.81483">
        <ele>470.8</ele>
        <time>2024-05-29T23:14:44.248Z</time>
      </trkpt>
      <trkpt lat="43.14342" lon="-0.81536">
        <ele>468.46</ele>
        <time>2024-05-29T23:14:53.975Z</time>
      </trkpt>
      <trkpt lat="43.14339" lon="-0.81553">
        <ele>466.69</ele>
        <time>2024-05-29T23:15:03.704Z</time>
      </trkpt>
      <trkpt lat="43.14341" lon="-0.8159">
        <ele>465.18</ele>
        <time>2024-05-29T23:15:13.438Z</time>
      </trkpt>
      <trkpt lat="43.14337" lon="-0.81604">
        <ele>463.8</ele>
        <time>2024-05-29T23:15:23.174Z</time>
      </trkpt>
      <trkpt lat="43.14293" lon="-0.81677">
        <ele>462.43</ele>
        <time>2024-05-29T23:15:32.923Z</time>
      </trkpt>
      <trkpt lat="43.14282" lon="-0.81703">
        <ele>461.44</ele>
        <time>2024-05-29T23:15:42.676Z</time>
      </trkpt>
      <trkpt lat="43.14275" lon="-0.81738">
        <ele>460.66</ele>
        <time>2024-05-29T23:15:52.434Z</time>
      </trkpt>
      <trkpt lat="43.14275" lon="-0.81782">
        <ele>459.82</ele>
        <time>2024-05-29T23:16:02.198Z</time>
      </trkpt>
      <trkpt lat="43.1428" lon="-0.81804">
        <ele>459.24</ele>
        <time>2024-05-29T23:16:11.965Z</time>
      </trkpt>
      <trkpt lat="43.14319" lon="-0.81845">
        <ele>459.32</ele>
        <time>2024-05-29T23:16:21.742Z</time>
      </trkpt>
      <trkpt lat="43.14328" lon="-0.81866">
        <ele>459.12</ele>
        <time>2024-05-29T23:16:31.522Z</time>
      </trkpt>
      <trkpt lat="43.14329" lon="-0.81891">
        <ele>458.94</ele>
        <time>2024-05-29T23:16:41.305Z</time>
      </trkpt>
      <trkpt lat="43.1432" lon="-0.81934">
        <ele>458.88</ele>
        <time>2024-05-29T23:16:51.094Z</time>
      </trkpt>
      <trkpt lat="43.14322" lon="-0.82037">
        <ele>459.51</ele>
        <time>2024-05-29T23:17:00.897Z</time>
      </trkpt>
      <trkpt lat="43.14326" lon="-0.821">
        <ele>460.34</ele>
        <time>2024-05-29T23:17:10.709Z</time>
      </trkpt>
      <trkpt lat="43.14314" lon="-0.82117">
        <ele>460.89</ele>
        <time>2024-05-29T23:17:20.524Z</time>
      </trkpt>
      <trkpt lat="43.14296" lon="-0.82139">
        <ele>461.41</ele>
        <time>2024-05-29T23:17:30.344Z</time>
      </trkpt>
      <trkpt lat="43.14281" lon="-0.82166">
        <ele>462.1</ele>
        <time>2024-05-29T23:17:40.168Z</time>
      </trkpt>
      <trkpt lat="43.14272" lon="-0.82181">
        <ele>462.92</ele>
        <time>2024-05-29T23:17:49.995Z</time>
      </trkpt>
      <trkpt lat="43.14243" lon="-0.82203">
        <ele>463.65</ele>
        <time>2024-05-29T23:17:59.828Z</time>
      </trkpt>
      <trkpt lat="43.14219" lon="-0.82229">
        <ele>464.84</ele>
        <time>2024-05-29T23:18:09.667Z</time>
      </trkpt>
      <trkpt lat="43.14208" lon="-0.82251">
        <ele>465.92</ele>
        <time>2024-05-29T23:18:19.510Z</time>
      </trkpt>
      <trkpt lat="43.14201" lon="-0.82282">
        <ele>467</ele>
        <time>2024-05-29T23:18:29.357Z</time>
      </trkpt>
      <trkpt lat="43.14199" lon="-0.82303">
        <ele>468.27</ele>
        <time>2024-05-29T23:18:39.207Z</time>
      </trkpt>
      <trkpt lat="43.14203" lon="-0.82332">
        <ele>469.69</ele>
        <time>2024-05-29T23:18:49.061Z</time>
      </trkpt>
      <trkpt lat="43.14241" lon="-0.82451">
        <ele>471.54</ele>
        <time>2024-05-29T23:18:58.933Z</time>
      </trkpt>
      <trkpt lat="43.14247" lon="-0.82481">
        <ele>473.09</ele>
        <time>2024-05-29T23:19:08.809Z</time>
      </trkpt>
      <trkpt lat="43.14248" lon="-0.82491">
        <ele>474.7</ele>
        <time>2024-05-29T23:19:18.686Z</time>
      </trkpt>
      <trkpt lat="43.14246" lon="-0.82503">
        <ele>476.33</ele>
        <time>2024-05-29T23:19:28.565Z</time>
      </trkpt>
      <trkpt lat="43.14229" lon="-0.8253">
        <ele>477.77</ele>
        <time>2024-05-29T23:19:38.449Z</time>
      </trkpt>
      <trkpt lat="43.14205" lon="-0.82595">
        <ele>479.48</ele>
        <time>2024-05-29T23:19:48.343Z</time>
      </trkpt>
      <trkpt lat="43.14193" lon="-0.82645">
        <ele>481.45</ele>
        <time>2024-05-29T23:19:58.244Z</time>
      </trkpt>
      <trkpt lat="43.14184" lon="-0.82664">
        <ele>483.14</ele>
        <time>2024-05-29T23:20:08.148Z</time>
      </trkpt>
      <trkpt lat="43.14178" lon="-0.82686">
        <ele>484.99</ele>
        <time>2024-05-29T23:20:18.055Z</time>
      </trkpt>
      <trkpt lat="43.14176" lon="-0.82709">
        <ele>486.92</ele>
        <time>2024-05-29T23:20:27.965Z</time>
      </trkpt>
      <trkpt lat="43.14198" lon="-0.82869">
        <ele>489.31</ele>
        <time>2024-05-29T23:20:37.897Z</time>
      </trkpt>
      <trkpt lat="43.14195" lon="-0.82892">
        <ele>491.23</ele>
        <time>2024-05-29T23:20:47.833Z</time>
      </trkpt>
      <trkpt lat="43.1419" lon="-0.82899">
        <ele>492.96</ele>
        <time>2024-05-29T23:20:57.770Z</time>
      </trkpt>
      <trkpt lat="43.14183" lon="-0.82901">
        <ele>494.58</ele>
        <time>2024-05-29T23:21:07.708Z</time>
      </trkpt>
      <trkpt lat="43.14169" lon="-0.82901">
        <ele>496.14</ele>
        <time>2024-05-29T23:21:17.649Z</time>
      </trkpt>
      <trkpt lat="43.14153" lon="-0.82903">
        <ele>497.66</ele>
        <time>2024-05-29T23:21:27.593Z</time>
      </trkpt>
      <trkpt lat="43.14137" lon="-0.82914">
        <ele>499.22</ele>
        <time>2024-05-29T23:21:37.540Z</time>
      </trkpt>
      <trkpt lat="43.1412" lon="-0.8294">
        <ele>500.87</ele>
        <time>2024-05-29T23:21:47.492Z</time>
      </trkpt>
      <trkpt lat="43.14113" lon="-0.82946">
        <ele>502.14</ele>
        <time>2024-05-29T23:21:57.445Z</time>
      </trkpt>
      <trkpt lat="43.14089" lon="-0.8294">
        <ele>503.09</ele>
        <time>2024-05-29T23:22:07.403Z</time>
      </trkpt>
      <trkpt lat="43.14076" lon="-0.82942">
        <ele>504.09</ele>
        <time>2024-05-29T23:22:17.363Z</time>
      </trkpt>
      <trkpt lat="43.14047" lon="-0.82959">
        <ele>505.01</ele>
        <time>2024-05-29T23:22:27.329Z</time>
      </trkpt>
      <trkpt lat="43.1403" lon="-0.82965">
        <ele>505.68</ele>
        <time>2024-05-29T23:22:37.299Z</time>
      </trkpt>
      <trkpt lat="43.14016" lon="-0.82983">
        <ele>506.29</ele>
        <time>2024-05-29T23:22:47.272Z</time>
      </trkpt>
      <trkpt lat="43.14008" lon="-0.83011">
        <ele>506.81</ele>
        <time>2024-05-29T23:22:57.249Z</time>
      </trkpt>
      <trkpt lat="43.14" lon="-0.8305">
        <ele>507.36</ele>
        <time>2024-05-29T23:23:07.232Z</time>
      </trkpt>
      <trkpt lat="43.13996" lon="-0.83057">
        <ele>507.47</ele>
        <time>2024-05-29T23:23:17.216Z</time>
      </trkpt>
      <trkpt lat="43.1399" lon="-0.8306">
        <ele>507.33</ele>
        <time>2024-05-29T23:23:27.201Z</time>
      </trkpt>
      <trkpt lat="43.13967" lon="-0.83058">
        <ele>506.85</ele>
        <time>2024-05-29T23:23:37.190Z</time>
      </trkpt>
      <trkpt lat="43.13947" lon="-0.83066">
        <ele>506.5</ele>
        <time>2024-05-29T23:23:47.183Z</time>
      </trkpt>
      <trkpt lat="43.13929" lon="-0.83065">
        <ele>505.88</ele>
        <time>2024-05-29T23:23:57.180Z</time>
      </trkpt>
      <trkpt lat="43.13911" lon="-0.83056">
        <ele>504.82</ele>
        <time>2024-05-29T23:24:07.180Z</time>
      </trkpt>
      <trkpt lat="43.13898" lon="-0.83057">
        <ele>503.89</ele>
        <time>2024-05-29T23:24:17.183Z</time>
      </trkpt>
      <trkpt lat="43.13865" lon="-0.8308">
        <ele>503.02</ele>
        <time>2024-05-29T23:24:27.193Z</time>
      </trkpt>
      <trkpt lat="43.13848" lon="-0.83097">
        <ele>501.91</ele>
        <time>2024-05-29T23:24:37.206Z</time>
      </trkpt>
      <trkpt lat="43.13833" lon="-0.8312">
        <ele>500.63</ele>
        <time>2024-05-29T23:24:47.224Z</time>
      </trkpt>
      <trkpt lat="43.13817" lon="-0.83167">
        <ele>499.44</ele>
        <time>2024-05-29T23:24:57.249Z</time>
      </trkpt>
      <trkpt lat="43.13805" lon="-0.8321">
        <ele>497.96</ele>
        <time>2024-05-29T23:25:07.280Z</time>
      </trkpt>
      <trkpt lat="43.13779" lon="-0.83289">
        <ele>496.2</ele>
        <time>2024-05-29T23:25:17.323Z</time>
      </trkpt>
      <trkpt lat="43.13766" lon="-0.83303">
        <ele>494.18</ele>
        <time>2024-05-29T23:25:27.369Z</time>
      </trkpt>
      <trkpt lat="43.13748" lon="-0.8331">
        <ele>491.87</ele>
        <time>2024-05-29T23:25:37.418Z</time>
      </trkpt>
      <trkpt lat="43.13728" lon="-0.83299">
        <ele>489.23</ele>
        <time>2024-05-29T23:25:47.471Z</time>
      </trkpt>
      <trkpt lat="43.13694" lon="-0.83269">
        <ele>486.12</ele>
        <time>2024-05-29T23:25:57.532Z</time>
      </trkpt>
      <trkpt lat="43.13663" lon="-0.83257">
        <ele>483.18</ele>
        <time>2024-05-29T23:26:07.599Z</time>
      </trkpt>
      <trkpt lat="43.13639" lon="-0.83257">
        <ele>480.44</ele>
        <time>2024-05-29T23:26:17.670Z</time>
      </trkpt>
      <trkpt lat="43.13577" lon="-0.83281">
        <ele>477.86</ele>
        <time>2024-05-29T23:26:27.753Z</time>
      </trkpt>
      <trkpt lat="43.13544" lon="-0.83297">
        <ele>475.09</ele>
        <time>2024-05-29T23:26:37.843Z</time>
      </trkpt>
      <trkpt lat="43.13509" lon="-0.83303">
        <ele>471.99</ele>
        <time>2024-05-29T23:26:47.939Z</time>
      </trkpt>
      <trkpt lat="43.135" lon="-0.83309">
        <ele>469.11</ele>
        <time>2024-05-29T23:26:58.037Z</time>
      </trkpt>
      <trkpt lat="43.13489" lon="-0.8332">
        <ele>466.25</ele>
        <time>2024-05-29T23:27:08.138Z</time>
      </trkpt>
      <trkpt lat="43.1346" lon="-0.83368">
        <ele>463.37</ele>
        <time>2024-05-29T23:27:18.247Z</time>
      </trkpt>
      <trkpt lat="43.13447" lon="-0.83377">
        <ele>460.16</ele>
        <time>2024-05-29T23:27:28.359Z</time>
      </trkpt>
      <trkpt lat="43.13437" lon="-0.83379">
        <ele>456.96</ele>
        <time>2024-05-29T23:27:38.473Z</time>
      </trkpt>
      <trkpt lat="43.13408" lon="-0.83375">
        <ele>453.6</ele>
        <time>2024-05-29T23:27:48.592Z</time>
      </trkpt>
      <trkpt lat="43.1338" lon="-0.83366">
        <ele>450.29</ele>
        <time>2024-05-29T23:27:58.717Z</time>
      </trkpt>
      <trkpt lat="43.1337" lon="-0.83366">
        <ele>447.38</ele>
        <time>2024-05-29T23:28:08.844Z</time>
      </trkpt>
      <trkpt lat="43.13356" lon="-0.83398">
        <ele>444.55</ele>
        <time>2024-05-29T23:28:18.976Z</time>
      </trkpt>
      <trkpt lat="43.13333" lon="-0.83465">
        <ele>441.65</ele>
        <time>2024-05-29T23:28:29.118Z</time>
      </trkpt>
      <trkpt lat="43.13322" lon="-0.83505">
        <ele>438.59</ele>
        <time>2024-05-29T23:28:39.266Z</time>
      </trkpt>
      <trkpt lat="43.13296" lon="-0.83573">
        <ele>435.34</ele>
        <time>2024-05-29T23:28:49.424Z</time>
      </trkpt>
      <trkpt lat="43.13278" lon="-0.83598">
        <ele>432.51</ele>
        <time>2024-05-29T23:28:59.587Z</time>
      </trkpt>
      <trkpt lat="43.13255" lon="-0.83636">
        <ele>429.74</ele>
        <time>2024-05-29T23:29:09.756Z</time>
      </trkpt>
      <trkpt lat="43.13225" lon="-0.83702">
        <ele>426.61</ele>
        <time>2024-05-29T23:29:19.936Z</time>
      </trkpt>
      <trkpt lat="43.13208" lon="-0.83729">
        <ele>423.76</ele>
        <time>2024-05-29T23:29:30.121Z</time>
      </trkpt>
      <trkpt lat="43.13194" lon="-0.83742">
        <ele>421</ele>
        <time>2024-05-29T23:29:40.309Z</time>
      </trkpt>
      <trkpt lat="43.13175" lon="-0.83746">
        <ele>418.29</ele>
        <time>2024-05-29T23:29:50.501Z</time>
      </trkpt>
      <trkpt lat="43.13141" lon="-0.83702">
        <ele>415.96</ele>
        <time>2024-05-29T23:30:00.701Z</time>
      </trkpt>
      <trkpt lat="43.13115" lon="-0.83695">
        <ele>413.22</ele>
        <time>2024-05-29T23:30:10.906Z</time>
      </trkpt>
      <trkpt lat="43.13082" lon="-0.83704">
        <ele>410.54</ele>
        <time>2024-05-29T23:30:21.118Z</time>
      </trkpt>
      <trkpt lat="43.12996" lon="-0.8385">
        <ele>406.82</ele>
        <time>2024-05-29T23:30:31.355Z</time>
      </trkpt>
      <trkpt lat="43.12936" lon="-0.83863">
        <ele>404.55</ele>
        <time>2024-05-29T23:30:41.603Z</time>
      </trkpt>
      <trkpt lat="43.1292" lon="-0.83898">
        <ele>401.71</ele>
        <time>2024-05-29T23:30:51.857Z</time>
      </trkpt>
      <trkpt lat="43.12889" lon="-0.83929">
        <ele>398.81</ele>
        <time>2024-05-29T23:31:02.118Z</time>
      </trkpt>
      <trkpt lat="43.12845" lon="-0.83933">
        <ele>396.27</ele>
        <time>2024-05-29T23:31:12.387Z</time>
      </trkpt>
      <trkpt lat="43.12805" lon="-0.83914">
        <ele>394.39</ele>
        <time>2024-05-29T23:31:22.664Z</time>
      </trkpt>
      <trkpt lat="43.12779" lon="-0.83914">
        <ele>392.03</ele>
        <time>2024-05-29T23:31:32.946Z</time>
      </trkpt>
      <trkpt lat="43.12725" lon="-0.83948">
        <ele>389.26</ele>
        <time>2024-05-29T23:31:43.239Z</time>
      </trkpt>
      <trkpt lat="43.12675" lon="-0.83991">
        <ele>386.25</ele>
        <time>2024-05-29T23:31:53.543Z</time>
      </trkpt>
      <trkpt lat="43.12621" lon="-0.84056">
        <ele>383.2</ele>
        <time>2024-05-29T23:32:03.860Z</time>
      </trkpt>
      <trkpt lat="43.12603" lon="-0.84099">
        <ele>380.88</ele>
        <time>2024-05-29T23:32:14.184Z</time>
      </trkpt>
      <trkpt lat="43.12493" lon="-0.8424">
        <ele>378.36</ele>
        <time>2024-05-29T23:32:24.536Z</time>
      </trkpt>
      <trkpt lat="43.1247" lon="-0.84271">
        <ele>376.03</ele>
        <time>2024-05-29T23:32:34.894Z</time>
      </trkpt>
      <trkpt lat="43.12437" lon="-0.84326">
        <ele>373.79</ele>
        <time>2024-05-29T23:32:45.262Z</time>
      </trkpt>
      <trkpt lat="43.12423" lon="-0.8442">
        <ele>371.51</ele>
        <time>2024-05-29T23:32:55.643Z</time>
      </trkpt>
      <trkpt lat="43.12409" lon="-0.84453">
        <ele>369.22</ele>
        <time>2024-05-29T23:33:06.029Z</time>
      </trkpt>
      <trkpt lat="43.12378" lon="-0.8449">
        <ele>366.7</ele>
        <time>2024-05-29T23:33:16.423Z</time>
      </trkpt>
      <trkpt lat="43.12286" lon="-0.84552">
        <ele>363.76</ele>
        <time>2024-05-29T23:33:26.836Z</time>
      </trkpt>
      <trkpt lat="43.12228" lon="-0.84613">
        <ele>360.99</ele>
        <time>2024-05-29T23:33:37.263Z</time>
      </trkpt>
      <trkpt lat="43.12211" lon="-0.84657">
        <ele>358.33</ele>
        <time>2024-05-29T23:33:47.696Z</time>
      </trkpt>
      <trkpt lat="43.12193" lon="-0.84737">
        <ele>355.5</ele>
        <time>2024-05-29T23:33:58.141Z</time>
      </trkpt>
      <trkpt lat="43.12178" lon="-0.84812">
        <ele>352.9</ele>
        <time>2024-05-29T23:34:08.596Z</time>
      </trkpt>
      <trkpt lat="43.12167" lon="-0.84854">
        <ele>350.23</ele>
        <time>2024-05-29T23:34:19.058Z</time>
      </trkpt>
      <trkpt lat="43.12158" lon="-0.84872">
        <ele>347.59</ele>
        <time>2024-05-29T23:34:29.522Z</time>
      </trkpt>
      <trkpt lat="43.12119" lon="-0.84918">
        <ele>344.84</ele>
        <time>2024-05-29T23:34:39.996Z</time>
      </trkpt>
      <trkpt lat="43.12066" lon="-0.8496">
        <ele>342.03</ele>
        <time>2024-05-29T23:34:50.481Z</time>
      </trkpt>
      <trkpt lat="43.12019" lon="-0.85018">
        <ele>338.61</ele>
        <time>2024-05-29T23:35:00.978Z</time>
      </trkpt>
      <trkpt lat="43.11991" lon="-0.85053">
        <ele>335.4</ele>
        <time>2024-05-29T23:35:11.482Z</time>
      </trkpt>
      <trkpt lat="43.11979" lon="-0.85071">
        <ele>332.47</ele>
        <time>2024-05-29T23:35:21.990Z</time>
      </trkpt>
      <trkpt lat="43.11944" lon="-0.85108">
        <ele>329.37</ele>
        <time>2024-05-29T23:35:32.506Z</time>
      </trkpt>
      <trkpt lat="43.11873" lon="-0.85172">
        <ele>326.34</ele>
        <time>2024-05-29T23:35:43.038Z</time>
      </trkpt>
      <trkpt lat="43.11848" lon="-0.852">
        <ele>323.59</ele>
        <time>2024-05-29T23:35:53.576Z</time>
      </trkpt>
      <trkpt lat="43.11841" lon="-0.85212">
        <ele>320.9</ele>
        <time>2024-05-29T23:36:04.116Z</time>
      </trkpt>
      <trkpt lat="43.1183" lon="-0.85247">
        <ele>318.16</ele>
        <time>2024-05-29T23:36:14.661Z</time>
      </trkpt>
      <trkpt lat="43.11821" lon="-0.85296">
        <ele>315.4</ele>
        <time>2024-05-29T23:36:25.213Z</time>
      </trkpt>
      <trkpt lat="43.11814" lon="-0.85314">
        <ele>312.8</ele>
        <time>2024-05-29T23:36:35.768Z</time>
      </trkpt>
      <trkpt lat="43.11788" lon="-0.8536">
        <ele>310.31</ele>
        <time>2024-05-29T23:36:46.331Z</time>
      </trkpt>
      <trkpt lat="43.11774" lon="-0.85394">
        <ele>307.81</ele>
        <time>2024-05-29T23:36:56.899Z</time>
      </trkpt>
      <trkpt lat="43.11766" lon="-0.85427">
        <ele>305.28</ele>
        <time>2024-05-29T23:37:07.472Z</time>
      </trkpt>
      <trkpt lat="43.1175" lon="-0.85543">
        <ele>302.72</ele>
        <time>2024-05-29T23:37:18.061Z</time>
      </trkpt>
      <trkpt lat="43.11746" lon="-0.85595">
        <ele>300.04</ele>
        <time>2024-05-29T23:37:28.657Z</time>
      </trkpt>
      <trkpt lat="43.11742" lon="-0.85629">
        <ele>297.56</ele>
        <time>2024-05-29T23:37:39.258Z</time>
      </trkpt>
      <trkpt lat="43.11733" lon="-0.85663">
        <ele>295.05</ele>
        <time>2024-05-29T23:37:49.863Z</time>
      </trkpt>
      <trkpt lat="43.11712" lon="-0.85712">
        <ele>292.55</ele>
        <time>2024-05-29T23:38:00.476Z</time>
      </trkpt>
      <trkpt lat="43.11687" lon="-0.85754">
        <ele>290.08</ele>
        <time>2024-05-29T23:38:11.097Z</time>
      </trkpt>
      <trkpt lat="43.11671" lon="-0.85827">
        <ele>287.54</ele>
        <time>2024-05-29T23:38:21.728Z</time>
      </trkpt>
      <trkpt lat="43.1166" lon="-0.85821">
        <ele>285.21</ele>
        <time>2024-05-29T23:38:32.361Z</time>
      </trkpt>
      <trkpt lat="43.11639" lon="-0.85794">
        <ele>282.88</ele>
        <time>2024-05-29T23:38:43.000Z</time>
      </trkpt>
      <trkpt lat="43.11631" lon="-0.85793">
        <ele>280.66</ele>
        <time>2024-05-29T23:38:53.640Z</time>
      </trkpt>
      <trkpt lat="43.11627" lon="-0.85801">
        <ele>278.51</ele>
        <time>2024-05-29T23:39:04.281Z</time>
      </trkpt>
      <trkpt lat="43.11648" lon="-0.85862">
        <ele>276.51</ele>
        <time>2024-05-29T23:39:14.932Z</time>
      </trkpt>
      <trkpt lat="43.11648" lon="-0.8587">
        <ele>274.46</ele>
        <time>2024-05-29T23:39:25.584Z</time>
      </trkpt>
      <trkpt lat="43.11646" lon="-0.85875">
        <ele>272.38</ele>
        <time>2024-05-29T23:39:36.236Z</time>
      </trkpt>
      <trkpt lat="43.1164" lon="-0.85879">
        <ele>270.28</ele>
        <time>2024-05-29T23:39:46.890Z</time>
      </trkpt>
      <trkpt lat="43.11636" lon="-0.85878">
        <ele>268.25</ele>
        <time>2024-05-29T23:39:57.544Z</time>
      </trkpt>
      <trkpt lat="43.1163" lon="-0.85873">
        <ele>266.24</ele>
        <time>2024-05-29T23:40:08.200Z</time>
      </trkpt>
      <trkpt lat="43.11615" lon="-0.85849">
        <ele>264.09</ele>
        <time>2024-05-29T23:40:18.860Z</time>
      </trkpt>
      <trkpt lat="43.11598" lon="-0.85813">
        <ele>262.09</ele>
        <time>2024-05-29T23:40:29.526Z</time>
      </trkpt>
      <trkpt lat="43.11594" lon="-0.85809">
        <ele>260.02</ele>
        <time>2024-05-29T23:40:40.193Z</time>
      </trkpt>
      <trkpt lat="43.11589" lon="-0.85808">
        <ele>257.93</ele>
        <time>2024-05-29T23:40:50.861Z</time>
      </trkpt>
      <trkpt lat="43.11586" lon="-0.8581">
        <ele>255.85</ele>
        <time>2024-05-29T23:41:01.529Z</time>
      </trkpt>
      <trkpt lat="43.11584" lon="-0.85815">
        <ele>253.8</ele>
        <time>2024-05-29T23:41:12.198Z</time>
      </trkpt>
      <trkpt lat="43.11584" lon="-0.85831">
        <ele>251.64</ele>
        <time>2024-05-29T23:41:22.869Z</time>
      </trkpt>
      <trkpt lat="43.11593" lon="-0.8587">
        <ele>249.54</ele>
        <time>2024-05-29T23:41:33.546Z</time>
      </trkpt>
      <trkpt lat="43.1162" lon="-0.86006">
        <ele>246.97</ele>
        <time>2024-05-29T23:41:44.242Z</time>
      </trkpt>
      <trkpt lat="43.11641" lon="-0.86069">
        <ele>244.86</ele>
        <time>2024-05-29T23:41:54.947Z</time>
      </trkpt>
      <trkpt lat="43.11655" lon="-0.86098">
        <ele>242.93</ele>
        <time>2024-05-29T23:42:05.657Z</time>
      </trkpt>
      <trkpt lat="43.11657" lon="-0.86117">
        <ele>240.97</ele>
        <time>2024-05-29T23:42:16.370Z</time>
      </trkpt>
      <trkpt lat="43.11653" lon="-0.86147">
        <ele>239.11</ele>
        <time>2024-05-29T23:42:27.087Z</time>
      </trkpt>
      <trkpt lat="43.11637" lon="-0.86201">
        <ele>237.51</ele>
        <time>2024-05-29T23:42:37.812Z</time>
      </trkpt>
      <trkpt lat="43.11634" lon="-0.86205">
        <ele>236.15</ele>
        <time>2024-05-29T23:42:48.538Z</time>
      </trkpt>
      <trkpt lat="43.11606" lon="-0.86217">
        <ele>235.01</ele>
        <time>2024-05-29T23:42:59.269Z</time>
      </trkpt>
      <trkpt lat="43.11599" lon="-0.86212">
        <ele>233.95</ele>
        <time>2024-05-29T23:43:10.002Z</time>
      </trkpt>
      <trkpt lat="43.11583" lon="-0.86219">
        <ele>232.99</ele>
        <time>2024-05-29T23:43:20.738Z</time>
      </trkpt>
      <trkpt lat="43.11572" lon="-0.86229">
        <ele>232.15</ele>
        <time>2024-05-29T23:43:31.476Z</time>
      </trkpt>
      <trkpt lat="43.1155" lon="-0.86242">
        <ele>231.29</ele>
        <time>2024-05-29T23:43:42.219Z</time>
      </trkpt>
      <trkpt lat="43.11528" lon="-0.86217">
        <ele>230.67</ele>
        <time>2024-05-29T23:43:52.967Z</time>
      </trkpt>
      <trkpt lat="43.11508" lon="-0.86202">
        <ele>230.17</ele>
        <time>2024-05-29T23:44:03.719Z</time>
      </trkpt>
      <trkpt lat="43.11441" lon="-0.8616">
        <ele>230.02</ele>
        <time>2024-05-29T23:44:14.485Z</time>
      </trkpt>
      <trkpt lat="43.11433" lon="-0.86161">
        <ele>229.65</ele>
        <time>2024-05-29T23:44:25.252Z</time>
      </trkpt>
      <trkpt lat="43.11374" lon="-0.8613">
        <ele>229.57</ele>
        <time>2024-05-29T23:44:36.031Z</time>
      </trkpt>
      <trkpt lat="43.1134" lon="-0.86116">
        <ele>229.29</ele>
        <time>2024-05-29T23:44:46.817Z</time>
      </trkpt>
      <trkpt lat="43.11291" lon="-0.86091">
        <ele>229</ele>
        <time>2024-05-29T23:44:57.613Z</time>
      </trkpt>
      <trkpt lat="43.11272" lon="-0.86087">
        <ele>228.93</ele>
        <time>2024-05-29T23:45:08.412Z</time>
      </trkpt>
      <trkpt lat="43.11245" lon="-0.86073">
        <ele>228.96</ele>
        <time>2024-05-29T23:45:19.216Z</time>
      </trkpt>
      <trkpt lat="43.11234" lon="-0.86062">
        <ele>229.08</ele>
        <time>2024-05-29T23:45:30.023Z</time>
      </trkpt>
      <trkpt lat="43.11221" lon="-0.86053">
        <ele>229.26</ele>
        <time>2024-05-29T23:45:40.833Z</time>
      </trkpt>
      <trkpt lat="43.11195" lon="-0.86044">
        <ele>229.21</ele>
        <time>2024-05-29T23:45:51.648Z</time>
      </trkpt>
      <trkpt lat="43.11166" lon="-0.86029">
        <ele>229.39</ele>
        <time>2024-05-29T23:46:02.469Z</time>
      </trkpt>
      <trkpt lat="43.11108" lon="-0.86007">
        <ele>229.63</ele>
        <time>2024-05-29T23:46:13.301Z</time>
      </trkpt>
      <trkpt lat="43.11068" lon="-0.86009">
        <ele>229.69</ele>
        <time>2024-05-29T23:46:24.140Z</time>
      </trkpt>
      <trkpt lat="43.11015" lon="-0.86005">
        <ele>229.84</ele>
        <time>2024-05-29T23:46:34.989Z</time>
      </trkpt>
      <trkpt lat="43.11" lon="-0.86001">
        <ele>230.14</ele>
        <time>2024-05-29T23:46:45.841Z</time>
      </trkpt>
      <trkpt lat="43.10933" lon="-0.85968">
        <ele>230.15</ele>
        <time>2024-05-29T23:46:56.706Z</time>
      </trkpt>
      <trkpt lat="43.10928" lon="-0.85964">
        <ele>230.35</ele>
        <time>2024-05-29T23:47:07.572Z</time>
      </trkpt>
      <trkpt lat="43.10906" lon="-0.85946">
        <ele>230.57</ele>
        <time>2024-05-29T23:47:18.443Z</time>
      </trkpt>
      <trkpt lat="43.10841" lon="-0.85885">
        <ele>230.89</ele>
        <time>2024-05-29T23:47:29.329Z</time>
      </trkpt>
      <trkpt lat="43.10826" lon="-0.85868">
        <ele>231.12</ele>
        <time>2024-05-29T23:47:40.218Z</time>
      </trkpt>
      <trkpt lat="43.10809" lon="-0.85845">
        <ele>231.46</ele>
        <time>2024-05-29T23:47:51.112Z</time>
      </trkpt>
      <trkpt lat="43.108" lon="-0.85852">
        <ele>231.39</ele>
        <time>2024-05-29T23:48:02.008Z</time>
      </trkpt>
      <trkpt lat="43.10788" lon="-0.85852">
        <ele>231.36</ele>
        <time>2024-05-29T23:48:12.906Z</time>
      </trkpt>
      <trkpt lat="43.10777" lon="-0.85848">
        <ele>231.34</ele>
        <time>2024-05-29T23:48:23.806Z</time>
      </trkpt>
      <trkpt lat="43.10753" lon="-0.85828">
        <ele>231.4</ele>
        <time>2024-05-29T23:48:34.711Z</time>
      </trkpt>
      <trkpt lat="43.10729" lon="-0.85804">
        <ele>231.48</ele>
        <time>2024-05-29T23:48:45.622Z</time>
      </trkpt>
      <trkpt lat="43.10721" lon="-0.85801">
        <ele>231.61</ele>
        <time>2024-05-29T23:48:56.534Z</time>
      </trkpt>
      <trkpt lat="43.10709" lon="-0.85802">
        <ele>231.71</ele>
        <time>2024-05-29T23:49:07.449Z</time>
      </trkpt>
      <trkpt lat="43.10692" lon="-0.85813">
        <ele>231.91</ele>
        <time>2024-05-29T23:49:18.367Z</time>
      </trkpt>
      <trkpt lat="43.10649" lon="-0.8585">
        <ele>232.2</ele>
        <time>2024-05-29T23:49:29.294Z</time>
      </trkpt>
      <trkpt lat="43.10608" lon="-0.85894">
        <ele>232.61</ele>
        <time>2024-05-29T23:49:40.231Z</time>
      </trkpt>
      <trkpt lat="43.10575" lon="-0.85919">
        <ele>233.02</ele>
        <time>2024-05-29T23:49:51.175Z</time>
      </trkpt>
      <trkpt lat="43.10547" lon="-0.85933">
        <ele>233.38</ele>
        <time>2024-05-29T23:50:02.125Z</time>
      </trkpt>
      <trkpt lat="43.10488" lon="-0.85953">
        <ele>233.86</ele>
        <time>2024-05-29T23:50:13.086Z</time>
      </trkpt>
      <trkpt lat="43.10439" lon="-0.85976">
        <ele>234.42</ele>
        <time>2024-05-29T23:50:24.057Z</time>
      </trkpt>
      <trkpt lat="43.1038" lon="-0.85988">
        <ele>235.3</ele>
        <time>2024-05-29T23:50:35.039Z</time>
      </trkpt>
      <trkpt lat="43.10288" lon="-0.86015">
        <ele>235.89</ele>
        <time>2024-05-29T23:50:46.038Z</time>
      </trkpt>
      <trkpt lat="43.10061" lon="-0.86095">
        <ele>236.21</ele>
        <time>2024-05-29T23:50:57.081Z</time>
      </trkpt>
      <trkpt lat="43.10027" lon="-0.86109">
        <ele>236.75</ele>
        <time>2024-05-29T23:51:08.131Z</time>
      </trkpt>
      <trkpt lat="43.10005" lon="-0.86121">
        <ele>237.33</ele>
        <time>2024-05-29T23:51:19.185Z</time>
      </trkpt>
      <trkpt lat="43.09977" lon="-0.86142">
        <ele>237.78</ele>
        <time>2024-05-29T23:51:30.245Z</time>
      </trkpt>
      <trkpt lat="43.09957" lon="-0.86163">
        <ele>238.12</ele>
        <time>2024-05-29T23:51:41.310Z</time>
      </trkpt>
      <trkpt lat="43.09904" lon="-0.86229">
        <ele>238.7</ele>
        <time>2024-05-29T23:51:52.388Z</time>
      </trkpt>
      <trkpt lat="43.09893" lon="-0.8624">
        <ele>239.13</ele>
        <time>2024-05-29T23:52:03.468Z</time>
      </trkpt>
      <trkpt lat="43.09883" lon="-0.86246">
        <ele>239.59</ele>
        <time>2024-05-29T23:52:14.550Z</time>
      </trkpt>
      <trkpt lat="43.0987" lon="-0.86252">
        <ele>239.99</ele>
        <time>2024-05-29T23:52:25.635Z</time>
      </trkpt>
      <trkpt lat="43.09848" lon="-0.86255">
        <ele>240.41</ele>
        <time>2024-05-29T23:52:36.724Z</time>
      </trkpt>
      <trkpt lat="43.09785" lon="-0.86253">
        <ele>240.67</ele>
        <time>2024-05-29T23:52:47.825Z</time>
      </trkpt>
      <trkpt lat="43.09752" lon="-0.86259">
        <ele>240.89</ele>
        <time>2024-05-29T23:52:58.932Z</time>
      </trkpt>
      <trkpt lat="43.09737" lon="-0.86266">
        <ele>241.16</ele>
        <time>2024-05-29T23:53:10.042Z</time>
      </trkpt>
      <trkpt lat="43.0972" lon="-0.86277">
        <ele>241.47</ele>
        <time>2024-05-29T23:53:21.156Z</time>
      </trkpt>
      <trkpt lat="43.09708" lon="-0.86289">
        <ele>241.79</ele>
        <time>2024-05-29T23:53:32.272Z</time>
      </trkpt>
      <trkpt lat="43.09685" lon="-0.86316">
        <ele>242.12</ele>
        <time>2024-05-29T23:53:43.394Z</time>
      </trkpt>
      <trkpt lat="43.09663" lon="-0.86357">
        <ele>242.57</ele>
        <time>2024-05-29T23:53:54.523Z</time>
      </trkpt>
      <trkpt lat="43.09573" lon="-0.86541">
        <ele>242.85</ele>
        <time>2024-05-29T23:54:05.682Z</time>
      </trkpt>
      <trkpt lat="43.09556" lon="-0.86573">
        <ele>243.31</ele>
        <time>2024-05-29T23:54:16.846Z</time>
      </trkpt>
      <trkpt lat="43.09539" lon="-0.86599">
        <ele>243.79</ele>
        <time>2024-05-29T23:54:28.015Z</time>
      </trkpt>
      <trkpt lat="43.09522" lon="-0.8662">
        <ele>244.32</ele>
        <time>2024-05-29T23:54:39.188Z</time>
      </trkpt>
      <trkpt lat="43.09487" lon="-0.86654">
        <ele>245.05</ele>
        <time>2024-05-29T23:54:50.369Z</time>
      </trkpt>
      <trkpt lat="43.09453" lon="-0.86677">
        <ele>245.64</ele>
        <time>2024-05-29T23:55:01.557Z</time>
      </trkpt>
      <trkpt lat="43.09257" lon="-0.86792">
        <ele>246.62</ele>
        <time>2024-05-29T23:55:12.785Z</time>
      </trkpt>
      <trkpt lat="43.0917" lon="-0.8685">
        <ele>247.41</ele>
        <time>2024-05-29T23:55:24.031Z</time>
      </trkpt>
      <trkpt lat="43.08996" lon="-0.86973">
        <ele>248.6</ele>
        <time>2024-05-29T23:55:35.314Z</time>
      </trkpt>
      <trkpt lat="43.08936" lon="-0.87009">
        <ele>249.75</ele>
        <time>2024-05-29T23:55:46.609Z</time>
      </trkpt>
      <trkpt lat="43.08878" lon="-0.8704">
        <ele>250.61</ele>
        <time>2024-05-29T23:55:57.915Z</time>
      </trkpt>
      <trkpt lat="43.0874" lon="-0.87093">
        <ele>251.29</ele>
        <time>2024-05-29T23:56:09.248Z</time>
      </trkpt>
      <trkpt lat="43.08644" lon="-0.87136">
        <ele>251.63</ele>
        <time>2024-05-29T23:56:20.600Z</time>
      </trkpt>
      <trkpt lat="43.0862" lon="-0.87144">
        <ele>252.17</ele>
        <time>2024-05-29T23:56:31.956Z</time>
      </trkpt>
      <trkpt lat="43.08581" lon="-0.87151">
        <ele>252.54</ele>
        <time>2024-05-29T23:56:43.320Z</time>
      </trkpt>
      <trkpt lat="43.08529" lon="-0.87151">
        <ele>252.83</ele>
        <time>2024-05-29T23:56:54.693Z</time>
      </trkpt>
      <trkpt lat="43.08492" lon="-0.87154">
        <ele>253.4</ele>
        <time>2024-05-29T23:57:06.073Z</time>
      </trkpt>
      <trkpt lat="43.08435" lon="-0.87161">
        <ele>253.85</ele>
        <time>2024-05-29T23:57:17.464Z</time>
      </trkpt>
      <trkpt lat="43.08377" lon="-0.87161">
        <ele>254.32</ele>
        <time>2024-05-29T23:57:28.866Z</time>
      </trkpt>
      <trkpt lat="43.08311" lon="-0.87172">
        <ele>254.38</ele>
        <time>2024-05-29T23:57:40.280Z</time>
      </trkpt>
      <trkpt lat="43.0828" lon="-0.87171">
        <ele>254.63</ele>
        <time>2024-05-29T23:57:51.700Z</time>
      </trkpt>
      <trkpt lat="43.08237" lon="-0.87158">
        <ele>254.87</ele>
        <time>2024-05-29T23:58:03.128Z</time>
      </trkpt>
      <trkpt lat="43.08113" lon="-0.87145">
        <ele>255.41</ele>
        <time>2024-05-29T23:58:14.579Z</time>
      </trkpt>
      <trkpt lat="43.08078" lon="-0.87148">
        <ele>255.92</ele>
        <time>2024-05-29T23:58:26.037Z</time>
      </trkpt>
      <trkpt lat="43.08056" lon="-0.87145">
        <ele>256.29</ele>
        <time>2024-05-29T23:58:37.499Z</time>
      </trkpt>
      <trkpt lat="43.07994" lon="-0.87112">
        <ele>257.09</ele>
        <time>2024-05-29T23:58:48.973Z</time>
      </trkpt>
      <trkpt lat="43.07979" lon="-0.87107">
        <ele>257.51</ele>
        <time>2024-05-29T23:59:00.450Z</time>
      </trkpt>
      <trkpt lat="43.07912" lon="-0.87112">
        <ele>257.36</ele>
        <time>2024-05-29T23:59:11.940Z</time>
      </trkpt>
      <trkpt lat="43.07898" lon="-0.8711">
        <ele>257.58</ele>
        <time>2024-05-29T23:59:23.432Z</time>
      </trkpt>
      <trkpt lat="43.07831" lon="-0.87091">
        <ele>257.81</ele>
        <time>2024-05-29T23:59:34.937Z</time>
      </trkpt>
      <trkpt lat="43.07827" lon="-0.8709">
        <ele>258.12</ele>
        <time>2024-05-29T23:59:46.443Z</time>
      </trkpt>
      <trkpt lat="43.07815" lon="-0.87094">
        <ele>258.3</ele>
        <time>2024-05-29T23:59:57.951Z</time>
      </trkpt>
      <trkpt lat="43.07808" lon="-0.87098">
        <ele>258.62</ele>
        <time>2024-05-30T00:00:09.460Z</time>
      </trkpt>
      <trkpt lat="43.07798" lon="-0.8711">
        <ele>258.96</ele>
        <time>2024-05-30T00:00:20.972Z</time>
      </trkpt>
      <trkpt lat="43.07785" lon="-0.87129">
        <ele>259.39</ele>
        <time>2024-05-30T00:00:32.487Z</time>
      </trkpt>
      <trkpt lat="43.07779" lon="-0.87119">
        <ele>259.92</ele>
        <time>2024-05-30T00:00:44.004Z</time>
      </trkpt>
      <trkpt lat="43.07768" lon="-0.8709">
        <ele>260.5</ele>
        <time>2024-05-30T00:00:55.526Z</time>
      </trkpt>
      <trkpt lat="43.07755" lon="-0.87069">
        <ele>261.14</ele>
        <time>2024-05-30T00:01:07.051Z</time>
      </trkpt>
      <trkpt lat="43.0775" lon="-0.87059">
        <ele>261.82</ele>
        <time>2024-05-30T00:01:18.578Z</time>
      </trkpt>
      <trkpt lat="43.07742" lon="-0.8702">
        <ele>262.53</ele>
        <time>2024-05-30T00:01:30.111Z</time>
      </trkpt>
      <trkpt lat="43.07737" lon="-0.8698">
        <ele>263.29</ele>
        <time>2024-05-30T00:01:41.649Z</time>
      </trkpt>
      <trkpt lat="43.07739" lon="-0.86967">
        <ele>264.06</ele>
        <time>2024-05-30T00:01:53.189Z</time>
      </trkpt>
      <trkpt lat="43.07758" lon="-0.86918">
        <ele>265.46</ele>
        <time>2024-05-30T00:02:04.737Z</time>
      </trkpt>
      <trkpt lat="43.07763" lon="-0.86878">
        <ele>266.69</ele>
        <time>2024-05-30T00:02:16.290Z</time>
      </trkpt>
      <trkpt lat="43.07779" lon="-0.86833">
        <ele>267.68</ele>
        <time>2024-05-30T00:02:27.850Z</time>
      </trkpt>
      <trkpt lat="43.07782" lon="-0.86817">
        <ele>268.38</ele>
        <time>2024-05-30T00:02:39.412Z</time>
      </trkpt>
      <trkpt lat="43.07781" lon="-0.8681">
        <ele>269</ele>
        <time>2024-05-30T00:02:50.975Z</time>
      </trkpt>
      <trkpt lat="43.07775" lon="-0.86794">
        <ele>269.47</ele>
        <time>2024-05-30T00:03:02.541Z</time>
      </trkpt>
      <trkpt lat="43.07767" lon="-0.86784">
        <ele>269.89</ele>
        <time>2024-05-30T00:03:14.109Z</time>
      </trkpt>
      <trkpt lat="43.07754" lon="-0.86772">
        <ele>270.42</ele>
        <time>2024-05-30T00:03:25.679Z</time>
      </trkpt>
      <trkpt lat="43.07734" lon="-0.86728">
        <ele>271.01</ele>
        <time>2024-05-30T00:03:37.257Z</time>
      </trkpt>
      <trkpt lat="43.0773" lon="-0.86711">
        <ele>271.51</ele>
        <time>2024-05-30T00:03:48.837Z</time>
      </trkpt>
      <trkpt lat="43.07733" lon="-0.86675">
        <ele>271.55</ele>
        <time>2024-05-30T00:04:00.422Z</time>
      </trkpt>
      <trkpt lat="43.0773" lon="-0.86608">
        <ele>271.82</ele>
        <time>2024-05-30T00:04:12.016Z</time>
      </trkpt>
      <trkpt lat="43.07737" lon="-0.86585">
        <ele>272.06</ele>
        <time>2024-05-30T00:04:23.613Z</time>
      </trkpt>
      <trkpt lat="43.07736" lon="-0.86578">
        <ele>272.46</ele>
        <time>2024-05-30T00:04:35.211Z</time>
      </trkpt>
      <trkpt lat="43.07714" lon="-0.86529">
        <ele>272.91</ele>
        <time>2024-05-30T00:04:46.817Z</time>
      </trkpt>
      <trkpt lat="43.07708" lon="-0.86502">
        <ele>273.3</ele>
        <time>2024-05-30T00:04:58.427Z</time>
      </trkpt>
      <trkpt lat="43.07708" lon="-0.86468">
        <ele>273.66</ele>
        <time>2024-05-30T00:05:10.042Z</time>
      </trkpt>
      <trkpt lat="43.07725" lon="-0.86383">
        <ele>274.63</ele>
        <time>2024-05-30T00:05:21.669Z</time>
      </trkpt>
      <trkpt lat="43.0773" lon="-0.86304">
        <ele>275.33</ele>
        <time>2024-05-30T00:05:33.307Z</time>
      </trkpt>
      <trkpt lat="43.07728" lon="-0.86284">
        <ele>275.88</ele>
        <time>2024-05-30T00:05:44.947Z</time>
      </trkpt>
      <trkpt lat="43.07711" lon="-0.86214">
        <ele>276.36</ele>
        <time>2024-05-30T00:05:56.597Z</time>
      </trkpt>
      <trkpt lat="43.07708" lon="-0.86196">
        <ele>276.72</ele>
        <time>2024-05-30T00:06:08.250Z</time>
      </trkpt>
      <trkpt lat="43.07703" lon="-0.86008">
        <ele>277.06</ele>
        <time>2024-05-30T00:06:19.929Z</time>
      </trkpt>
      <trkpt lat="43.07698" lon="-0.8597">
        <ele>277.5</ele>
        <time>2024-05-30T00:06:31.613Z</time>
      </trkpt>
      <trkpt lat="43.07675" lon="-0.85897">
        <ele>277.59</ele>
        <time>2024-05-30T00:06:43.308Z</time>
      </trkpt>
      <trkpt lat="43.07668" lon="-0.85884">
        <ele>277.94</ele>
        <time>2024-05-30T00:06:55.005Z</time>
      </trkpt>
      <trkpt lat="43.07646" lon="-0.8586">
        <ele>278.45</ele>
        <time>2024-05-30T00:07:06.707Z</time>
      </trkpt>
      <trkpt lat="43.0764" lon="-0.85848">
        <ele>278.87</ele>
        <time>2024-05-30T00:07:18.411Z</time>
      </trkpt>
      <trkpt lat="43.07636" lon="-0.85837">
        <ele>279.25</ele>
        <time>2024-05-30T00:07:30.117Z</time>
      </trkpt>
      <trkpt lat="43.07632" lon="-0.85803">
        <ele>279.54</ele>
        <time>2024-05-30T00:07:41.827Z</time>
      </trkpt>
      <trkpt lat="43.07626" lon="-0.85786">
        <ele>279.83</ele>
        <time>2024-05-30T00:07:53.540Z</time>
      </trkpt>
      <trkpt lat="43.07617" lon="-0.85769">
        <ele>280.23</ele>
        <time>2024-05-30T00:08:05.256Z</time>
      </trkpt>
      <trkpt lat="43.07614" lon="-0.85754">
        <ele>280.46</ele>
        <time>2024-05-30T00:08:16.974Z</time>
      </trkpt>
      <trkpt lat="43.07616" lon="-0.85742">
        <ele>280.63</ele>
        <time>2024-05-30T00:08:28.694Z</time>
      </trkpt>
      <trkpt lat="43.07623" lon="-0.85714">
        <ele>280.65</ele>
        <time>2024-05-30T00:08:40.418Z</time>
      </trkpt>
      <trkpt lat="43.07646" lon="-0.8567">
        <ele>280.82</ele>
        <time>2024-05-30T00:08:52.149Z</time>
      </trkpt>
      <trkpt lat="43.0765" lon="-0.85649">
        <ele>281.02</ele>
        <time>2024-05-30T00:09:03.883Z</time>
      </trkpt>
      <trkpt lat="43.07647" lon="-0.85623">
        <ele>281.31</ele>
        <time>2024-05-30T00:09:15.621Z</time>
      </trkpt>
      <trkpt lat="43.07629" lon="-0.8557">
        <ele>281.73</ele>
        <time>2024-05-30T00:09:27.367Z</time>
      </trkpt>
      <trkpt lat="43.07626" lon="-0.85538">
        <ele>282.21</ele>
        <time>2024-05-30T00:09:39.117Z</time>
      </trkpt>
      <trkpt lat="43.07628" lon="-0.85525">
        <ele>282.47</ele>
        <time>2024-05-30T00:09:50.869Z</time>
      </trkpt>
      <trkpt lat="43.0764" lon="-0.85493">
        <ele>282.59</ele>
        <time>2024-05-30T00:10:02.626Z</time>
      </trkpt>
      <trkpt lat="43.07643" lon="-0.85466">
        <ele>282.75</ele>
        <time>2024-05-30T00:10:14.386Z</time>
      </trkpt>
      <trkpt lat="43.07682" lon="-0.85397">
        <ele>283.1</ele>
        <time>2024-05-30T00:10:26.158Z</time>
      </trkpt>
      <trkpt lat="43.07691" lon="-0.85373">
        <ele>283.65</ele>
        <time>2024-05-30T00:10:37.934Z</time>
      </trkpt>
      <trkpt lat="43.07699" lon="-0.85328">
        <ele>284.16</ele>
        <time>2024-05-30T00:10:49.716Z</time>
      </trkpt>
      <trkpt lat="43.07707" lon="-0.85294">
        <ele>284.56</ele>
        <time>2024-05-30T00:11:01.503Z</time>
      </trkpt>
      <trkpt lat="43.0771" lon="-0.85211">
        <ele>285.02</ele>
        <time>2024-05-30T00:11:13.302Z</time>
      </trkpt>
      <trkpt lat="43.07704" lon="-0.85152">
        <ele>285.42</ele>
        <time>2024-05-30T00:11:25.109Z</time>
      </trkpt>
      <trkpt lat="43.07705" lon="-0.85133">
        <ele>285.89</ele>
        <time>2024-05-30T00:11:36.918Z</time>
      </trkpt>
      <trkpt lat="43.0771" lon="-0.85101">
        <ele>286.38</ele>
        <time>2024-05-30T00:11:48.732Z</time>
      </trkpt>
      <trkpt lat="43.07714" lon="-0.85089">
        <ele>286.91</ele>
        <time>2024-05-30T00:12:00.548Z</time>
      </trkpt>
      <trkpt lat="43.07719" lon="-0.85079">
        <ele>287.47</ele>
        <time>2024-05-30T00:12:12.365Z</time>
      </trkpt>
      <trkpt lat="43.07747" lon="-0.85039">
        <ele>288.11</ele>
        <time>2024-05-30T00:12:24.190Z</time>
      </trkpt>
      <trkpt lat="43.07778" lon="-0.85004">
        <ele>288.68</ele>
        <time>2024-05-30T00:12:36.022Z</time>
      </trkpt>
      <trkpt lat="43.07782" lon="-0.84953">
        <ele>289.46</ele>
        <time>2024-05-30T00:12:47.861Z</time>
      </trkpt>
      <trkpt lat="43.07782" lon="-0.84903">
        <ele>290.28</ele>
        <time>2024-05-30T00:12:59.707Z</time>
      </trkpt>
      <trkpt lat="43.07781" lon="-0.84894">
        <ele>290.95</ele>
        <time>2024-05-30T00:13:11.554Z</time>
      </trkpt>
      <trkpt lat="43.07779" lon="-0.84887">
        <ele>291.62</ele>
        <time>2024-05-30T00:13:23.402Z</time>
      </trkpt>
      <trkpt lat="43.07761" lon="-0.84861">
        <ele>292.31</ele>
        <time>2024-05-30T00:13:35.255Z</time>
      </trkpt>
      <trkpt lat="43.07751" lon="-0.84856">
        <ele>293</ele>
        <time>2024-05-30T00:13:47.110Z</time>
      </trkpt>
      <trkpt lat="43.07739" lon="-0.84857">
        <ele>293.68</ele>
        <time>2024-05-30T00:13:58.967Z</time>
      </trkpt>
      <trkpt lat="43.07724" lon="-0.84863">
        <ele>294.39</ele>
        <time>2024-05-30T00:14:10.827Z</time>
      </trkpt>
      <trkpt lat="43.0772" lon="-0.84866">
        <ele>295.09</ele>
        <time>2024-05-30T00:14:22.688Z</time>
      </trkpt>
      <trkpt lat="43.07709" lon="-0.84866">
        <ele>295.84</ele>
        <time>2024-05-30T00:14:34.551Z</time>
      </trkpt>
      <trkpt lat="43.07698" lon="-0.8486">
        <ele>296.63</ele>
        <time>2024-05-30T00:14:46.416Z</time>
      </trkpt>
      <trkpt lat="43.07694" lon="-0.84855">
        <ele>297.41</ele>
        <time>2024-05-30T00:14:58.282Z</time>
      </trkpt>
      <trkpt lat="43.07689" lon="-0.84843">
        <ele>298.25</ele>
        <time>2024-05-30T00:15:10.150Z</time>
      </trkpt>
      <trkpt lat="43.07668" lon="-0.84823">
        <ele>299.08</ele>
        <time>2024-05-30T00:15:22.023Z</time>
      </trkpt>
      <trkpt lat="43.07651" lon="-0.8481">
        <ele>299.86</ele>
        <time>2024-05-30T00:15:33.900Z</time>
      </trkpt>
      <trkpt lat="43.07634" lon="-0.84794">
        <ele>300.53</ele>
        <time>2024-05-30T00:15:45.780Z</time>
      </trkpt>
      <trkpt lat="43.07618" lon="-0.84774">
        <ele>301.2</ele>
        <time>2024-05-30T00:15:57.665Z</time>
      </trkpt>
      <trkpt lat="43.07595" lon="-0.8474">
        <ele>301.95</ele>
        <time>2024-05-30T00:16:09.556Z</time>
      </trkpt>
      <trkpt lat="43.07556" lon="-0.84671">
        <ele>302.8</ele>
        <time>2024-05-30T00:16:21.459Z</time>
      </trkpt>
      <trkpt lat="43.07527" lon="-0.84638">
        <ele>303.62</ele>
        <time>2024-05-30T00:16:33.369Z</time>
      </trkpt>
      <trkpt lat="43.07469" lon="-0.84529">
        <ele>304.5</ele>
        <time>2024-05-30T00:16:45.297Z</time>
      </trkpt>
      <trkpt lat="43.0745" lon="-0.84474">
        <ele>305.39</ele>
        <time>2024-05-30T00:16:57.233Z</time>
      </trkpt>
      <trkpt lat="43.07439" lon="-0.84452">
        <ele>306.19</ele>
        <time>2024-05-30T00:17:09.173Z</time>
      </trkpt>
      <trkpt lat="43.07406" lon="-0.8441">
        <ele>306.98</ele>
        <time>2024-05-30T00:17:21.121Z</time>
      </trkpt>
      <trkpt lat="43.07396" lon="-0.84393">
        <ele>307.72</ele>
        <time>2024-05-30T00:17:33.072Z</time>
      </trkpt>
      <trkpt lat="43.07388" lon="-0.84372">
        <ele>308.43</ele>
        <time>2024-05-30T00:17:45.027Z</time>
      </trkpt>
      <trkpt lat="43.07378" lon="-0.84328">
        <ele>309.3</ele>
        <time>2024-05-30T00:17:56.988Z</time>
      </trkpt>
      <trkpt lat="43.07373" lon="-0.84316">
        <ele>310</ele>
        <time>2024-05-30T00:18:08.951Z</time>
      </trkpt>
      <trkpt lat="43.07354" lon="-0.84289">
        <ele>310.72</ele>
        <time>2024-05-30T00:18:20.919Z</time>
      </trkpt>
      <trkpt lat="43.07349" lon="-0.84276">
        <ele>311.39</ele>
        <time>2024-05-30T00:18:32.889Z</time>
      </trkpt>
      <trkpt lat="43.07344" lon="-0.84251">
        <ele>312.11</ele>
        <time>2024-05-30T00:18:44.862Z</time>
      </trkpt>
      <trkpt lat="43.07345" lon="-0.8423">
        <ele>312.78</ele>
        <time>2024-05-30T00:18:56.838Z</time>
      </trkpt>
      <trkpt lat="43.0735" lon="-0.84205">
        <ele>313.52</ele>
        <time>2024-05-30T00:19:08.818Z</time>
      </trkpt>
      <trkpt lat="43.07348" lon="-0.84188">
        <ele>314.04</ele>
        <time>2024-05-30T00:19:20.800Z</time>
      </trkpt>
      <trkpt lat="43.07339" lon="-0.84145">
        <ele>314.48</ele>
        <time>2024-05-30T00:19:32.788Z</time>
      </trkpt>
      <trkpt lat="43.07341" lon="-0.84115">
        <ele>314.9</ele>
        <time>2024-05-30T00:19:44.780Z</time>
      </trkpt>
      <trkpt lat="43.07349" lon="-0.84086">
        <ele>315.34</ele>
        <time>2024-05-30T00:19:56.777Z</time>
      </trkpt>
      <trkpt lat="43.07349" lon="-0.84072">
        <ele>315.74</ele>
        <time>2024-05-30T00:20:08.776Z</time>
      </trkpt>
      <trkpt lat="43.07347" lon="-0.84055">
        <ele>316.1</ele>
        <time>2024-05-30T00:20:20.777Z</time>
      </trkpt>
      <trkpt lat="43.07334" lon="-0.84013">
        <ele>316.45</ele>
        <time>2024-05-30T00:20:32.784Z</time>
      </trkpt>
      <trkpt lat="43.07334" lon="-0.83997">
        <ele>316.88</ele>
        <time>2024-05-30T00:20:44.793Z</time>
      </trkpt>
      <trkpt lat="43.07342" lon="-0.83977">
        <ele>317.37</ele>
        <time>2024-05-30T00:20:56.805Z</time>
      </trkpt>
      <trkpt lat="43.07345" lon="-0.8396">
        <ele>317.83</ele>
        <time>2024-05-30T00:21:08.820Z</time>
      </trkpt>
      <trkpt lat="43.07345" lon="-0.83953">
        <ele>318.25</ele>
        <time>2024-05-30T00:21:20.836Z</time>
      </trkpt>
      <trkpt lat="43.07344" lon="-0.83945">
        <ele>318.73</ele>
        <time>2024-05-30T00:21:32.853Z</time>
      </trkpt>
      <trkpt lat="43.07335" lon="-0.83928">
        <ele>319.2</ele>
        <time>2024-05-30T00:21:44.873Z</time>
      </trkpt>
      <trkpt lat="43.0733" lon="-0.83912">
        <ele>319.73</ele>
        <time>2024-05-30T00:21:56.895Z</time>
      </trkpt>
      <trkpt lat="43.0733" lon="-0.83892">
        <ele>320.38</ele>
        <time>2024-05-30T00:22:08.920Z</time>
      </trkpt>
      <trkpt lat="43.07336" lon="-0.83859">
        <ele>321.09</ele>
        <time>2024-05-30T00:22:20.949Z</time>
      </trkpt>
      <trkpt lat="43.0734" lon="-0.83781">
        <ele>321.87</ele>
        <time>2024-05-30T00:22:32.989Z</time>
      </trkpt>
      <trkpt lat="43.07359" lon="-0.83755">
        <ele>322.85</ele>
        <time>2024-05-30T00:22:45.034Z</time>
      </trkpt>
      <trkpt lat="43.07417" lon="-0.83705">
        <ele>323.77</ele>
        <time>2024-05-30T00:22:57.092Z</time>
      </trkpt>
      <trkpt lat="43.07422" lon="-0.83687">
        <ele>324.88</ele>
        <time>2024-05-30T00:23:09.152Z</time>
      </trkpt>
      <trkpt lat="43.07424" lon="-0.8366">
        <ele>326.11</ele>
        <time>2024-05-30T00:23:21.216Z</time>
      </trkpt>
      <trkpt lat="43.07431" lon="-0.83629">
        <ele>327.44</ele>
        <time>2024-05-30T00:23:33.285Z</time>
      </trkpt>
      <trkpt lat="43.07435" lon="-0.83591">
        <ele>328.94</ele>
        <time>2024-05-30T00:23:45.359Z</time>
      </trkpt>
      <trkpt lat="43.07452" lon="-0.83516">
        <ele>330.43</ele>
        <time>2024-05-30T00:23:57.444Z</time>
      </trkpt>
      <trkpt lat="43.07455" lon="-0.83442">
        <ele>332.24</ele>
        <time>2024-05-30T00:24:09.539Z</time>
      </trkpt>
      <trkpt lat="43.07467" lon="-0.83402">
        <ele>333.94</ele>
        <time>2024-05-30T00:24:21.640Z</time>
      </trkpt>
      <trkpt lat="43.07469" lon="-0.83383">
        <ele>335.81</ele>
        <time>2024-05-30T00:24:33.743Z</time>
      </trkpt>
      <trkpt lat="43.07466" lon="-0.83355">
        <ele>337.74</ele>
        <time>2024-05-30T00:24:45.850Z</time>
      </trkpt>
      <trkpt lat="43.07468" lon="-0.83252">
        <ele>339.47</ele>
        <time>2024-05-30T00:24:57.971Z</time>
      </trkpt>
      <trkpt lat="43.0746" lon="-0.83217">
        <ele>341.64</ele>
        <time>2024-05-30T00:25:10.097Z</time>
      </trkpt>
      <trkpt lat="43.07463" lon="-0.83194">
        <ele>343.89</ele>
        <time>2024-05-30T00:25:22.226Z</time>
      </trkpt>
      <trkpt lat="43.07475" lon="-0.83133">
        <ele>346.32</ele>
        <time>2024-05-30T00:25:34.364Z</time>
      </trkpt>
      <trkpt lat="43.07486" lon="-0.83006">
        <ele>349.18</ele>
        <time>2024-05-30T00:25:46.519Z</time>
      </trkpt>
      <trkpt lat="43.07481" lon="-0.82961">
        <ele>351.81</ele>
        <time>2024-05-30T00:25:58.681Z</time>
      </trkpt>
      <trkpt lat="43.07482" lon="-0.82874">
        <ele>354.68</ele>
        <time>2024-05-30T00:26:10.854Z</time>
      </trkpt>
      <trkpt lat="43.07481" lon="-0.82853">
        <ele>357.47</ele>
        <time>2024-05-30T00:26:23.030Z</time>
      </trkpt>
      <trkpt lat="43.07477" lon="-0.82835">
        <ele>360.19</ele>
        <time>2024-05-30T00:26:35.209Z</time>
      </trkpt>
      <trkpt lat="43.07434" lon="-0.82733">
        <ele>363.35</ele>
        <time>2024-05-30T00:26:47.404Z</time>
      </trkpt>
      <trkpt lat="43.07409" lon="-0.8266">
        <ele>366.14</ele>
        <time>2024-05-30T00:26:59.610Z</time>
      </trkpt>
      <trkpt lat="43.07398" lon="-0.82637">
        <ele>368.84</ele>
        <time>2024-05-30T00:27:11.820Z</time>
      </trkpt>
      <trkpt lat="43.07374" lon="-0.82599">
        <ele>371.63</ele>
        <time>2024-05-30T00:27:24.036Z</time>
      </trkpt>
      <trkpt lat="43.07368" lon="-0.82585">
        <ele>374.19</ele>
        <time>2024-05-30T00:27:36.255Z</time>
      </trkpt>
      <trkpt lat="43.0737" lon="-0.82581">
        <ele>376.58</ele>
        <time>2024-05-30T00:27:48.474Z</time>
      </trkpt>
      <trkpt lat="43.07373" lon="-0.82577">
        <ele>378.91</ele>
        <time>2024-05-30T00:28:00.694Z</time>
      </trkpt>
      <trkpt lat="43.07378" lon="-0.82577">
        <ele>381.17</ele>
        <time>2024-05-30T00:28:12.915Z</time>
      </trkpt>
      <trkpt lat="43.07394" lon="-0.82595">
        <ele>383.37</ele>
        <time>2024-05-30T00:28:25.140Z</time>
      </trkpt>
      <trkpt lat="43.07399" lon="-0.82597">
        <ele>385.61</ele>
        <time>2024-05-30T00:28:37.366Z</time>
      </trkpt>
      <trkpt lat="43.07404" lon="-0.82595">
        <ele>387.83</ele>
        <time>2024-05-30T00:28:49.593Z</time>
      </trkpt>
      <trkpt lat="43.07426" lon="-0.82579">
        <ele>390.34</ele>
        <time>2024-05-30T00:29:01.824Z</time>
      </trkpt>
      <trkpt lat="43.07432" lon="-0.82578">
        <ele>392.62</ele>
        <time>2024-05-30T00:29:14.057Z</time>
      </trkpt>
      <trkpt lat="43.07436" lon="-0.82586">
        <ele>394.85</ele>
        <time>2024-05-30T00:29:26.291Z</time>
      </trkpt>
      <trkpt lat="43.07434" lon="-0.82611">
        <ele>396.99</ele>
        <time>2024-05-30T00:29:38.528Z</time>
      </trkpt>
      <trkpt lat="43.07434" lon="-0.82623">
        <ele>399.19</ele>
        <time>2024-05-30T00:29:50.767Z</time>
      </trkpt>
      <trkpt lat="43.07467" lon="-0.82692">
        <ele>401.55</ele>
        <time>2024-05-30T00:30:03.017Z</time>
      </trkpt>
      <trkpt lat="43.07496" lon="-0.82732">
        <ele>403.93</ele>
        <time>2024-05-30T00:30:15.275Z</time>
      </trkpt>
      <trkpt lat="43.07504" lon="-0.82738">
        <ele>406.18</ele>
        <time>2024-05-30T00:30:27.535Z</time>
      </trkpt>
      <trkpt lat="43.07514" lon="-0.8274">
        <ele>408.53</ele>
        <time>2024-05-30T00:30:39.796Z</time>
      </trkpt>
      <trkpt lat="43.07518" lon="-0.82737">
        <ele>410.84</ele>
        <time>2024-05-30T00:30:52.058Z</time>
      </trkpt>
      <trkpt lat="43.07566" lon="-0.82673">
        <ele>413.73</ele>
        <time>2024-05-30T00:31:04.333Z</time>
      </trkpt>
      <trkpt lat="43.07623" lon="-0.82602">
        <ele>416.26</ele>
        <time>2024-05-30T00:31:16.622Z</time>
      </trkpt>
      <trkpt lat="43.07633" lon="-0.82587">
        <ele>418.28</ele>
        <time>2024-05-30T00:31:28.914Z</time>
      </trkpt>
      <trkpt lat="43.07631" lon="-0.8257">
        <ele>420.2</ele>
        <time>2024-05-30T00:31:41.208Z</time>
      </trkpt>
      <trkpt lat="43.07589" lon="-0.82508">
        <ele>421.96</ele>
        <time>2024-05-30T00:31:53.514Z</time>
      </trkpt>
      <trkpt lat="43.07552" lon="-0.82423">
        <ele>424.03</ele>
        <time>2024-05-30T00:32:05.833Z</time>
      </trkpt>
      <trkpt lat="43.07548" lon="-0.82419">
        <ele>425.59</ele>
        <time>2024-05-30T00:32:18.153Z</time>
      </trkpt>
      <trkpt lat="43.07473" lon="-0.82369">
        <ele>427.35</ele>
        <time>2024-05-30T00:32:30.489Z</time>
      </trkpt>
      <trkpt lat="43.07467" lon="-0.8236">
        <ele>428.47</ele>
        <time>2024-05-30T00:32:42.826Z</time>
      </trkpt>
      <trkpt lat="43.07448" lon="-0.82312">
        <ele>429.41</ele>
        <time>2024-05-30T00:32:55.171Z</time>
      </trkpt>
      <trkpt lat="43.0744" lon="-0.823">
        <ele>429.93</ele>
        <time>2024-05-30T00:33:07.518Z</time>
      </trkpt>
      <trkpt lat="43.07436" lon="-0.82296">
        <ele>430.21</ele>
        <time>2024-05-30T00:33:19.866Z</time>
      </trkpt>
      <trkpt lat="43.0742" lon="-0.8229">
        <ele>430.27</ele>
        <time>2024-05-30T00:33:32.217Z</time>
      </trkpt>
      <trkpt lat="43.07394" lon="-0.82273">
        <ele>430.1</ele>
        <time>2024-05-30T00:33:44.573Z</time>
      </trkpt>
      <trkpt lat="43.07385" lon="-0.82259">
        <ele>429.65</ele>
        <time>2024-05-30T00:33:56.932Z</time>
      </trkpt>
      <trkpt lat="43.07383" lon="-0.82239">
        <ele>428.74</ele>
        <time>2024-05-30T00:34:09.294Z</time>
      </trkpt>
      <trkpt lat="43.07388" lon="-0.822">
        <ele>427.33</ele>
        <time>2024-05-30T00:34:21.661Z</time>
      </trkpt>
      <trkpt lat="43.07386" lon="-0.82185">
        <ele>425.98</ele>
        <time>2024-05-30T00:34:34.030Z</time>
      </trkpt>
      <trkpt lat="43.07376" lon="-0.82147">
        <ele>424.38</ele>
        <time>2024-05-30T00:34:46.405Z</time>
      </trkpt>
      <trkpt lat="43.07377" lon="-0.82122">
        <ele>422.54</ele>
        <time>2024-05-30T00:34:58.783Z</time>
      </trkpt>
      <trkpt lat="43.07397" lon="-0.82123">
        <ele>420.41</ele>
        <time>2024-05-30T00:35:11.165Z</time>
      </trkpt>
      <trkpt lat="43.07408" lon="-0.8212">
        <ele>418.13</ele>
        <time>2024-05-30T00:35:23.549Z</time>
      </trkpt>
      <trkpt lat="43.07423" lon="-0.8211">
        <ele>415.62</ele>
        <time>2024-05-30T00:35:35.936Z</time>
      </trkpt>
      <trkpt lat="43.07463" lon="-0.82076">
        <ele>412.75</ele>
        <time>2024-05-30T00:35:48.332Z</time>
      </trkpt>
      <trkpt lat="43.07504" lon="-0.82036">
        <ele>409.66</ele>
        <time>2024-05-30T00:36:00.737Z</time>
      </trkpt>
      <trkpt lat="43.07542" lon="-0.81988">
        <ele>406.61</ele>
        <time>2024-05-30T00:36:13.152Z</time>
      </trkpt>
      <trkpt lat="43.07582" lon="-0.81946">
        <ele>403.39</ele>
        <time>2024-05-30T00:36:25.576Z</time>
      </trkpt>
      <trkpt lat="43.07599" lon="-0.81923">
        <ele>400.45</ele>
        <time>2024-05-30T00:36:38.005Z</time>
      </trkpt>
      <trkpt lat="43.07602" lon="-0.8191">
        <ele>397.64</ele>
        <time>2024-05-30T00:36:50.435Z</time>
      </trkpt>
      <trkpt lat="43.07601" lon="-0.81902">
        <ele>394.9</ele>
        <time>2024-05-30T00:37:02.867Z</time>
      </trkpt>
      <trkpt lat="43.07598" lon="-0.81895">
        <ele>392.2</ele>
        <time>2024-05-30T00:37:15.300Z</time>
      </trkpt>
      <trkpt lat="43.07585" lon="-0.81876">
        <ele>389.61</ele>
        <time>2024-05-30T00:37:27.736Z</time>
      </trkpt>
      <trkpt lat="43.07579" lon="-0.8186">
        <ele>386.96</ele>
        <time>2024-05-30T00:37:40.175Z</time>
      </trkpt>
      <trkpt lat="43.07575" lon="-0.81832">
        <ele>384.15</ele>
        <time>2024-05-30T00:37:52.618Z</time>
      </trkpt>
      <trkpt lat="43.07569" lon="-0.81813">
        <ele>381.43</ele>
        <time>2024-05-30T00:38:05.063Z</time>
      </trkpt>
      <trkpt lat="43.07562" lon="-0.81797">
        <ele>378.83</ele>
        <time>2024-05-30T00:38:17.511Z</time>
      </trkpt>
      <trkpt lat="43.07535" lon="-0.8177">
        <ele>376.19</ele>
        <time>2024-05-30T00:38:29.965Z</time>
      </trkpt>
      <trkpt lat="43.07527" lon="-0.81757">
        <ele>373.43</ele>
        <time>2024-05-30T00:38:42.421Z</time>
      </trkpt>
      <trkpt lat="43.07517" lon="-0.81738">
        <ele>370.62</ele>
        <time>2024-05-30T00:38:54.881Z</time>
      </trkpt>
      <trkpt lat="43.07511" lon="-0.81717">
        <ele>367.73</ele>
        <time>2024-05-30T00:39:07.344Z</time>
      </trkpt>
      <trkpt lat="43.07508" lon="-0.81701">
        <ele>364.86</ele>
        <time>2024-05-30T00:39:19.809Z</time>
      </trkpt>
      <trkpt lat="43.07511" lon="-0.81682">
        <ele>362.05</ele>
        <time>2024-05-30T00:39:32.277Z</time>
      </trkpt>
      <trkpt lat="43.07516" lon="-0.8166">
        <ele>359.21</ele>
        <time>2024-05-30T00:39:44.748Z</time>
      </trkpt>
      <trkpt lat="43.07527" lon="-0.81637">
        <ele>356.27</ele>
        <time>2024-05-30T00:39:57.223Z</time>
      </trkpt>
      <trkpt lat="43.0754" lon="-0.81622">
        <ele>353.4</ele>
        <time>2024-05-30T00:40:09.701Z</time>
      </trkpt>
      <trkpt lat="43.07567" lon="-0.81602">
        <ele>350.57</ele>
        <time>2024-05-30T00:40:22.184Z</time>
      </trkpt>
      <trkpt lat="43.07607" lon="-0.8158">
        <ele>347.57</ele>
        <time>2024-05-30T00:40:34.675Z</time>
      </trkpt>
      <trkpt lat="43.07785" lon="-0.81547">
        <ele>343.8</ele>
        <time>2024-05-30T00:40:47.200Z</time>
      </trkpt>
      <trkpt lat="43.07802" lon="-0.81557">
        <ele>341.11</ele>
        <time>2024-05-30T00:40:59.728Z</time>
      </trkpt>
      <trkpt lat="43.07806" lon="-0.81573">
        <ele>338.67</ele>
        <time>2024-05-30T00:41:12.259Z</time>
      </trkpt>
      <trkpt lat="43.0781" lon="-0.81612">
        <ele>336.38</ele>
        <time>2024-05-30T00:41:24.795Z</time>
      </trkpt>
      <trkpt lat="43.07814" lon="-0.8162">
        <ele>334.06</ele>
        <time>2024-05-30T00:41:37.332Z</time>
      </trkpt>
      <trkpt lat="43.07822" lon="-0.81621">
        <ele>331.78</ele>
        <time>2024-05-30T00:41:49.871Z</time>
      </trkpt>
      <trkpt lat="43.07828" lon="-0.81613">
        <ele>329.57</ele>
        <time>2024-05-30T00:42:02.411Z</time>
      </trkpt>
      <trkpt lat="43.07836" lon="-0.81596">
        <ele>327.41</ele>
        <time>2024-05-30T00:42:14.954Z</time>
      </trkpt>
      <trkpt lat="43.07845" lon="-0.8157">
        <ele>325.19</ele>
        <time>2024-05-30T00:42:27.501Z</time>
      </trkpt>
      <trkpt lat="43.07845" lon="-0.8154">
        <ele>322.83</ele>
        <time>2024-05-30T00:42:40.052Z</time>
      </trkpt>
      <trkpt lat="43.07842" lon="-0.81502">
        <ele>320.42</ele>
        <time>2024-05-30T00:42:52.608Z</time>
      </trkpt>
      <trkpt lat="43.07838" lon="-0.81482">
        <ele>318.34</ele>
        <time>2024-05-30T00:43:05.167Z</time>
      </trkpt>
      <trkpt lat="43.07834" lon="-0.81474">
        <ele>316.48</ele>
        <time>2024-05-30T00:43:17.727Z</time>
      </trkpt>
      <trkpt lat="43.07813" lon="-0.81449">
        <ele>314.61</ele>
        <time>2024-05-30T00:43:30.293Z</time>
      </trkpt>
      <trkpt lat="43.07814" lon="-0.81439">
        <ele>312.97</ele>
        <time>2024-05-30T00:43:42.860Z</time>
      </trkpt>
      <trkpt lat="43.07828" lon="-0.81408">
        <ele>311.44</ele>
        <time>2024-05-30T00:43:55.432Z</time>
      </trkpt>
      <trkpt lat="43.07837" lon="-0.81393">
        <ele>310.01</ele>
        <time>2024-05-30T00:44:08.007Z</time>
      </trkpt>
      <trkpt lat="43.07852" lon="-0.8138">
        <ele>308.63</ele>
        <time>2024-05-30T00:44:20.585Z</time>
      </trkpt>
      <trkpt lat="43.07887" lon="-0.81375">
        <ele>307.15</ele>
        <time>2024-05-30T00:44:33.169Z</time>
      </trkpt>
      <trkpt lat="43.07908" lon="-0.81367">
        <ele>305.77</ele>
        <time>2024-05-30T00:44:45.758Z</time>
      </trkpt>
      <trkpt lat="43.07921" lon="-0.81366">
        <ele>304.45</ele>
        <time>2024-05-30T00:44:58.349Z</time>
      </trkpt>
      <trkpt lat="43.07953" lon="-0.8137">
        <ele>303.07</ele>
        <time>2024-05-30T00:45:10.946Z</time>
      </trkpt>
      <trkpt lat="43.07972" lon="-0.8137">
        <ele>301.82</ele>
        <time>2024-05-30T00:45:23.546Z</time>
      </trkpt>
      <trkpt lat="43.07988" lon="-0.81363">
        <ele>300.62</ele>
        <time>2024-05-30T00:45:36.150Z</time>
      </trkpt>
      <trkpt lat="43.08018" lon="-0.81343">
        <ele>299.42</ele>
        <time>2024-05-30T00:45:48.760Z</time>
      </trkpt>
      <trkpt lat="43.08053" lon="-0.81322">
        <ele>298.25</ele>
        <time>2024-05-30T00:46:01.377Z</time>
      </trkpt>
      <trkpt lat="43.08131" lon="-0.81325">
        <ele>297.03</ele>
        <time>2024-05-30T00:46:14.008Z</time>
      </trkpt>
      <trkpt lat="43.08245" lon="-0.81281">
        <ele>295.79</ele>
        <time>2024-05-30T00:46:26.661Z</time>
      </trkpt>
      <trkpt lat="43.08298" lon="-0.81256">
        <ele>294.74</ele>
        <time>2024-05-30T00:46:39.325Z</time>
      </trkpt>
      <trkpt lat="43.08373" lon="-0.81224">
        <ele>293.69</ele>
        <time>2024-05-30T00:46:52.004Z</time>
      </trkpt>
      <trkpt lat="43.08409" lon="-0.81212">
        <ele>292.61</ele>
        <time>2024-05-30T00:47:04.689Z</time>
      </trkpt>
      <trkpt lat="43.08428" lon="-0.81202">
        <ele>291.59</ele>
        <time>2024-05-30T00:47:17.378Z</time>
      </trkpt>
      <trkpt lat="43.08442" lon="-0.81201">
        <ele>290.56</ele>
        <time>2024-05-30T00:47:30.070Z</time>
      </trkpt>
      <trkpt lat="43.08463" lon="-0.81203">
        <ele>289.46</ele>
        <time>2024-05-30T00:47:42.766Z</time>
      </trkpt>
      <trkpt lat="43.08476" lon="-0.81199">
        <ele>288.47</ele>
        <time>2024-05-30T00:47:55.464Z</time>
      </trkpt>
      <trkpt lat="43.0851" lon="-0.81167">
        <ele>287.49</ele>
        <time>2024-05-30T00:48:08.170Z</time>
      </trkpt>
      <trkpt lat="43.08525" lon="-0.81164">
        <ele>286.67</ele>
        <time>2024-05-30T00:48:20.879Z</time>
      </trkpt>
      <trkpt lat="43.0855" lon="-0.81168">
        <ele>285.98</ele>
        <time>2024-05-30T00:48:33.592Z</time>
      </trkpt>
      <trkpt lat="43.08559" lon="-0.81166">
        <ele>285.3</ele>
        <time>2024-05-30T00:48:46.307Z</time>
      </trkpt>
      <trkpt lat="43.08568" lon="-0.8116">
        <ele>284.62</ele>
        <time>2024-05-30T00:48:59.024Z</time>
      </trkpt>
      <trkpt lat="43.08619" lon="-0.81143">
        <ele>283.84</ele>
        <time>2024-05-30T00:49:11.751Z</time>
      </trkpt>
      <trkpt lat="43.08644" lon="-0.81123">
        <ele>283.03</ele>
        <time>2024-05-30T00:49:24.483Z</time>
      </trkpt>
      <trkpt lat="43.08681" lon="-0.81119">
        <ele>282.42</ele>
        <time>2024-05-30T00:49:37.222Z</time>
      </trkpt>
      <trkpt lat="43.08702" lon="-0.81114">
        <ele>281.88</ele>
        <time>2024-05-30T00:49:49.965Z</time>
      </trkpt>
      <trkpt lat="43.08724" lon="-0.81093">
        <ele>281.34</ele>
        <time>2024-05-30T00:50:02.713Z</time>
      </trkpt>
      <trkpt lat="43.08748" lon="-0.81082">
        <ele>280.84</ele>
        <time>2024-05-30T00:50:15.466Z</time>
      </trkpt>
      <trkpt lat="43.08757" lon="-0.81075">
        <ele>280.42</ele>
        <time>2024-05-30T00:50:28.221Z</time>
      </trkpt>
      <trkpt lat="43.08784" lon="-0.81045">
        <ele>280.06</ele>
        <time>2024-05-30T00:50:40.982Z</time>
      </trkpt>
      <trkpt lat="43.0883" lon="-0.81024">
        <ele>279.79</ele>
        <time>2024-05-30T00:50:53.752Z</time>
      </trkpt>
      <trkpt lat="43.08859" lon="-0.81004">
        <ele>279.61</ele>
        <time>2024-05-30T00:51:06.528Z</time>
      </trkpt>
      <trkpt lat="43.08872" lon="-0.81003">
        <ele>279.41</ele>
        <time>2024-05-30T00:51:19.307Z</time>
      </trkpt>
      <trkpt lat="43.08895" lon="-0.81008">
        <ele>279.24</ele>
        <time>2024-05-30T00:51:32.090Z</time>
      </trkpt>
      <trkpt lat="43.0892" lon="-0.81025">
        <ele>279.05</ele>
        <time>2024-05-30T00:51:44.878Z</time>
      </trkpt>
      <trkpt lat="43.08924" lon="-0.81029">
        <ele>278.95</ele>
        <time>2024-05-30T00:51:57.667Z</time>
      </trkpt>
      <trkpt lat="43.08961" lon="-0.81071">
        <ele>278.93</ele>
        <time>2024-05-30T00:52:10.465Z</time>
      </trkpt>
      <trkpt lat="43.08967" lon="-0.81088">
        <ele>278.85</ele>
        <time>2024-05-30T00:52:23.266Z</time>
      </trkpt>
      <trkpt lat="43.08968" lon="-0.81114">
        <ele>278.85</ele>
        <time>2024-05-30T00:52:36.070Z</time>
      </trkpt>
      <trkpt lat="43.08972" lon="-0.81129">
        <ele>278.85</ele>
        <time>2024-05-30T00:52:48.876Z</time>
      </trkpt>
      <trkpt lat="43.08984" lon="-0.81144">
        <ele>278.85</ele>
        <time>2024-05-30T00:53:01.685Z</time>
      </trkpt>
      <trkpt lat="43.08993" lon="-0.81153">
        <ele>278.82</ele>
        <time>2024-05-30T00:53:14.496Z</time>
      </trkpt>
      <trkpt lat="43.09005" lon="-0.81158">
        <ele>278.76</ele>
        <time>2024-05-30T00:53:27.310Z</time>
      </trkpt>
      <trkpt lat="43.09102" lon="-0.81195">
        <ele>278.63</ele>
        <time>2024-05-30T00:53:40.142Z</time>
      </trkpt>
      <trkpt lat="43.09143" lon="-0.81193">
        <ele>278.43</ele>
        <time>2024-05-30T00:53:52.982Z</time>
      </trkpt>
      <trkpt lat="43.09174" lon="-0.81201">
        <ele>278.41</ele>
        <time>2024-05-30T00:54:05.828Z</time>
      </trkpt>
      <trkpt lat="43.0921" lon="-0.8122">
        <ele>278.25</ele>
        <time>2024-05-30T00:54:18.681Z</time>
      </trkpt>
      <trkpt lat="43.0928" lon="-0.81261">
        <ele>277.92</ele>
        <time>2024-05-30T00:54:31.548Z</time>
      </trkpt>
      <trkpt lat="43.09329" lon="-0.81296">
        <ele>277.81</ele>
        <time>2024-05-30T00:54:44.426Z</time>
      </trkpt>
      <trkpt lat="43.0934" lon="-0.813">
        <ele>277.69</ele>
        <time>2024-05-30T00:54:57.306Z</time>
      </trkpt>
      <trkpt lat="43.09362" lon="-0.81301">
        <ele>277.56</ele>
        <time>2024-05-30T00:55:10.190Z</time>
      </trkpt>
      <trkpt lat="43.09387" lon="-0.81319">
        <ele>277.43</ele>
        <time>2024-05-30T00:55:23.079Z</time>
      </trkpt>
      <trkpt lat="43.0939" lon="-0.81332">
        <ele>277.32</ele>
        <time>2024-05-30T00:55:35.970Z</time>
      </trkpt>
      <trkpt lat="43.09391" lon="-0.81359">
        <ele>277.19</ele>
        <time>2024-05-30T00:55:48.865Z</time>
      </trkpt>
      <trkpt lat="43.09395" lon="-0.81383">
        <ele>277.04</ele>
        <time>2024-05-30T00:56:01.763Z</time>
      </trkpt>
      <trkpt lat="43.09411" lon="-0.81437">
        <ele>277.01</ele>
        <time>2024-05-30T00:56:14.669Z</time>
      </trkpt>
      <trkpt lat="43.09419" lon="-0.81457">
        <ele>276.83</ele>
        <time>2024-05-30T00:56:27.578Z</time>
      </trkpt>
      <trkpt lat="43.09436" lon="-0.81478">
        <ele>276.63</ele>
        <time>2024-05-30T00:56:40.491Z</time>
      </trkpt>
      <trkpt lat="43.09454" lon="-0.81494">
        <ele>276.26</ele>
        <time>2024-05-30T00:56:53.408Z</time>
      </trkpt>
      <trkpt lat="43.09469" lon="-0.81507">
        <ele>275.87</ele>
        <time>2024-05-30T00:57:06.329Z</time>
      </trkpt>
      <trkpt lat="43.09507" lon="-0.81535">
        <ele>275.38</ele>
        <time>2024-05-30T00:57:19.258Z</time>
      </trkpt>
      <trkpt lat="43.09518" lon="-0.81546">
        <ele>274.92</ele>
        <time>2024-05-30T00:57:32.189Z</time>
      </trkpt>
      <trkpt lat="43.09522" lon="-0.81552">
        <ele>274.44</ele>
        <time>2024-05-30T00:57:45.121Z</time>
      </trkpt>
      <trkpt lat="43.0953" lon="-0.81567">
        <ele>273.92</ele>
        <time>2024-05-30T00:57:58.056Z</time>
      </trkpt>
      <trkpt lat="43.09561" lon="-0.81661">
        <ele>273.44</ele>
        <time>2024-05-30T00:58:11.005Z</time>
      </trkpt>
      <trkpt lat="43.09585" lon="-0.81693">
        <ele>272.82</ele>
        <time>2024-05-30T00:58:23.960Z</time>
      </trkpt>
      <trkpt lat="43.09601" lon="-0.81705">
        <ele>272.13</ele>
        <time>2024-05-30T00:58:36.918Z</time>
      </trkpt>
      <trkpt lat="43.09623" lon="-0.8174">
        <ele>271.46</ele>
        <time>2024-05-30T00:58:49.883Z</time>
      </trkpt>
      <trkpt lat="43.09626" lon="-0.81751">
        <ele>270.8</ele>
        <time>2024-05-30T00:59:02.849Z</time>
      </trkpt>
      <trkpt lat="43.09624" lon="-0.81776">
        <ele>270.19</ele>
        <time>2024-05-30T00:59:15.819Z</time>
      </trkpt>
      <trkpt lat="43.09634" lon="-0.81819">
        <ele>269.58</ele>
        <time>2024-05-30T00:59:28.795Z</time>
      </trkpt>
      <trkpt lat="43.09646" lon="-0.81815">
        <ele>268.86</ele>
        <time>2024-05-30T00:59:41.773Z</time>
      </trkpt>
      <trkpt lat="43.09675" lon="-0.81817">
        <ele>268.09</ele>
        <time>2024-05-30T00:59:54.757Z</time>
      </trkpt>
      <trkpt lat="43.09744" lon="-0.81785">
        <ele>267.33</ele>
        <time>2024-05-30T01:00:07.754Z</time>
      </trkpt>
      <trkpt lat="43.09768" lon="-0.81771">
        <ele>266.85</ele>
        <time>2024-05-30T01:00:20.756Z</time>
      </trkpt>
      <trkpt lat="43.09789" lon="-0.81754">
        <ele>266.42</ele>
        <time>2024-05-30T01:00:33.763Z</time>
      </trkpt>
      <trkpt lat="43.09809" lon="-0.81809">
        <ele>266.16</ele>
        <time>2024-05-30T01:00:46.778Z</time>
      </trkpt>
      <trkpt lat="43.09814" lon="-0.81817">
        <ele>266.03</ele>
        <time>2024-05-30T01:00:59.794Z</time>
      </trkpt>
      <trkpt lat="43.09817" lon="-0.81813">
        <ele>266.02</ele>
        <time>2024-05-30T01:01:12.811Z</time>
      </trkpt>
      <trkpt lat="43.09827" lon="-0.81765">
        <ele>266.13</ele>
        <time>2024-05-30T01:01:25.835Z</time>
      </trkpt>
      <trkpt lat="43.09839" lon="-0.81729">
        <ele>266.39</ele>
        <time>2024-05-30T01:01:38.864Z</time>
      </trkpt>
      <trkpt lat="43.09868" lon="-0.81678">
        <ele>266.81</ele>
        <time>2024-05-30T01:01:51.902Z</time>
      </trkpt>
      <trkpt lat="43.09934" lon="-0.81572">
        <ele>267.88</ele>
        <time>2024-05-30T01:02:04.959Z</time>
      </trkpt>
      <trkpt lat="43.09946" lon="-0.81558">
        <ele>268.77</ele>
        <time>2024-05-30T01:02:18.019Z</time>
      </trkpt>
      <trkpt lat="43.09959" lon="-0.81548">
        <ele>269.77</ele>
        <time>2024-05-30T01:02:31.082Z</time>
      </trkpt>
      <trkpt lat="43.10029" lon="-0.8152">
        <ele>271.21</ele>
        <time>2024-05-30T01:02:44.158Z</time>
      </trkpt>
      <trkpt lat="43.10053" lon="-0.81505">
        <ele>272.28</ele>
        <time>2024-05-30T01:02:57.239Z</time>
      </trkpt>
      <trkpt lat="43.10068" lon="-0.81491">
        <ele>273.38</ele>
        <time>2024-05-30T01:03:10.324Z</time>
      </trkpt>
      <trkpt lat="43.10083" lon="-0.81473">
        <ele>274.45</ele>
        <time>2024-05-30T01:03:23.412Z</time>
      </trkpt>
      <trkpt lat="43.10098" lon="-0.81444">
        <ele>275.54</ele>
        <time>2024-05-30T01:03:36.505Z</time>
      </trkpt>
      <trkpt lat="43.10108" lon="-0.81415">
        <ele>276.68</ele>
        <time>2024-05-30T01:03:49.603Z</time>
      </trkpt>
      <trkpt lat="43.10117" lon="-0.81378">
        <ele>277.95</ele>
        <time>2024-05-30T01:04:02.706Z</time>
      </trkpt>
      <trkpt lat="43.10131" lon="-0.81318">
        <ele>279.38</ele>
        <time>2024-05-30T01:04:15.818Z</time>
      </trkpt>
      <trkpt lat="43.1014" lon="-0.81269">
        <ele>281.08</ele>
        <time>2024-05-30T01:04:28.936Z</time>
      </trkpt>
      <trkpt lat="43.10144" lon="-0.81213">
        <ele>283.08</ele>
        <time>2024-05-30T01:04:42.062Z</time>
      </trkpt>
      <trkpt lat="43.10143" lon="-0.81174">
        <ele>285.38</ele>
        <time>2024-05-30T01:04:55.193Z</time>
      </trkpt>
      <trkpt lat="43.10138" lon="-0.81142">
        <ele>288.08</ele>
        <time>2024-05-30T01:05:08.329Z</time>
      </trkpt>
      <trkpt lat="43.10119" lon="-0.81072">
        <ele>291.39</ele>
        <time>2024-05-30T01:05:21.475Z</time>
      </trkpt>
      <trkpt lat="43.10111" lon="-0.81049">
        <ele>294.59</ele>
        <time>2024-05-30T01:05:34.625Z</time>
      </trkpt>
      <trkpt lat="43.1007" lon="-0.80971">
        <ele>298.38</ele>
        <time>2024-05-30T01:05:47.788Z</time>
      </trkpt>
      <trkpt lat="43.10057" lon="-0.80939">
        <ele>301.93</ele>
        <time>2024-05-30T01:06:00.956Z</time>
      </trkpt>
      <trkpt lat="43.10051" lon="-0.80909">
        <ele>305.45</ele>
        <time>2024-05-30T01:06:14.128Z</time>
      </trkpt>
      <trkpt lat="43.10051" lon="-0.80887">
        <ele>309.18</ele>
        <time>2024-05-30T01:06:27.303Z</time>
      </trkpt>
      <trkpt lat="43.10054" lon="-0.80859">
        <ele>313.06</ele>
        <time>2024-05-30T01:06:40.482Z</time>
      </trkpt>
      <trkpt lat="43.10065" lon="-0.80832">
        <ele>317.02</ele>
        <time>2024-05-30T01:06:53.665Z</time>
      </trkpt>
      <trkpt lat="43.10082" lon="-0.8081">
        <ele>321.01</ele>
        <time>2024-05-30T01:07:06.852Z</time>
      </trkpt>
      <trkpt lat="43.10239" lon="-0.80685">
        <ele>326.01</ele>
        <time>2024-05-30T01:07:20.073Z</time>
      </trkpt>
      <trkpt lat="43.10252" lon="-0.80672">
        <ele>329.84</ele>
        <time>2024-05-30T01:07:33.297Z</time>
      </trkpt>
      <trkpt lat="43.10265" lon="-0.80655">
        <ele>333.62</ele>
        <time>2024-05-30T01:07:46.524Z</time>
      </trkpt>
      <trkpt lat="43.10285" lon="-0.80617">
        <ele>337.46</ele>
        <time>2024-05-30T01:07:59.758Z</time>
      </trkpt>
      <trkpt lat="43.1031" lon="-0.80544">
        <ele>341.19</ele>
        <time>2024-05-30T01:08:13.003Z</time>
      </trkpt>
      <trkpt lat="43.10315" lon="-0.80523">
        <ele>344.49</ele>
        <time>2024-05-30T01:08:26.251Z</time>
      </trkpt>
      <trkpt lat="43.10319" lon="-0.80489">
        <ele>347.7</ele>
        <time>2024-05-30T01:08:39.503Z</time>
      </trkpt>
      <trkpt lat="43.10317" lon="-0.80463">
        <ele>350.54</ele>
        <time>2024-05-30T01:08:52.759Z</time>
      </trkpt>
      <trkpt lat="43.10308" lon="-0.80435">
        <ele>353.01</ele>
        <time>2024-05-30T01:09:06.019Z</time>
      </trkpt>
      <trkpt lat="43.10293" lon="-0.80404">
        <ele>355.1</ele>
        <time>2024-05-30T01:09:19.284Z</time>
      </trkpt>
      <trkpt lat="43.10286" lon="-0.80382">
        <ele>357.05</ele>
        <time>2024-05-30T01:09:32.553Z</time>
      </trkpt>
      <trkpt lat="43.10284" lon="-0.80349">
        <ele>358.79</ele>
        <time>2024-05-30T01:09:45.826Z</time>
      </trkpt>
      <trkpt lat="43.10295" lon="-0.8029">
        <ele>360.51</ele>
        <time>2024-05-30T01:09:59.107Z</time>
      </trkpt>
      <trkpt lat="43.10297" lon="-0.8026">
        <ele>361.73</ele>
        <time>2024-05-30T01:10:12.392Z</time>
      </trkpt>
      <trkpt lat="43.10288" lon="-0.80131">
        <ele>362.86</ele>
        <time>2024-05-30T01:10:25.695Z</time>
      </trkpt>
      <trkpt lat="43.10288" lon="-0.80074">
        <ele>363.36</ele>
        <time>2024-05-30T01:10:39.006Z</time>
      </trkpt>
      <trkpt lat="43.10293" lon="-0.80044">
        <ele>363.43</ele>
        <time>2024-05-30T01:10:52.321Z</time>
      </trkpt>
      <trkpt lat="43.10306" lon="-0.80009">
        <ele>363.13</ele>
        <time>2024-05-30T01:11:05.641Z</time>
      </trkpt>
      <trkpt lat="43.1034" lon="-0.79935">
        <ele>362.38</ele>
        <time>2024-05-30T01:11:18.973Z</time>
      </trkpt>
      <trkpt lat="43.10373" lon="-0.79854">
        <ele>361.26</ele>
        <time>2024-05-30T01:11:32.318Z</time>
      </trkpt>
      <trkpt lat="43.10457" lon="-0.79637">
        <ele>359.99</ele>
        <time>2024-05-30T01:11:45.696Z</time>
      </trkpt>
      <trkpt lat="43.10518" lon="-0.79484">
        <ele>358.94</ele>
        <time>2024-05-30T01:11:59.098Z</time>
      </trkpt>
      <trkpt lat="43.10527" lon="-0.79457">
        <ele>357.85</ele>
        <time>2024-05-30T01:12:12.504Z</time>
      </trkpt>
      <trkpt lat="43.10516" lon="-0.79458">
        <ele>356.67</ele>
        <time>2024-05-30T01:12:25.912Z</time>
      </trkpt>
      <trkpt lat="43.10503" lon="-0.79475">
        <ele>355.63</ele>
        <time>2024-05-30T01:12:39.324Z</time>
      </trkpt>
      <trkpt lat="43.10465" lon="-0.79508">
        <ele>354.62</ele>
        <time>2024-05-30T01:12:52.744Z</time>
      </trkpt>
      <trkpt lat="43.10455" lon="-0.79506">
        <ele>353.89</ele>
        <time>2024-05-30T01:13:06.166Z</time>
      </trkpt>
      <trkpt lat="43.10453" lon="-0.79499">
        <ele>353.36</ele>
        <time>2024-05-30T01:13:19.589Z</time>
      </trkpt>
      <trkpt lat="43.10453" lon="-0.79488">
        <ele>353.05</ele>
        <time>2024-05-30T01:13:33.013Z</time>
      </trkpt>
      <trkpt lat="43.10463" lon="-0.79457">
        <ele>352.9</ele>
        <time>2024-05-30T01:13:46.442Z</time>
      </trkpt>
      <trkpt lat="43.10467" lon="-0.79432">
        <ele>353.24</ele>
        <time>2024-05-30T01:13:59.875Z</time>
      </trkpt>
      <trkpt lat="43.10461" lon="-0.79391">
        <ele>353.86</ele>
        <time>2024-05-30T01:14:13.313Z</time>
      </trkpt>
      <trkpt lat="43.1047" lon="-0.7935">
        <ele>354.97</ele>
        <time>2024-05-30T01:14:26.757Z</time>
      </trkpt>
      <trkpt lat="43.10469" lon="-0.79323">
        <ele>356.7</ele>
        <time>2024-05-30T01:14:40.205Z</time>
      </trkpt>
      <trkpt lat="43.10461" lon="-0.79308">
        <ele>358.94</ele>
        <time>2024-05-30T01:14:53.655Z</time>
      </trkpt>
      <trkpt lat="43.10449" lon="-0.79301">
        <ele>361.55</ele>
        <time>2024-05-30T01:15:07.108Z</time>
      </trkpt>
      <trkpt lat="43.10399" lon="-0.793">
        <ele>364.45</ele>
        <time>2024-05-30T01:15:20.570Z</time>
      </trkpt>
      <trkpt lat="43.10332" lon="-0.79289">
        <ele>367.7</ele>
        <time>2024-05-30T01:15:34.045Z</time>
      </trkpt>
      <trkpt lat="43.10249" lon="-0.7922">
        <ele>372</ele>
        <time>2024-05-30T01:15:47.538Z</time>
      </trkpt>
      <trkpt lat="43.1019" lon="-0.79186">
        <ele>375.81</ele>
        <time>2024-05-30T01:16:01.043Z</time>
      </trkpt>
      <trkpt lat="43.10129" lon="-0.79133">
        <ele>380.12</ele>
        <time>2024-05-30T01:16:14.561Z</time>
      </trkpt>
      <trkpt lat="43.10115" lon="-0.79098">
        <ele>384.47</ele>
        <time>2024-05-30T01:16:28.084Z</time>
      </trkpt>
      <trkpt lat="43.10091" lon="-0.79098">
        <ele>388.18</ele>
        <time>2024-05-30T01:16:41.612Z</time>
      </trkpt>
      <trkpt lat="43.10072" lon="-0.79117">
        <ele>391.76</ele>
        <time>2024-05-30T01:16:55.144Z</time>
      </trkpt>
      <trkpt lat="43.10053" lon="-0.79127">
        <ele>395.88</ele>
        <time>2024-05-30T01:17:08.680Z</time>
      </trkpt>
      <trkpt lat="43.1002" lon="-0.79126">
        <ele>400.28</ele>
        <time>2024-05-30T01:17:22.222Z</time>
      </trkpt>
      <trkpt lat="43.09994" lon="-0.7912">
        <ele>404.49</ele>
        <time>2024-05-30T01:17:35.769Z</time>
      </trkpt>
      <trkpt lat="43.09956" lon="-0.79097">
        <ele>408.63</ele>
        <time>2024-05-30T01:17:49.324Z</time>
      </trkpt>
      <trkpt lat="43.09928" lon="-0.79074">
        <ele>412.48</ele>
        <time>2024-05-30T01:18:02.885Z</time>
      </trkpt>
      <trkpt lat="43.09904" lon="-0.79058">
        <ele>415.93</ele>
        <time>2024-05-30T01:18:16.451Z</time>
      </trkpt>
      <trkpt lat="43.09884" lon="-0.79038">
        <ele>419.14</ele>
        <time>2024-05-30T01:18:30.022Z</time>
      </trkpt>
      <trkpt lat="43.09822" lon="-0.79043">
        <ele>422.25</ele>
        <time>2024-05-30T01:18:43.604Z</time>
      </trkpt>
      <trkpt lat="43.09809" lon="-0.79038">
        <ele>424.67</ele>
        <time>2024-05-30T01:18:57.189Z</time>
      </trkpt>
      <trkpt lat="43.09797" lon="-0.79037">
        <ele>426.77</ele>
        <time>2024-05-30T01:19:10.776Z</time>
      </trkpt>
      <trkpt lat="43.09776" lon="-0.79041">
        <ele>428.53</ele>
        <time>2024-05-30T01:19:24.367Z</time>
      </trkpt>
      <trkpt lat="43.09763" lon="-0.79038">
        <ele>429.84</ele>
        <time>2024-05-30T01:19:37.960Z</time>
      </trkpt>
      <trkpt lat="43.09747" lon="-0.79031">
        <ele>430.76</ele>
        <time>2024-05-30T01:19:51.556Z</time>
      </trkpt>
      <trkpt lat="43.09735" lon="-0.79018">
        <ele>431.15</ele>
        <time>2024-05-30T01:20:05.155Z</time>
      </trkpt>
      <trkpt lat="43.09734" lon="-0.7899">
        <ele>430.8</ele>
        <time>2024-05-30T01:20:18.758Z</time>
      </trkpt>
      <trkpt lat="43.09751" lon="-0.78949">
        <ele>429.77</ele>
        <time>2024-05-30T01:20:32.367Z</time>
      </trkpt>
      <trkpt lat="43.09755" lon="-0.78915">
        <ele>428.41</ele>
        <time>2024-05-30T01:20:45.981Z</time>
      </trkpt>
      <trkpt lat="43.0975" lon="-0.78887">
        <ele>426.48</ele>
        <time>2024-05-30T01:20:59.599Z</time>
      </trkpt>
      <trkpt lat="43.09732" lon="-0.78865">
        <ele>423.89</ele>
        <time>2024-05-30T01:21:13.222Z</time>
      </trkpt>
      <trkpt lat="43.09746" lon="-0.78836">
        <ele>420.56</ele>
        <time>2024-05-30T01:21:26.849Z</time>
      </trkpt>
      <trkpt lat="43.09749" lon="-0.7881">
        <ele>416.66</ele>
        <time>2024-05-30T01:21:40.480Z</time>
      </trkpt>
      <trkpt lat="43.09759" lon="-0.78796">
        <ele>412.52</ele>
        <time>2024-05-30T01:21:54.114Z</time>
      </trkpt>
      <trkpt lat="43.09768" lon="-0.78789">
        <ele>407.96</ele>
        <time>2024-05-30T01:22:07.749Z</time>
      </trkpt>
      <trkpt lat="43.0985" lon="-0.78625">
        <ele>402.14</ele>
        <time>2024-05-30T01:22:21.412Z</time>
      </trkpt>
      <trkpt lat="43.0987" lon="-0.7857">
        <ele>397.09</ele>
        <time>2024-05-30T01:22:35.083Z</time>
      </trkpt>
      <trkpt lat="43.09893" lon="-0.7848">
        <ele>391.59</ele>
        <time>2024-05-30T01:22:48.767Z</time>
      </trkpt>
      <trkpt lat="43.09902" lon="-0.78426">
        <ele>386.5</ele>
        <time>2024-05-30T01:23:02.458Z</time>
      </trkpt>
      <trkpt lat="43.09846" lon="-0.78301">
        <ele>381.52</ele>
        <time>2024-05-30T01:23:16.169Z</time>
      </trkpt>
      <trkpt lat="43.09816" lon="-0.78239">
        <ele>377.28</ele>
        <time>2024-05-30T01:23:29.891Z</time>
      </trkpt>
      <trkpt lat="43.09802" lon="-0.78227">
        <ele>373.09</ele>
        <time>2024-05-30T01:23:43.616Z</time>
      </trkpt>
      <trkpt lat="43.09775" lon="-0.78223">
        <ele>368.63</ele>
        <time>2024-05-30T01:23:57.346Z</time>
      </trkpt>
      <trkpt lat="43.09764" lon="-0.78217">
        <ele>364.28</ele>
        <time>2024-05-30T01:24:11.078Z</time>
      </trkpt>
      <trkpt lat="43.09731" lon="-0.78186">
        <ele>359.67</ele>
        <time>2024-05-30T01:24:24.817Z</time>
      </trkpt>
      <trkpt lat="43.09714" lon="-0.78165">
        <ele>355.56</ele>
        <time>2024-05-30T01:24:38.561Z</time>
      </trkpt>
      <trkpt lat="43.09701" lon="-0.78153">
        <ele>352.08</ele>
        <time>2024-05-30T01:24:52.308Z</time>
      </trkpt>
      <trkpt lat="43.09663" lon="-0.78136">
        <ele>348.89</ele>
        <time>2024-05-30T01:25:06.062Z</time>
      </trkpt>
      <trkpt lat="43.09647" lon="-0.78107">
        <ele>345.71</ele>
        <time>2024-05-30T01:25:19.821Z</time>
      </trkpt>
      <trkpt lat="43.09623" lon="-0.78045">
        <ele>342.54</ele>
        <time>2024-05-30T01:25:33.589Z</time>
      </trkpt>
      <trkpt lat="43.0961" lon="-0.77995">
        <ele>339.89</ele>
        <time>2024-05-30T01:25:47.365Z</time>
      </trkpt>
      <trkpt lat="43.09661" lon="-0.77924">
        <ele>337.48</ele>
        <time>2024-05-30T01:26:01.154Z</time>
      </trkpt>
      <trkpt lat="43.09687" lon="-0.77901">
        <ele>335.63</ele>
        <time>2024-05-30T01:26:14.949Z</time>
      </trkpt>
    </trkseg>
  </trk>
</gpx>